[[{"header":{"parameterUnit":"m.s-1","parameterCategory":1,"la1":30.6,"la2":29.2853,"lo1":-89.7004,"lo2":-87.6739,"dy":0.0162,"dx":0.0183,"nx":112,"ny":82,"refTime":"2026-02-24T00:00:00:Z","depth":0,"parameterNumber":2,"parameterNumberName":"U-component_of_WINDS"},"data":[0.0,0.0,0.0,0.0,0.0,0.0,0.0,0.0,0.0,0.0,0.0,0.0,0.0,0.0,0.0,0.0,0.0,0.0,0.0,0.0,0.0,0.0,0.0,0.0,0.0,0.0,0.0,0.0,0.0,0.0,0.0,0.0,0.0,0.0,0.0,0.0,0.0,0.0,0.0,0.0,0.0,0.0,0.0,0.0,0.0,0.0,0.0,0.0,0.0,0.0,0.0,0.0,0.0,0.0,0.0,0.0,0.0,0.0,0.0,0.0,0.0,0.0,0.0,0.0,0.0,0.0,0.0,0.0,0.0,0.0,0.0,0.0,0.0,0.0,0.0,0.0,0.0,0.0,0.0,0.0,0.0,0.0,0.0,0.0,0.0,0.0,0.0,0.0,0.0,0.0,0.0,5.1499,6.1563,6.8186,6.9227,6.7475,6.15,5.0136,0.0,0.0,0.0,0.0,0.0,0.0,0.0,0.0,0.0,0.0,0.0,0.0,0.0,0.0,0.0,0.0,0.0,0.0,0.0,0.0,0.0,0.0,0.0,0.0,0.0,0.0,0.0,0.0,0.0,0.0,0.0,0.0,0.0,0.0,0.0,0.0,0.0,0.0,0.0,0.0,0.0,0.0,0.0,0.0,0.0,0.0,0.0,0.0,0.0,0.0,0.0,0.0,0.0,0.0,0.0,0.0,0.0,0.0,0.0,0.0,0.0,0.0,0.0,0.0,0.0,0.0,0.0,0.0,0.0,0.0,0.0,0.0,0.0,0.0,0.0,0.0,0.0,0.0,0.0,0.0,0.0,0.0,0.0,0.0,0.0,0.0,0.0,0.0,0.0,0.0,0.0,0.0,0.0,0.0,0.0,0.0,0.0,0.0,0.0,0.0,0.0,0.0,0.0,0.0,4.4989,5.9976,6.5838,6.9134,7.0197,6.6761,6.1017,5.265,0.0,0.0,0.0,0.0,0.0,0.0,0.0,0.0,0.0,0.0,0.0,0.0,0.0,0.0,0.0,0.0,0.0,0.0,0.0,0.0,0.0,0.0,0.0,0.0,0.0,0.0,0.0,0.0,0.0,0.0,0.0,0.0,0.0,0.0,0.0,0.0,0.0,0.0,0.0,0.0,0.0,0.0,0.0,0.0,0.0,0.0,0.0,0.0,0.0,0.0,0.0,0.0,0.0,0.0,0.0,0.0,0.0,0.0,0.0,0.0,0.0,0.0,0.0,0.0,0.0,0.0,0.0,0.0,0.0,0.0,0.0,0.0,0.0,0.0,0.0,0.0,0.0,0.0,0.0,0.0,0.0,0.0,0.0,0.0,0.0,0.0,0.0,0.0,0.0,0.0,0.0,0.0,0.0,0.0,0.0,0.0,0.0,0.0,0.0,0.0,0.0,0.0,0.0,4.3569,5.0577,6.3593,6.731,6.9506,7.1054,6.7716,6.2077,5.393,4.6835,0.0,0.0,0.0,0.0,0.0,0.0,0.0,0.0,0.0,0.0,0.0,0.0,0.0,0.0,0.0,0.0,0.0,0.0,0.0,0.0,0.0,0.0,0.0,0.0,0.0,0.0,0.0,0.0,0.0,0.0,0.0,0.0,0.0,0.0,0.0,0.0,0.0,0.0,0.0,0.0,0.0,0.0,0.0,0.0,0.0,0.0,0.0,0.0,0.0,0.0,0.0,0.0,0.0,0.0,0.0,0.0,0.0,0.0,0.0,0.0,0.0,0.0,0.0,0.0,0.0,0.0,0.0,0.0,0.0,0.0,0.0,0.0,0.0,0.0,0.0,0.0,0.0,0.0,0.0,0.0,0.0,0.0,0.0,0.0,0.0,0.0,0.0,0.0,0.0,0.0,0.0,0.0,0.0,0.0,0.0,0.0,0.0,0.0,0.0,0.0,0.0,0.0,5.1283,5.7071,6.5585,6.8065,6.9804,7.1614,6.7881,6.2161,5.4467,4.5694,0.0,0.0,0.0,0.0,0.0,0.0,0.0,0.0,0.0,0.0,0.0,0.0,0.0,0.0,0.0,0.0,0.0,0.0,0.0,0.0,0.0,0.0,0.0,0.0,0.0,0.0,0.0,0.0,0.0,0.0,0.0,0.0,0.0,0.0,0.0,0.0,0.0,0.0,0.0,0.0,0.0,0.0,0.0,0.0,0.0,0.0,0.0,0.0,0.0,0.0,0.0,0.0,0.0,0.0,0.0,0.0,0.0,0.0,0.0,0.0,0.0,0.0,0.0,0.0,0.0,0.0,0.0,0.0,0.0,0.0,0.0,0.0,0.0,0.0,0.0,0.0,0.0,0.0,0.0,0.0,0.0,0.0,0.0,0.0,0.0,0.0,0.0,0.0,0.0,0.0,0.0,0.0,0.0,0.0,0.0,0.0,0.0,0.0,0.0,0.0,0.0,0.0,5.3563,6.2138,6.6797,6.8914,7.0427,7.1505,6.5628,5.9577,5.4242,4.2829,0.0,0.0,0.0,0.0,0.0,0.0,0.0,0.0,0.0,0.0,0.0,0.0,0.0,0.0,0.0,0.0,0.0,0.0,0.0,0.0,0.0,0.0,0.0,0.0,0.0,0.0,0.0,0.0,0.0,0.0,0.0,0.0,0.0,0.0,0.0,0.0,0.0,0.0,0.0,0.0,0.0,0.0,0.0,0.0,0.0,0.0,0.0,0.0,0.0,0.0,0.0,0.0,0.0,0.0,0.0,0.0,0.0,0.0,0.0,0.0,0.0,0.0,0.0,0.0,0.0,0.0,0.0,0.0,0.0,0.0,0.0,0.0,0.0,0.0,0.0,0.0,0.0,0.0,0.0,0.0,0.0,0.0,0.0,0.0,0.0,0.0,0.0,0.0,0.0,0.0,0.0,0.0,0.0,0.0,0.0,0.0,0.0,0.0,0.0,0.0,0.0,0.0,5.2082,5.9588,0.0,6.8524,6.9692,7.0712,6.7993,6.2719,5.4434,0.0,0.0,0.0,0.0,0.0,0.0,0.0,0.0,0.0,0.0,0.0,0.0,0.0,0.0,0.0,0.0,0.0,0.0,0.0,0.0,0.0,0.0,0.0,0.0,0.0,0.0,0.0,0.0,0.0,0.0,0.0,0.0,0.0,0.0,0.0,0.0,0.0,0.0,0.0,0.0,0.0,0.0,0.0,0.0,0.0,0.0,0.0,0.0,0.0,0.0,0.0,0.0,0.0,0.0,0.0,0.0,0.0,0.0,0.0,0.0,0.0,0.0,0.0,0.0,0.0,0.0,0.0,0.0,0.0,0.0,0.0,0.0,0.0,0.0,0.0,0.0,0.0,0.0,0.0,0.0,0.0,0.0,0.0,0.0,0.0,0.0,0.0,0.0,0.0,0.0,0.0,0.0,0.0,0.0,0.0,0.0,0.0,0.0,0.0,0.0,0.0,0.0,4.518,5.2779,6.0035,0.0,6.8678,6.9634,7.0619,6.8475,6.3166,5.4076,0.0,0.0,0.0,0.0,0.0,0.0,0.0,0.0,0.0,0.0,0.0,0.0,0.0,0.0,0.0,0.0,0.0,0.0,0.0,0.0,0.0,0.0,0.0,0.0,0.0,0.0,0.0,0.0,0.0,0.0,0.0,0.0,0.0,0.0,0.0,0.0,0.0,0.0,0.0,0.0,0.0,0.0,0.0,0.0,0.0,0.0,0.0,0.0,0.0,0.0,0.0,0.0,0.0,0.0,0.0,0.0,0.0,0.0,0.0,0.0,0.0,0.0,0.0,0.0,0.0,0.0,0.0,0.0,0.0,0.0,0.0,0.0,0.0,0.0,0.0,0.0,0.0,0.0,0.0,0.0,0.0,0.0,0.0,0.0,0.0,0.0,0.0,0.0,0.0,0.0,0.0,0.0,0.0,0.0,0.0,0.0,0.0,0.0,0.0,0.0,0.0,0.0,4.5628,5.6503,6.5006,6.8429,6.9554,7.0506,7.1503,6.6166,5.9844,0.0,0.0,0.0,0.0,0.0,0.0,0.0,0.0,0.0,0.0,0.0,0.0,0.0,0.0,0.0,0.0,0.0,0.0,0.0,0.0,0.0,0.0,0.0,0.0,0.0,0.0,0.0,0.0,0.0,0.0,0.0,0.0,0.0,0.0,0.0,0.0,0.0,0.0,0.0,0.0,0.0,0.0,0.0,0.0,0.0,0.0,0.0,0.0,0.0,0.0,0.0,0.0,0.0,0.0,0.0,0.0,0.0,0.0,0.0,0.0,0.0,0.0,0.0,0.0,0.0,0.0,0.0,0.0,0.0,0.0,0.0,0.0,0.0,0.0,0.0,0.0,0.0,0.0,0.0,0.0,0.0,0.0,0.0,0.0,0.0,0.0,0.0,0.0,0.0,0.0,0.0,0.0,0.0,0.0,0.0,0.0,0.0,0.0,0.0,0.0,0.0,0.0,0.0,0.0,5.5943,6.3457,6.7462,6.8664,6.9576,7.0588,6.8564,6.3029,5.3205,0.0,0.0,0.0,0.0,0.0,0.0,0.0,0.0,0.0,0.0,0.0,0.0,0.0,0.0,0.0,0.0,0.0,0.0,0.0,0.0,0.0,0.0,0.0,0.0,0.0,0.0,0.0,0.0,0.0,0.0,0.0,0.0,0.0,0.0,0.0,0.0,0.0,0.0,0.0,0.0,0.0,0.0,0.0,0.0,0.0,0.0,0.0,0.0,0.0,0.0,0.0,0.0,0.0,0.0,0.0,0.0,0.0,0.0,0.0,0.0,0.0,0.0,0.0,0.0,0.0,0.0,0.0,0.0,0.0,0.0,0.0,0.0,0.0,0.0,0.0,0.0,0.0,0.0,0.0,0.0,0.0,0.0,0.0,0.0,0.0,0.0,0.0,0.0,0.0,0.0,0.0,0.0,0.0,0.0,0.0,0.0,0.0,0.0,0.0,0.0,0.0,0.0,4.6877,5.598,6.3339,6.758,6.8549,6.9261,7.0238,6.9589,6.4413,5.3292,0.0,0.0,0.0,0.0,0.0,0.0,0.0,0.0,0.0,0.0,0.0,0.0,0.0,0.0,0.0,0.0,0.0,0.0,0.0,0.0,0.0,0.0,0.0,0.0,0.0,0.0,0.0,0.0,0.0,0.0,0.0,0.0,0.0,0.0,0.0,0.0,0.0,0.0,0.0,0.0,0.0,0.0,0.0,0.0,0.0,0.0,0.0,0.0,0.0,0.0,0.0,0.0,0.0,0.0,0.0,0.0,0.0,0.0,0.0,0.0,0.0,0.0,0.0,0.0,0.0,0.0,0.0,0.0,0.0,0.0,0.0,0.0,0.0,0.0,0.0,0.0,0.0,0.0,0.0,0.0,0.0,0.0,0.0,0.0,0.0,0.0,0.0,0.0,0.0,0.0,0.0,0.0,0.0,0.0,0.0,0.0,0.0,0.0,0.0,0.0,0.0,0.0,4.7031,5.6497,6.411,6.8355,6.8989,6.9461,7.0238,6.963,6.4528,5.3533,0.0,0.0,0.0,0.0,0.0,0.0,0.0,0.0,0.0,0.0,0.0,0.0,0.0,0.0,0.0,0.0,0.0,0.0,0.0,0.0,0.0,0.0,0.0,0.0,0.0,0.0,0.0,0.0,0.0,0.0,0.0,0.0,0.0,0.0,0.0,0.0,0.0,0.0,0.0,0.0,0.0,0.0,0.0,0.0,0.0,0.0,0.0,0.0,0.0,0.0,0.0,0.0,0.0,0.0,0.0,0.0,0.0,0.0,0.0,0.0,3.6427,0.0,0.0,0.0,0.0,0.0,0.0,0.0,0.0,0.0,0.0,0.0,0.0,0.0,0.0,0.0,0.0,0.0,0.0,0.0,0.0,0.0,0.0,0.0,0.0,0.0,0.0,0.0,0.0,0.0,0.0,0.0,0.0,0.0,0.0,0.0,0.0,0.0,0.0,0.0,0.0,0.0,4.7644,5.6866,6.4188,6.8355,6.9532,7.0083,7.0277,6.963,6.5043,5.526,0.0,0.0,0.0,0.0,0.0,0.0,0.0,0.0,0.0,0.0,0.0,0.0,0.0,0.0,0.0,0.0,0.0,0.0,0.0,0.0,0.0,0.0,0.0,0.0,0.0,0.0,0.0,0.0,0.0,0.0,0.0,0.0,0.0,0.0,0.0,0.0,0.0,0.0,0.0,0.0,0.0,0.0,0.0,0.0,0.0,0.0,0.0,0.0,0.0,0.0,0.0,0.0,0.0,0.0,0.0,0.0,0.0,0.0,0.0,0.0,0.0,4.1174,0.0,0.0,0.0,0.0,0.0,0.0,0.0,0.0,0.0,0.0,0.0,0.0,0.0,0.0,0.0,0.0,0.0,0.0,0.0,0.0,0.0,0.0,0.0,0.0,0.0,0.0,0.0,0.0,0.0,0.0,0.0,0.0,0.0,0.0,0.0,0.0,0.0,0.0,0.0,0.0,4.7856,5.7003,6.417,6.8355,6.9744,7.0332,7.0316,6.9667,6.5737,5.753,5.1508,0.0,0.0,0.0,0.0,0.0,0.0,0.0,0.0,0.0,0.0,0.0,0.0,0.0,0.0,0.0,0.0,0.0,0.0,0.0,0.0,0.0,0.0,0.0,0.0,0.0,0.0,0.0,0.0,0.0,0.0,0.0,0.0,0.0,0.0,0.0,0.0,0.0,0.0,0.0,0.0,0.0,0.0,0.0,0.0,0.0,0.0,0.0,0.0,0.0,0.0,0.0,0.0,0.0,0.0,0.0,5.7268,5.9296,6.1633,6.3559,5.3307,4.9695,5.0625,0.0,0.0,0.0,0.0,0.0,0.0,0.0,0.0,0.0,0.0,0.0,0.0,0.0,0.0,0.0,0.0,0.0,0.0,0.0,0.0,0.0,0.0,0.0,0.0,0.0,3.7692,3.651,0.0,0.0,0.0,0.0,0.0,0.0,0.0,0.0,0.0,0.0,0.0,0.0,4.8394,5.7409,6.4444,6.8394,6.9894,7.0518,7.0316,6.9702,6.6505,5.9876,5.4711,4.8148,0.0,0.0,0.0,0.0,0.0,0.0,0.0,0.0,0.0,0.0,0.0,0.0,0.0,0.0,0.0,0.0,0.0,0.0,0.0,0.0,0.0,0.0,0.0,0.0,0.0,0.0,0.0,0.0,0.0,0.0,0.0,0.0,4.2389,3.9777,0.0,0.0,0.0,0.0,0.0,0.0,0.0,0.0,0.0,0.0,0.0,0.0,0.0,0.0,5.6802,5.9873,6.2785,6.5512,6.8252,6.4782,5.6148,6.2204,6.7445,7.1406,6.5475,0.0,5.2291,4.7233,0.0,0.0,0.0,0.0,0.0,0.0,0.0,0.0,0.0,0.0,0.0,0.0,0.0,0.0,0.0,0.0,0.0,0.0,0.0,0.0,0.0,0.0,4.2787,4.3158,4.3479,4.3179,0.0,3.4023,2.7279,2.5936,0.0,0.0,0.0,0.0,0.0,0.0,0.0,0.0,5.0218,5.9148,6.5722,6.851,7.0432,7.1209,7.0354,6.9751,6.7063,6.1592,5.764,5.2614,4.6123,4.0793,0.0,0.0,0.0,0.0,0.0,0.0,0.0,0.0,0.0,0.0,0.0,0.0,0.0,0.0,0.0,0.0,0.0,0.0,0.0,0.0,0.0,0.0,0.0,0.0,0.0,0.0,0.0,0.0,0.0,4.2785,4.8429,4.9235,4.6173,4.1234,0.0,0.0,0.0,0.0,0.0,0.0,0.0,0.0,0.0,5.8745,6.2587,6.5294,6.6714,6.655,6.8114,7.1381,7.0988,6.9009,6.582,6.9129,7.214,7.4589,7.1439,6.7752,6.3372,5.4975,4.9108,4.4897,0.0,0.0,0.0,0.0,0.0,0.0,0.0,0.0,0.0,0.0,0.0,0.0,0.0,0.0,0.0,0.0,0.0,0.0,0.0,0.0,0.0,4.8116,4.8446,4.8087,4.7765,4.3024,3.7812,0.0,3.2377,2.9892,2.5793,0.0,0.0,0.0,0.0,0.0,5.2179,5.9649,6.5258,6.7812,6.939,7.0261,7.0293,6.9294,6.7253,6.4001,5.9954,5.5809,5.1538,4.578,4.0684,0.0,0.0,0.0,0.0,0.0,0.0,0.0,0.0,0.0,0.0,0.0,0.0,0.0,0.0,0.0,0.0,0.0,0.0,0.0,0.0,0.0,0.0,0.0,0.0,0.0,0.0,0.0,0.0,4.6694,5.2081,5.3378,5.0714,4.6076,0.0,0.0,0.0,0.0,0.0,0.0,5.8389,6.4139,6.7609,6.82,7.1081,7.3032,7.3883,7.4578,7.5716,7.7284,7.4627,7.4512,7.6746,7.713,7.7447,7.76,7.5793,7.4553,7.307,6.3418,5.7779,5.4866,5.2439,0.0,0.0,0.0,5.2701,5.2731,5.5286,5.6427,0.0,5.2958,0.0,4.9071,4.1712,0.0,0.0,0.0,0.0,3.9948,4.4595,0.0,4.8336,5.2164,5.2812,5.2462,5.2149,5.0431,4.7456,0.0,4.061,3.8416,3.3186,0.0,0.0,0.0,0.0,4.8279,5.4507,6.0573,6.5198,6.7578,6.8774,6.9678,7.0254,6.8953,6.7253,6.5277,6.1637,5.8242,5.5234,5.0245,4.5837,0.0,0.0,0.0,0.0,0.0,0.0,0.0,0.0,0.0,0.0,0.0,0.0,0.0,0.0,0.0,0.0,0.0,0.0,0.0,0.0,0.0,0.0,0.0,0.0,0.0,0.0,0.0,0.0,0.0,0.0,4.7479,5.2121,0.0,0.0,0.0,0.0,5.0087,6.1536,6.7091,6.4527,6.779,6.8762,6.6687,7.283,7.7713,8.0962,8.4185,8.4126,8.0823,8.0669,8.2285,8.5478,8.5478,8.4297,8.2122,8.0023,7.8314,7.663,7.1186,6.5863,6.1461,6.4548,6.3065,5.9545,6.2945,6.179,5.8939,6.145,6.1795,6.1473,6.3676,6.0483,5.5001,5.1138,4.7511,0.0,0.0,4.5328,4.6609,4.9362,5.1387,5.322,5.5249,5.6394,5.6626,5.5035,5.41,5.2021,0.0,4.5117,4.3927,4.1801,0.0,0.0,4.4666,4.8662,5.3148,5.7473,6.2629,6.6621,6.8524,6.97,7.0314,7.0277,6.8963,6.6985,6.4442,6.2458,5.9786,5.6253,5.3984,5.1164,4.7684,4.1737,0.0,0.0,0.0,0.0,0.0,0.0,0.0,0.0,0.0,0.0,0.0,0.0,0.0,0.0,0.0,0.0,0.0,0.0,0.0,0.0,0.0,0.0,0.0,0.0,0.0,0.0,0.0,0.0,6.4959,6.0399,0.0,0.0,5.0918,5.3662,6.8253,7.4312,7.7192,7.692,7.5754,7.5504,7.6322,7.7504,7.9215,8.1504,8.4908,8.5854,8.4324,8.4324,8.4939,8.6094,8.5363,8.4561,8.3643,8.1407,8.023,7.9604,7.6171,7.1766,6.7204,6.7491,6.658,6.5402,6.7126,6.7179,6.6457,6.6801,6.6685,6.6242,6.5429,6.2167,5.8269,5.685,5.4339,5.1962,5.1867,5.1644,5.1849,5.3934,5.5408,5.6652,5.7918,5.8607,5.88,5.8273,5.7225,5.5825,5.4,5.1576,4.9276,4.7436,4.8983,5.0126,4.9026,5.3029,5.7042,5.9601,6.3499,6.629,6.7054,6.8506,6.9422,6.9461,6.855,6.736,6.5946,6.3671,6.1504,5.958,5.6629,5.4146,5.2241,4.7414,4.1223,0.0,0.0,0.0,0.0,0.0,0.0,0.0,0.0,0.0,0.0,0.0,0.0,0.0,0.0,0.0,0.0,0.0,0.0,0.0,0.0,0.0,0.0,0.0,0.0,0.0,0.0,5.4882,6.9162,6.6494,6.2753,6.0915,5.7079,6.1328,7.7389,8.1731,8.3951,8.4728,8.2009,8.1407,8.3485,8.2355,8.2166,8.3206,8.661,8.762,8.6254,8.6159,8.6191,8.6307,8.6114,8.5574,8.4686,8.349,8.2416,8.1324,7.9664,7.6652,7.2803,7.0847,6.9811,6.9449,7.0268,7.1087,7.1692,7.1121,7.0689,7.0021,6.7924,6.5118,6.2412,6.1885,5.9865,5.7728,5.7621,5.6716,5.6078,5.7239,5.8004,5.8654,5.938,5.9901,6.0295,6.045,5.9523,5.8623,5.867,5.6324,5.3877,5.2387,5.3775,5.4811,5.4008,5.6729,5.9629,6.1858,6.4363,6.6106,6.6548,6.7735,6.8519,6.8567,6.7657,6.6615,6.5558,6.3037,6.0874,5.9231,5.6628,5.473,5.3726,4.8929,4.2996,3.592,0.0,0.0,0.0,0.0,0.0,0.0,0.0,0.0,0.0,0.0,0.0,0.0,0.0,0.0,0.0,0.0,0.0,0.0,0.0,0.0,0.0,0.0,0.0,5.0298,4.8911,5.1348,5.8496,6.9784,7.2409,6.0885,6.1041,6.6085,7.622,8.3182,8.6962,8.704,8.601,8.5933,8.7059,8.6959,8.6824,8.6687,9.0041,9.0002,8.661,8.6331,8.6414,8.6832,8.8515,8.7894,8.5506,8.6344,8.4837,8.1814,8.1813,8.0387,7.7992,7.5404,7.343,7.2089,7.2947,7.3756,7.4428,7.4312,7.3734,7.2863,7.1881,6.9886,6.76,6.6399,6.4229,6.2145,6.1989,6.0655,5.9262,5.9343,5.937,5.9434,5.9777,6.0538,6.1268,6.1573,6.1019,6.0495,6.0466,5.9104,5.7695,5.6826,5.7395,5.8468,5.9931,5.9968,0.0,6.4247,6.5331,6.6203,6.717,6.7542,6.7742,6.7697,6.6283,6.4686,6.301,6.0436,5.781,5.5159,5.409,5.3092,5.2121,4.6205,4.1099,3.6858,0.0,0.0,0.0,0.0,0.0,0.0,0.0,0.0,0.0,0.0,0.0,0.0,0.0,0.0,0.0,0.0,0.0,0.0,0.0,0.0,0.0,0.0,6.3836,5.621,5.787,6.2859,7.0969,7.4119,7.4711,7.2409,7.1078,7.2182,7.6653,8.2143,8.6183,8.8326,8.8123,8.8245,8.8924,8.8846,8.8684,8.8583,9.1036,9.0397,8.661,8.8196,8.8635,8.8106,8.8765,8.843,8.7274,8.68,8.5801,8.4298,8.2534,8.0724,7.8964,7.7689,7.6955,7.6593,7.6858,7.7416,7.7875,7.6471,7.5866,7.5471,7.3839,7.2869,7.1977,7.0197,6.8655,6.7218,6.5866,6.4193,6.2777,6.2806,6.2863,6.2946,6.3128,6.3471,6.3842,6.4143,6.3146,6.2212,6.2284,6.191,6.1286,6.0417,6.1491,6.2726,6.3625,0.0,0.0,6.5543,6.6352,6.669,6.6509,6.7715,6.8296,6.7814,6.6227,0.0,0.0,6.0448,5.8085,5.6098,5.5045,5.3746,5.2049,4.7349,4.2826,0.0,0.0,0.0,0.0,0.0,0.0,0.0,0.0,0.0,0.0,0.0,0.0,0.0,0.0,0.0,0.0,0.0,0.0,0.0,0.0,0.0,0.0,6.8721,7.0233,6.5141,6.6453,7.0135,7.6048,7.7501,7.7961,7.7775,7.6605,7.6824,7.905,8.3982,8.7692,8.9612,9.0598,9.1015,9.0836,9.1041,9.1471,9.2016,9.2742,9.1729,8.91,9.0382,9.0461,8.9484,9.0146,8.962,0.0,8.8012,8.7098,8.5598,8.4132,8.283,0.0,0.0,0.0,0.0,0.0,0.0,7.9336,7.8256,7.7648,7.7195,7.6077,7.5011,7.3945,7.2612,7.1038,6.9464,6.8301,6.6404,6.4747,6.4717,6.4488,6.4298,6.4537,6.4955,6.5374,6.5698,6.481,6.3982,6.4028,0.0,0.0,6.3872,6.406,6.445,6.5154,6.5031,0.0,0.0,6.6723,6.6998,6.6614,6.7901,6.851,6.7814,0.0,0.0,0.0,0.0,5.6797,5.4228,0.0,0.0,0.0,0.0,0.0,0.0,0.0,0.0,0.0,3.7444,3.7378,0.0,0.0,0.0,0.0,0.0,0.0,0.0,0.0,0.0,0.0,0.0,0.0,0.0,0.0,0.0,0.0,7.3766,7.6358,7.4828,7.4266,7.4767,7.6863,8.0115,8.1403,7.9286,7.9287,8.0225,8.2148,8.7031,9.0195,0.0,0.0,0.0,0.0,0.0,9.4262,9.5601,9.4349,9.3327,9.2479,9.2419,9.1832,9.0911,9.191,9.1052,8.8832,8.9494,8.8442,8.6274,8.5944,8.5322,8.413,8.0456,7.7909,7.6443,7.8233,7.9197,0.0,0.0,0.0,0.0,7.817,7.6586,7.4622,7.4131,7.2341,7.0382,6.997,6.8033,6.6068,6.5979,6.5299,6.4719,6.5057,6.571,6.636,6.6685,6.6096,6.5514,6.5503,6.5503,6.5769,6.651,6.5527,6.4918,6.5851,6.5623,0.0,6.6328,6.6969,6.732,6.7269,0.0,0.0,6.7891,6.6144,6.3767,6.0789,5.8019,5.4961,5.16,5.0713,5.0207,4.999,5.0721,5.0735,4.9885,5.0031,5.0245,5.0326,4.3208,4.317,0.0,0.0,0.0,0.0,0.0,0.0,0.0,0.0,0.0,0.0,0.0,0.0,0.0,0.0,0.0,7.2393,7.575,7.8193,7.8332,7.9406,8.034,8.0806,8.2066,8.2497,8.1548,8.2093,8.2456,8.2304,8.6679,9.0195,9.2148,9.3536,0.0,9.4504,9.4259,9.4224,9.4445,9.3337,9.2663,9.2405,0.0,0.0,9.208,9.2126,9.1564,9.0501,8.994,8.9084,8.7868,8.5726,8.4022,8.2762,8.3382,8.1699,7.9215,8.163,8.1711,8.063,8.0557,8.0464,8.0134,7.8624,7.778,7.7157,7.5555,7.4594,0.0,7.2931,7.1238,6.9651,0.0,6.8418,6.742,6.7716,6.7888,6.7922,6.7627,6.6944,6.6174,6.5553,6.5472,6.5566,6.5706,6.6603,6.7784,6.9292,6.8562,6.8197,6.9104,6.8613,6.818,6.8318,6.8613,6.8781,6.8746,6.5911,6.3651,6.2483,5.8691,5.5829,5.4298,5.4629,5.4442,5.361,5.3726,5.3051,5.1601,5.2348,5.3436,5.4793,5.1358,5.0498,0.0,0.0,0.0,0.0,0.0,0.0,0.0,0.0,0.0,0.0,0.0,3.7381,0.0,0.0,7.8792,7.6493,7.8922,8.1018,8.0753,8.2509,8.3523,8.2592,8.366,8.4138,8.3429,8.4161,8.4746,8.4839,8.7382,8.9843,9.1822,9.3751,9.4676,9.446,9.4616,9.4676,9.4588,9.3213,9.2685,9.3029,9.2518,9.2308,9.2391,9.2293,9.2043,9.1592,9.0291,8.9473,8.8905,8.6351,8.4834,8.4245,8.5143,8.3659,8.1222,8.2924,8.2983,8.2257,8.2669,8.2288,8.1438,8.0514,7.9588,7.862,7.7181,7.6319,7.5619,7.4513,7.2596,7.0815,7.0609,6.9681,6.8894,6.909,6.9517,6.9748,6.9173,6.8461,6.7669,6.6857,6.6381,6.6243,6.6672,6.7794,6.8777,6.9124,6.9261,6.9301,6.9253,6.9128,6.9066,6.9117,6.9648,6.9902,6.961,6.612,6.3441,6.2336,5.9373,5.7289,5.6278,5.6955,5.7056,5.6503,5.6927,5.6773,5.5943,5.6884,5.7804,5.8684,5.8362,5.8234,0.0,0.0,0.0,0.0,0.0,0.0,0.0,0.0,4.8157,5.7226,5.045,4.6872,5.9853,7.2764,8.0881,7.9159,8.139,8.3229,8.2824,8.4527,8.5329,8.4009,8.5155,8.5715,8.4903,8.5531,8.6293,8.7049,8.8084,8.9448,9.1201,9.3615,9.4708,9.4161,9.4591,9.4942,9.5098,9.3378,9.288,9.3699,9.2808,9.2391,9.2391,9.2391,9.2362,9.216,9.0447,8.9395,8.8788,8.6791,8.5847,8.5605,8.5786,8.439,8.2441,8.3627,8.3738,8.3426,8.4441,8.3933,8.2762,8.2606,8.1563,8.0115,7.8804,7.7828,7.6884,7.5392,7.3316,7.1454,7.1084,7.0448,6.9926,7.0049,7.0728,7.1125,7.0421,6.9702,6.8916,6.8121,6.7403,6.7102,6.7638,6.8749,6.9301,6.854,6.9433,6.992,6.9085,6.9502,6.9809,6.959,7.0387,7.0535,6.9556,6.6407,6.367,6.1726,6.039,5.915,5.804,5.8878,5.93,5.9147,6.0055,6.0538,6.0538,6.1503,6.2078,6.2305,6.3906,6.4481,4.0493,3.7995,0.0,4.6519,5.2414,5.6348,0.0,0.0,6.2891,6.7107,6.7904,6.9053,7.2853,7.6613,7.9159,7.9471,8.1,8.2946,8.5151,8.5672,8.5969,8.6514,8.6749,8.6573,8.5749,8.5804,8.5983,8.6119,8.7727,8.9448,9.1201,9.3068,9.4317,9.4942,9.4317,9.4317,9.5098,9.3378,9.288,9.3699,9.2808,9.2391,9.2391,9.2391,9.2347,9.2109,9.0436,8.8373,8.621,8.6089,8.5127,8.3865,8.4629,8.3861,8.2573,8.4948,8.4362,8.2645,8.4245,8.4675,8.4401,8.3621,8.3241,8.2621,8.0154,7.9182,7.8396,7.5935,7.4397,7.3273,7.2379,7.1569,7.1047,7.1115,7.1214,7.1123,7.0464,6.9639,6.8793,6.8047,6.7825,6.7576,6.6946,6.8855,7.0392,7.0253,7.064,7.0899,7.072,7.064,7.0335,6.964,6.9797,6.9121,6.7082,6.65,6.4908,6.188,6.2097,6.1582,5.9902,6.1281,6.2004,6.1891,6.2741,6.3166,6.3166,6.4135,6.5023,6.5834,6.6894,6.6594,4.7525,0.0,0.0,0.0,5.6317,6.0725,6.2257,6.3701,6.6483,7.2612,7.5254,7.6848,7.8143,8.0211,8.1577,0.0,8.2908,8.4688,8.575,8.6288,8.6471,8.6316,8.6729,8.6865,8.6532,8.6538,8.665,8.6753,8.7948,8.9244,9.0492,9.2209,9.3302,9.3615,9.3732,9.3732,9.3576,9.2841,9.2666,9.2997,9.26,9.2405,9.2391,9.2391,9.1802,9.0669,8.9428,8.7716,8.5782,8.5402,8.4834,8.4239,8.4115,8.3621,8.3191,8.4753,8.4675,8.3933,8.5143,8.5566,8.5512,8.5129,8.4629,8.3888,8.2289,8.1338,8.037,7.8163,7.6536,7.521,7.4185,7.338,7.2827,7.2822,7.2499,7.2095,7.1785,7.0693,6.9671,6.9448,6.8981,6.8394,6.7598,6.9206,7.0403,6.985,7.0502,7.1092,7.099,7.0738,7.0516,7.0371,7.0516,7.0264,6.9472,6.8458,6.7175,6.5533,6.5219,6.4481,6.3162,6.4682,6.5467,6.5353,6.6183,6.6608,6.6608,6.7095,6.7265,6.7154,6.8194,6.8317,5.1062,0.0,0.0,5.5404,5.9947,6.4789,6.7487,6.8072,6.9918,7.6477,7.8429,7.9326,8.042,8.2179,0.0,8.2981,8.4841,8.6312,8.6285,8.6748,8.6716,8.561,8.5736,8.6049,8.6262,8.6778,8.7142,8.7253,8.8156,8.8954,8.9594,9.1272,9.2248,9.2248,9.3029,9.3146,9.2522,9.2507,9.252,9.249,9.2417,9.238,9.2391,9.2129,9.1163,8.9657,8.871,8.7211,8.5393,8.4922,8.4473,8.4035,8.3412,8.3152,8.323,8.3894,8.4239,8.459,8.5722,8.6098,8.612,8.6354,8.5976,8.5192,8.41,8.3104,8.189,7.9554,7.7795,7.64,7.5175,7.448,7.4034,7.3992,7.3549,7.3141,7.3103,7.1995,7.0953,7.0848,7.033,6.955,6.8533,6.979,7.0637,6.9706,7.0481,7.1115,7.1038,7.0546,7.0256,7.0525,7.0452,7.0512,7.0738,6.961,6.8559,6.7725,6.7051,6.618,6.5038,6.6508,6.7304,6.7173,6.8236,6.8798,6.8839,6.9166,6.9162,6.8816,6.9872,7.0523,0.0,0.0,5.3928,5.8964,6.3506,6.831,7.4218,7.554,7.6242,7.9053,7.8311,7.796,8.0498,8.1687,8.2803,8.4451,8.61,8.7183,8.7259,8.7234,8.6553,8.4832,8.3865,8.3619,0.0,8.6065,8.7121,8.7209,8.8062,8.8657,8.8735,9.0374,9.135,9.135,9.2131,9.2522,9.2482,9.2507,9.252,9.249,9.2417,9.238,9.2391,9.1459,9.0552,8.9657,8.871,8.6843,8.4576,8.465,8.3732,8.2279,8.2319,8.2332,8.2332,8.2371,8.2866,8.3787,8.5504,8.6072,8.6132,8.699,8.7242,8.6908,8.5192,8.4013,8.2557,7.9088,7.7486,7.6388,7.4667,7.42,7.4183,7.4109,7.4091,7.4052,7.4052,7.3353,7.2496,7.1807,7.164,7.1122,6.9546,7.0648,7.1455,7.0602,7.0943,7.1257,7.1108,7.0074,6.9413,6.964,6.8898,6.8525,6.8839,6.8876,6.8263,6.675,6.6692,6.5932,6.4228,6.5686,6.6477,6.6341,6.7947,6.882,6.889,6.9827,7.0714,7.1587,7.2617,7.3534,0.0,0.0,6.0734,6.5925,7.092,7.5521,7.929,8.0141,8.0514,8.1987,8.1356,8.0459,8.0185,8.1311,8.2429,8.299,8.5437,8.7468,8.8001,8.8545,8.7814,8.4957,8.5244,0.0,0.0,0.0,0.0,8.7011,8.6969,8.7425,8.8618,8.9789,9.0687,9.1272,9.2092,9.2482,9.2482,9.2514,9.2498,9.249,9.2432,9.208,9.1451,9.0547,8.964,8.871,8.7817,8.6319,8.4521,8.4596,8.3648,8.2192,8.2226,8.2241,8.2293,8.2293,8.2436,8.289,8.4646,8.5556,8.615,8.6997,8.6908,8.6325,8.5741,8.4507,8.2946,8.1219,7.9671,7.8264,7.7088,7.6349,7.5905,7.5817,7.5372,7.4945,7.4945,7.4285,7.3622,7.344,7.343,7.3068,7.2,7.2752,7.3367,7.2841,7.1843,7.1038,7.0681,7.0302,7.0149,7.0315,7.014,7.0144,7.0504,7.0078,6.9352,6.831,6.7824,6.7025,6.5826,6.7321,6.8108,6.7968,7.0273,7.1493,7.1508,7.2516,7.2874,7.2651,7.3056,7.3119,0.0,6.1183,6.5691,7.1542,7.5958,7.9711,8.2968,8.3432,8.3218,8.3158,8.1708,7.999,7.8585,7.8461,7.9268,8.1382,8.4083,8.6506,8.8287,8.8676,8.7634,8.4489,8.4793,0.0,0.0,0.0,0.0,8.649,8.6221,8.6639,8.8149,8.904,8.9899,9.0804,9.1624,9.2209,9.2482,9.2482,9.2342,9.2022,9.1951,9.1442,9.0501,8.9635,8.8901,8.8263,8.739,8.6068,8.4504,8.4552,8.365,8.2172,8.2171,8.2234,8.2287,8.2293,8.2241,8.2382,8.3857,8.4844,8.5699,8.6545,8.6455,8.6001,8.6001,8.4741,8.3169,8.2337,8.0791,7.9243,7.8326,7.7454,7.6777,7.6747,7.6244,7.5856,7.5856,7.5429,7.4977,7.4817,7.4753,7.4431,7.3286,7.357,7.3821,7.351,7.2672,7.1877,7.1459,7.1363,7.1389,7.166,7.1727,7.1749,7.1772,7.159,7.0943,6.9589,6.9092,6.8319,6.7165,6.8358,6.901,6.8894,7.149,7.2824,7.292,7.3899,7.4138,7.3618,7.3715,7.3465,6.0622,6.448,6.8873,7.5579,7.8623,8.1054,8.5234,8.5543,8.4398,8.2539,7.9287,7.6438,0.0,0.0,7.3665,7.9565,8.2182,8.4674,8.8155,8.7936,8.6441,0.0,0.0,0.0,0.0,0.0,0.0,8.5696,0.0,8.6299,8.7315,8.8166,8.9025,8.9899,9.0765,9.1585,9.2365,9.2404,9.203,9.1203,9.1132,9.0585,8.9606,8.8779,8.8356,8.8186,8.7312,8.601,8.4492,8.4498,8.3584,8.2116,8.2162,8.2187,8.2226,8.2287,8.2241,8.2304,8.3137,8.4005,8.4841,8.5702,8.6001,8.6001,8.5962,8.4754,8.3234,8.2337,8.0896,7.935,7.8419,7.7532,7.6816,7.6726,7.6687,7.6687,7.6687,7.6687,7.651,7.5789,7.5609,7.5093,7.352,7.3181,7.3068,7.2851,7.3431,7.3698,7.3253,7.2974,7.2936,7.3342,7.3313,7.3063,7.2431,7.3319,7.2831,7.0377,7.0356,6.9738,6.8054,6.8738,6.9162,6.9172,7.1598,7.2998,7.3222,7.4119,7.4587,7.4715,7.4687,7.4687,6.492,6.9762,7.4351,7.811,8.1305,8.4057,8.5781,8.5546,8.4059,8.0983,7.5936,7.1245,0.0,0.0,0.0,7.4546,8.0329,0.0,8.9015,8.9858,0.0,0.0,0.0,8.4993,8.2999,8.3369,0.0,0.0,8.5253,8.5598,8.7181,8.8092,8.8704,8.8947,8.986,9.0413,9.0648,9.1241,9.1408,9.1203,9.1132,9.0298,8.8788,8.8507,8.8006,8.7291,8.6418,8.5447,8.4453,8.3809,8.2995,8.2116,8.2123,8.2153,8.2226,8.2287,8.2287,8.228,8.246,8.3527,8.4912,8.5738,8.5999,8.5882,8.5234,8.4286,8.3234,8.2325,8.1312,8.0247,7.9321,7.8435,7.7603,7.686,7.6687,7.6687,7.6687,7.6687,7.6665,7.6606,7.6079,7.5534,7.5129,7.4505,7.4158,7.4519,7.4689,7.4393,7.3368,7.3041,7.3046,7.3231,7.3292,7.3034,7.2379,7.3296,7.2831,7.0377,7.094,7.0317,6.8027,6.9358,7.0119,7.0081,7.2653,7.435,7.5026,7.595,7.6432,7.6433,7.5858,7.5586,6.95,7.3703,7.7433,8.0119,8.226,8.3734,8.3905,8.3554,8.1562,7.5806,7.1495,0.0,0.0,0.0,0.0,0.0,0.0,0.0,8.9157,8.9897,8.9246,0.0,8.6739,0.0,8.331,8.3874,8.4786,0.0,8.536,8.5711,8.7131,8.7738,8.8218,8.8587,8.9103,8.9587,8.9984,9.0413,9.0423,9.0071,9.0002,8.9246,8.7931,8.79,8.7361,8.6471,0.0,8.5057,8.3909,8.3403,8.2754,8.2065,8.2077,8.2133,8.2218,8.2234,8.2287,8.2293,8.2241,8.3366,8.4872,8.5341,8.571,8.5855,8.4974,8.4104,8.3234,8.2338,8.1441,8.0504,7.9633,7.8715,7.7771,7.692,7.6687,7.6687,7.6687,7.6687,7.6743,7.6879,7.6248,7.5596,7.5207,7.4739,7.4314,7.4131,7.4361,7.4224,7.333,7.3724,7.415,7.428,7.4367,7.4139,7.347,7.4369,7.3911,7.1452,7.1847,7.1214,6.9097,6.9972,7.0697,7.1069,7.3269,7.484,7.5733,7.6659,7.6922,7.6551,7.6093,7.5898,7.3727,7.6508,7.9037,8.1382,8.1961,8.1798,8.1131,8.039,7.7539,6.9411,0.0,0.0,5.7035,0.0,6.3982,6.938,0.0,8.283,8.8923,8.904,8.8233,8.755,8.6544,8.5343,8.3776,8.4185,8.4923,8.5816,8.5832,8.6226,8.7156,8.7234,8.7632,8.8431,8.8431,8.8869,8.9828,8.9749,8.933,8.8589,8.8533,8.8052,8.7191,8.7191,8.6709,8.5805,0.0,0.0,8.317,8.3092,8.2604,8.1991,8.2065,8.214,8.2182,8.2218,8.2234,8.2287,8.2293,8.3308,8.4668,8.4746,8.5419,8.5983,8.4997,8.4155,8.3363,8.2377,8.1452,8.0598,7.9812,7.8915,7.8049,7.7114,7.6881,7.6842,7.6726,7.6687,7.676,7.6879,7.6248,7.548,7.47,7.4466,7.4055,7.3043,7.3549,7.3906,7.3466,7.451,7.5288,7.5354,7.5472,7.5274,7.4483,7.5491,7.5098,7.2696,7.2811,7.2181,7.0466,7.0648,7.1146,7.1876,7.3553,7.4866,7.5813,7.6672,7.6805,7.6238,7.6211,7.6288,7.5733,7.8085,8.0053,8.0602,8.0735,8.0821,8.0964,7.7145,0.0,0.0,0.0,5.5404,5.278,5.5801,0.0,6.7391,0.0,0.0,0.0,0.0,8.8676,0.0,0.0,0.0,0.0,0.0,0.0,0.0,0.0,0.0,8.7066,8.7181,8.7337,8.7612,8.7612,8.801,8.893,8.8852,8.8745,8.8589,8.8533,8.8027,8.7195,8.7206,8.6724,8.5852,0.0,0.0,8.3131,8.2435,8.2046,8.1904,8.1983,8.2052,8.2128,8.2162,8.2226,8.2234,8.2287,8.2918,8.3855,8.4568,8.5886,8.6853,8.5203,8.4607,8.4128,8.2545,8.1974,8.165,8.0766,8.0372,7.982,7.8232,7.7809,7.758,7.6881,7.6777,7.6879,7.6894,7.6248,7.5635,7.5519,7.4895,7.4314,7.3978,7.4518,7.4879,7.4564,7.4004,7.3597,7.3466,7.3684,7.3476,7.2629,7.4192,7.4208,7.1862,7.3048,7.2831,7.0504,7.1268,7.1784,7.1903,7.3615,7.4909,7.5813,7.6672,7.7391,7.7959,7.7959,7.8362,7.8163,8.0215,8.2061,8.2155,8.0427,7.8058,7.5551,0.0,0.0,0.0,0.0,5.0539,4.7874,0.0,0.0,0.0,0.0,0.0,0.0,0.0,0.0,0.0,0.0,0.0,0.0,0.0,0.0,0.0,0.0,0.0,8.6938,8.7152,8.7234,8.7281,8.7341,8.7564,8.7963,8.7926,8.7905,8.7905,8.7858,8.7598,8.7209,8.7195,8.6519,8.5272,0.0,0.0,0.0,8.3212,8.3193,8.3209,8.2792,8.2698,8.2727,8.2307,8.2153,8.2187,8.2234,8.2794,8.366,8.4505,8.5668,8.655,8.5653,8.5047,8.444,8.313,8.2376,8.1633,8.0387,8.0325,8.0141,7.847,7.8025,7.7775,7.6881,7.6793,7.6894,7.6894,7.6599,7.622,7.5791,7.5363,7.4859,7.4281,7.4381,7.4436,7.4218,7.3601,7.336,7.3691,7.3852,7.3658,7.286,7.4102,7.4316,7.2827,7.3596,7.3392,7.1776,7.1869,7.214,7.2588,7.4296,7.5618,7.6477,7.7804,7.8679,7.9092,7.9551,7.9984,8.0786,8.2551,8.396,8.3831,8.024,7.5452,7.0525,6.5732,0.0,0.0,0.0,4.6562,0.0,0.0,0.0,0.0,0.0,0.0,0.0,0.0,0.0,0.0,0.0,0.0,0.0,0.0,0.0,0.0,0.0,0.0,0.0,8.702,8.7117,8.6936,8.7142,8.7214,8.7029,8.7192,8.7376,8.7559,8.7495,8.7559,8.7741,8.7754,8.6936,8.5533,0.0,0.0,0.0,8.428,8.4456,8.4396,8.352,8.3275,8.3272,8.2403,8.2112,8.2171,8.2218,8.2663,8.338,8.4473,8.5403,8.6051,8.5838,8.5263,8.449,8.3415,8.2518,8.1547,8.01,8.0098,8.0087,7.8629,7.828,7.8046,7.7192,7.7065,7.7166,7.7166,7.7222,7.7077,7.6376,7.6259,7.5845,7.4714,7.4476,7.4341,7.4007,7.3822,7.3897,7.4369,7.4127,7.3722,7.3168,7.4037,7.4345,7.3651,7.3911,7.3798,7.3208,7.2526,7.2564,7.3465,7.5204,7.6438,7.7101,7.8858,7.989,8.0264,8.0769,8.12,8.3522,8.4962,8.501,8.4026,7.9627,7.4492,7.0336,0.0,0.0,0.0,4.5735,4.2421,4.4489,0.0,0.0,0.0,0.0,0.0,0.0,0.0,0.0,0.0,0.0,0.0,0.0,0.0,0.0,0.0,0.0,0.0,0.0,8.6683,8.6787,8.604,8.678,8.6857,8.6132,8.688,8.7676,8.8378,8.8378,8.8754,8.945,8.9533,8.904,8.8105,0.0,0.0,0.0,8.4782,8.4456,8.434,8.3502,8.3209,8.3126,8.2376,8.2116,8.2128,8.2182,8.2249,8.2577,8.4255,8.5403,8.5956,8.5153,8.4863,8.4444,8.2708,8.2167,8.1858,8.0935,8.0659,8.0403,7.9424,7.9173,7.894,7.8085,7.7921,7.7983,7.7983,7.8079,7.8168,7.809,7.8051,7.7506,7.5819,7.5983,7.5992,7.5136,7.5281,7.5232,7.458,7.3085,7.2149,7.2217,7.3189,7.3495,7.2761,7.3535,7.4013,7.4071,7.3397,7.3426,7.4373,7.6079,7.7023,7.7101,7.8858,8.0514,8.2021,8.1325,8.1847,8.282,8.5214,8.6125,8.5035,7.896,7.2002,6.7329,0.0,5.1523,4.651,4.2366,4.0384,4.2969,4.4405,0.0,0.0,0.0,0.0,0.0,0.0,0.0,0.0,0.0,0.0,0.0,0.0,0.0,0.0,0.0,0.0,0.0,8.5814,8.6177,8.5852,8.6738,8.6806,8.5999,8.6832,8.739,8.7712,8.8204,8.8344,8.8243,8.927,8.9012,0.0,0.0,0.0,0.0,8.6199,8.599,8.5816,8.4456,8.395,8.3831,8.2513,8.2065,8.2116,8.2112,8.2182,8.2405,8.3631,8.4615,8.5434,8.6129,8.5955,8.539,8.4657,8.4077,8.3455,8.2543,8.1859,8.1208,8.0318,8.0067,7.9834,7.8979,7.8426,7.8256,7.8761,7.8546,7.8441,7.8948,7.9026,7.8792,7.809,7.8004,7.7891,7.7542,7.7406,7.7176,7.6804,7.4675,7.3399,7.364,7.4533,7.5246,7.5662,7.6034,7.6087,7.5727,7.4989,7.4585,7.4488,7.6743,7.7882,7.7882,8.0693,8.2115,8.2334,8.3514,8.3882,8.0877,8.4164,8.6049,8.5321,7.8988,7.1419,0.0,0.0,4.9374,4.3587,4.0176,3.893,4.1249,4.2341,4.424,0.0,0.0,0.0,0.0,0.0,0.0,0.0,0.0,0.0,0.0,0.0,0.0,0.0,0.0,0.0,0.0,0.0,8.5132,8.5416,8.6304,8.6295,8.5221,8.6544,8.7176,8.7176,8.8001,8.8218,8.7939,8.9162,8.9075,0.0,0.0,0.0,0.0,8.7189,8.6882,8.6514,8.4981,8.4281,8.3969,8.2776,8.2216,8.2117,8.2389,8.2346,8.2299,8.3176,8.3896,8.4724,8.648,8.6541,8.5937,8.5721,8.4974,8.409,8.3135,8.2392,8.1698,8.0805,8.0805,8.0805,8.0183,7.9632,7.9501,8.0396,7.9948,7.961,8.0156,8.0078,7.9805,7.9532,7.9226,7.8959,7.8667,7.8282,7.8007,7.7916,7.6174,7.5102,7.5349,7.5985,7.6822,7.791,7.7852,7.7793,7.7809,7.6606,7.5863,7.5613,7.7688,7.8791,7.878,8.202,8.3404,8.3115,8.492,8.5092,7.7982,8.1755,8.4437,8.4513,8.0061,7.3648,0.0,5.6875,4.8664,4.3476,3.9678,3.7834,3.9606,4.0586,4.2265,4.5772,0.0,0.0,0.0,0.0,0.0,0.0,0.0,0.0,0.0,0.0,0.0,0.0,0.0,0.0,0.0,0.0,8.3541,8.4482,8.5377,8.5073,8.3429,8.5921,8.716,8.7128,8.7984,8.8823,8.9585,8.9652,0.0,0.0,0.0,0.0,0.0,8.7495,8.6605,8.5736,8.4786,8.3874,8.3116,8.3152,8.2698,8.2108,8.301,8.2754,8.2229,8.3126,8.344,8.3826,8.5582,8.6072,8.582,8.5039,8.4091,8.312,8.2225,8.1964,8.1698,8.0805,8.1271,8.1892,8.1854,8.1926,8.2225,8.3081,8.2596,8.2065,8.2065,8.1364,8.0506,7.9649,7.9259,7.8806,7.7912,7.7447,7.7147,7.7035,7.6935,7.6897,7.6963,7.7116,7.7612,7.8629,7.8065,7.8524,8.0359,7.81,7.7256,7.8227,7.9218,7.9672,7.9678,8.2332,8.4028,8.4873,8.4881,8.4858,7.0214,7.3762,7.6167,7.5111,7.2157,6.763,6.0564,5.3883,4.7603,4.1875,3.8428,3.6936,3.8708,3.9219,4.1284,4.7016,0.0,0.0,0.0,0.0,0.0,0.0,0.0,0.0,0.0,0.0,0.0,0.0,0.0,0.0,0.0,0.0,8.3559,8.4482,8.5338,8.5307,8.4286,8.6179,8.7105,8.7128,8.7952,8.8478,8.873,0.0,0.0,0.0,0.0,0.0,0.0,8.688,8.6093,8.5672,8.4181,8.3367,8.3116,8.3191,8.2698,8.2186,8.3641,8.3233,8.2233,8.313,8.3828,8.4444,8.5028,8.5613,8.6111,8.6423,8.6235,8.5642,8.4147,8.3749,8.329,8.1815,8.1698,8.1892,8.1892,8.1908,8.2193,8.312,8.2621,8.2234,8.2883,8.226,8.1597,8.1325,8.1096,8.0825,8.0433,8.0164,7.9933,7.9697,7.9604,7.934,7.876,7.8884,7.9644,8.1214,8.0654,8.0593,8.1271,7.9509,7.8441,7.8316,7.8631,7.9086,7.9717,8.2332,8.4628,8.6601,8.5995,8.636,0.0,6.8646,7.1106,7.0516,6.8239,6.4414,5.7926,5.222,4.669,4.1013,3.7808,3.6426,3.7842,3.8397,4.0072,4.4616,0.0,0.0,0.0,0.0,0.0,0.0,0.0,0.0,0.0,0.0,0.0,0.0,0.0,0.0,0.0,0.0,8.3442,8.4015,8.4576,8.466,8.4208,8.5813,8.6622,8.6622,8.7117,8.7506,8.7817,0.0,0.0,0.0,0.0,0.0,0.0,8.5998,8.519,8.4731,8.3632,8.3152,8.3173,8.3523,8.3343,8.3081,8.4132,8.3647,8.2611,8.2844,8.3726,8.4696,8.4785,8.5613,8.6648,8.7153,8.7248,8.6864,8.5432,8.5032,8.4531,8.2766,8.2359,8.2359,8.2359,8.2629,8.307,8.3632,8.3603,8.3453,8.3364,8.2922,8.2494,8.2143,8.1983,8.1696,8.117,8.0972,8.0779,8.0459,8.04,8.0251,7.9953,8.0152,8.0885,8.2323,8.1864,8.1538,8.1677,8.0137,7.9001,7.83,7.8702,7.9327,8.0185,8.3152,8.5534,8.7375,8.7191,8.7642,0.0,6.4947,6.7772,6.8485,6.6407,6.2651,5.6796,5.1193,0.0,4.0681,3.7695,3.6309,0.0,0.0,0.0,0.0,0.0,0.0,0.0,0.0,0.0,0.0,0.0,0.0,0.0,0.0,0.0,0.0,0.0,0.0,0.0,0.0,0.0,8.3198,8.3205,8.3286,8.339,8.4996,8.5805,8.5805,8.5718,8.6166,8.6982,0.0,0.0,0.0,0.0,0.0,0.0,8.4855,8.4037,8.3297,8.3165,8.3092,8.3209,8.4087,8.4396,8.4443,8.4637,8.4139,8.3351,8.2533,8.3337,8.4657,8.4824,8.6033,8.7292,8.7309,8.7261,8.6996,8.6055,8.581,8.5347,8.3621,8.3136,8.3097,8.3097,8.3795,8.4414,8.4414,8.5104,8.519,8.357,8.3364,8.3117,8.2299,8.2192,8.177,8.0725,8.0477,8.028,7.9915,7.9889,8.0093,8.0688,8.0893,8.1362,8.2247,8.181,8.1577,8.1794,8.0237,7.9091,7.8477,7.9352,8.0233,8.1206,8.4492,8.6591,8.7529,8.8246,8.8657,4.8861,0.0,5.4713,5.298,5.3014,5.2251,0.0,0.0,0.0,0.0,0.0,0.0,0.0,0.0,0.0,0.0,0.0,0.0,0.0,0.0,0.0,0.0,0.0,0.0,0.0,0.0,0.0,0.0,0.0,0.0,0.0,0.0,0.0,8.2342,8.2294,8.2649,8.339,8.4996,8.5805,8.5805,8.5718,8.6166,8.6943,0.0,0.0,0.0,0.0,0.0,0.0,8.4026,8.352,8.3219,8.2536,8.227,8.2392,8.3854,8.4046,8.3859,8.5771,8.5525,8.4364,8.4169,8.3921,8.3944,8.5331,8.6473,8.7302,8.7292,8.7309,8.7066,8.607,8.5805,8.5499,8.4359,8.3602,8.3097,8.3097,8.3271,8.3445,8.352,8.3693,8.3726,8.3369,8.3291,8.3243,8.3038,8.357,8.3787,8.3286,8.2638,8.2147,8.1739,8.1612,8.1694,8.1781,8.1272,8.1337,8.2247,8.1697,8.1723,8.266,8.1152,8.0284,8.0218,8.0523,8.1444,8.2992,8.4487,8.6288,8.8397,8.7899,8.8422,4.3096,4.6722,5.0062,4.9073,4.9005,4.8386,0.0,0.0,0.0,0.0,0.0,0.0,0.0,0.0,0.0,0.0,0.0,0.0,0.0,0.0,0.0,0.0,0.0,0.0,0.0,0.0,0.0,0.0,0.0,0.0,0.0,0.0,0.0,0.0,8.1983,8.2454,8.339,8.4232,8.4848,8.5182,8.4764,8.4981,8.5738,0.0,0.0,0.0,0.0,0.0,8.336,8.2532,8.2429,8.2701,8.2201,8.2209,8.2682,8.3932,8.4435,8.4643,8.5966,8.5681,8.4715,8.4715,8.4377,8.4155,8.5114,8.6022,8.6774,8.7203,8.7309,8.7169,8.6607,8.6405,8.6177,8.5251,8.4359,8.3602,8.3174,8.3408,8.3563,8.3212,8.4124,8.457,8.3437,8.3571,8.3587,8.28,8.3789,8.4209,8.3152,8.354,8.3561,8.2579,8.2446,8.2496,8.277,8.2347,8.2336,8.2925,8.2622,8.2625,8.3009,8.1852,8.1104,8.0891,8.1748,8.2851,8.4215,8.5468,8.6797,8.8086,8.8021,8.8501,4.1008,4.507,4.9196,4.9158,4.8319,4.7015,0.0,0.0,0.0,0.0,0.0,0.0,0.0,0.0,0.0,0.0,0.0,0.0,0.0,0.0,0.0,0.0,0.0,0.0,0.0,0.0,0.0,0.0,0.0,0.0,0.0,0.0,0.0,0.0,8.1563,8.2051,8.3,8.3194,8.3618,8.4326,8.3537,8.3541,8.4185,0.0,0.0,0.0,0.0,0.0,8.1563,8.1024,8.126,8.1896,8.1983,8.2458,8.322,8.4067,8.4922,8.5637,8.5922,8.5517,8.491,8.491,8.4793,8.4728,8.4869,8.5426,8.6167,8.7025,8.7298,8.7286,8.7206,8.716,8.6917,8.6143,8.5272,8.4379,8.3485,8.3757,8.4029,8.3408,8.5077,8.599,8.4085,8.4509,8.4621,8.3182,8.4225,8.4543,8.2841,8.4145,8.4599,8.3118,8.2901,8.3022,8.3456,8.3764,8.3945,8.4003,8.3894,8.3591,8.3247,8.2509,8.1945,8.1589,8.2929,8.4101,8.5117,8.6562,8.7383,8.7617,8.8373,8.878,4.3204,4.5565,4.6368,4.2155,4.2085,4.2276,0.0,0.0,0.0,0.0,0.0,0.0,0.0,0.0,0.0,0.0,0.0,0.0,0.0,0.0,0.0,0.0,0.0,0.0,0.0,0.0,0.0,0.0,0.0,0.0,0.0,0.0,0.0,0.0,0.0,8.0209,8.1208,8.2596,8.3345,8.347,8.3304,8.323,8.3252,8.2475,0.0,0.0,0.0,0.0,7.9843,8.0504,8.0896,8.1091,8.1734,8.2069,8.2365,8.3873,8.4533,8.4937,8.646,8.6466,8.5806,8.5806,8.5299,8.4832,8.5585,8.587,8.6167,8.6988,8.7273,8.7286,8.7206,8.716,8.7033,8.6882,8.6127,8.5272,8.4379,8.3718,8.3485,8.4068,8.4534,8.5136,8.6224,8.7157,8.7643,8.7369,8.7543,8.7545,8.7018,8.5862,8.4878,8.4196,8.3708,8.3516,8.3593,8.4868,8.5642,8.5574,8.4395,8.385,8.4159,8.3531,8.3508,8.4284,8.3826,8.4375,8.6015,8.6289,8.7108,8.8505,8.8655,8.911,4.1979,4.3574,4.4338,4.2001,4.349,0.0,0.0,0.0,0.0,0.0,0.0,0.0,0.0,0.0,0.0,0.0,0.0,0.0,0.0,0.0,0.0,0.0,0.0,0.0,0.0,0.0,0.0,0.0,0.0,0.0,0.0,0.0,0.0,0.0,0.0,0.0,7.9968,8.08,8.1423,8.1913,8.2293,8.2219,8.1737,8.1854,8.1426,0.0,0.0,7.9657,7.9437,7.9843,8.0318,8.0883,8.1695,8.2303,8.2909,8.4494,8.5446,8.6022,8.6872,8.6933,8.6663,8.6663,8.6079,8.5494,8.5884,8.6014,8.6065,8.6429,8.6923,8.7286,8.7234,8.7191,8.7144,8.7072,8.6397,8.5621,8.5195,8.4806,8.4612,8.5039,8.5855,8.6593,8.6943,8.772,8.8147,8.7681,8.84,8.8341,8.6568,8.6582,8.6416,8.5395,8.5093,8.4939,8.4939,8.567,8.6094,8.6055,8.5483,8.5127,8.5093,8.4387,8.4025,8.4128,8.3787,8.3984,8.4804,8.5742,8.6484,8.7106,8.7713,8.8708,4.1224,4.2264,0.0,0.0,0.0,0.0,0.0,0.0,0.0,0.0,0.0,0.0,0.0,0.0,0.0,0.0,0.0,0.0,0.0,0.0,0.0,0.0,0.0,0.0,0.0,0.0,0.0,0.0,0.0,0.0,0.0,0.0,0.0,0.0,0.0,0.0,7.8993,7.8831,7.9314,8.038,8.1009,8.0975,8.0339,8.1193,8.1116,8.0261,7.9505,7.9136,7.9053,7.8997,7.9554,8.0528,8.1369,8.2442,8.3749,8.5175,8.6262,8.7072,8.7089,8.7137,8.7195,8.7209,8.678,8.6235,8.604,8.6001,8.6001,8.6001,8.6494,8.7052,8.7183,8.722,8.7176,8.7105,8.6588,8.599,8.5758,8.57,8.5777,8.5972,8.7254,8.8225,8.7973,8.8633,8.8983,8.8322,8.9178,8.9022,8.663,8.7229,8.7389,8.6203,8.6094,8.6094,8.6094,8.6094,8.6094,8.6088,8.6336,8.6275,8.5952,8.5399,8.4763,8.4042,8.4139,8.4219,8.4219,8.5742,8.6211,8.5742,8.6889,8.8344,4.3347,4.3761,0.0,0.0,0.0,0.0,0.0,0.0,0.0,0.0,0.0,0.0,0.0,0.0,0.0,0.0,0.0,0.0,0.0,0.0,0.0,0.0,0.0,0.0,0.0,0.0,0.0,0.0,0.0,0.0,0.0,0.0,0.0,0.0,0.0,0.0,7.8085,7.7311,7.7775,7.9492,7.9554,7.9498,7.9406,8.03,8.0222,7.9406,7.9272,7.8748,7.803,7.8067,7.859,7.9502,8.0353,8.218,8.4418,8.535,8.6243,8.7037,8.7072,8.716,8.7206,8.7195,8.717,8.6975,8.6235,8.6001,8.6001,8.6001,8.604,8.6274,8.7014,8.722,8.7176,8.7105,8.7016,8.669,8.5874,8.57,8.5933,8.6749,8.7642,8.8789,9.0363,9.1335,9.1918,9.1841,9.1257,9.0654,9.0245,8.8159,8.6577,8.6126,8.6094,8.6094,8.6094,8.6094,8.6026,8.5852,8.6315,8.6571,8.652,8.686,8.6553,8.5573,8.5854,8.6015,8.6015,8.6953,8.6836,8.5742,8.6889,8.8344,4.1581,4.2267,0.0,0.0,0.0,0.0,0.0,0.0,0.0,0.0,0.0,0.0,0.0,0.0,0.0,0.0,0.0,0.0,0.0,0.0,0.0,0.0,0.0,0.0,0.0,0.0,0.0,0.0,0.0,0.0,0.0,0.0,0.0,0.0,0.0,0.0,0.0,7.545,7.541,7.6125,7.8297,7.9036,7.8552,7.995,8.0416,8.0067,7.9466,7.902,7.8671,7.8146,7.8457,7.9523,8.2064,8.3619,8.4611,8.5991,8.671,8.7019,8.7072,8.716,8.7191,8.7195,8.7209,8.7053,8.6235,8.6001,8.5884,8.5338,8.5572,8.6196,8.6975,8.7195,8.7167,8.7105,8.7072,8.6959,8.6574,8.6515,8.6593,8.6943,8.8108,8.9255,8.9974,9.1257,9.2191,9.2191,9.1918,9.1353,9.0415,8.941,8.8091,8.628,8.6094,8.6094,8.6094,8.6094,8.6254,8.6532,8.6366,8.6375,8.661,8.6867,8.6904,8.6685,8.5843,8.539,8.539,8.4648,8.4023,8.3633,8.6264,8.893,4.0048,0.0,0.0,0.0,0.0,0.0,0.0,0.0,0.0,0.0,0.0,0.0,0.0,0.0,0.0,0.0,0.0,0.0,0.0,0.0,0.0,0.0,0.0,0.0,0.0,0.0,0.0,0.0,0.0,0.0,0.0,0.0,0.0,0.0,0.0,0.0,0.0,7.4129,7.3762,7.4111,7.6788,7.7757,7.727,7.8707,7.9678,8.0144,7.9466,7.9214,7.9136,7.8261,7.8437,7.9524,8.2456,8.397,8.4592,8.6049,8.6574,8.6612,8.6683,8.6522,8.6358,8.6416,8.639,8.6274,8.5416,8.5377,8.5455,8.4871,8.5338,8.6196,8.6975,8.7209,8.7195,8.7121,8.7144,8.7072,8.7021,8.7001,8.6982,8.6982,8.8167,8.9119,8.9215,9.0672,9.1801,9.1801,9.2073,9.186,9.0896,9.0734,8.9978,8.793,8.7709,8.7286,8.6209,8.6094,8.6285,8.6698,8.6505,8.6461,8.661,8.6839,8.7117,8.7348,8.5725,8.4882,8.4917,8.4257,8.3398,8.2383,8.5834,8.9281,0.0,0.0,0.0,0.0,0.0,0.0,0.0,0.0,0.0,0.0,0.0,0.0,0.0,0.0,0.0,0.0,0.0,0.0,0.0,0.0,0.0,0.0,0.0,0.0,0.0,0.0,0.0,0.0,0.0,0.0,0.0,0.0,0.0,0.0,0.0,0.0,0.0,7.3506,7.3121,7.3976,7.4829,7.5353,7.5521,7.6337,7.7658,7.929,7.9233,7.9214,7.9136,7.8261,7.8357,7.9287,8.1032,8.2781,8.4376,8.5268,8.5621,8.5719,8.5771,8.5221,8.4537,8.4649,8.4715,8.4559,8.3663,8.4013,8.4715,8.4715,8.5338,8.6196,8.6975,8.7209,8.7195,8.7191,8.716,8.7072,8.7019,8.6982,8.6982,8.6982,8.7681,8.8321,8.8412,8.9846,9.1007,9.1007,9.1731,9.2243,9.2228,9.2151,9.1863,9.1241,9.121,8.9825,8.644,8.617,8.6132,8.6094,8.6674,8.6877,8.661,8.698,8.727,8.7407,8.5735,8.4878,8.487,8.6635,8.5742,8.2422,8.5874,8.9242,0.0,0.0,0.0,0.0,0.0,0.0,0.0,0.0,0.0,0.0,0.0,0.0,0.0,0.0,0.0,0.0,0.0,0.0,0.0,0.0,0.0,0.0,0.0,0.0,0.0,0.0,0.0,0.0,0.0,0.0,0.0,0.0,0.0,0.0,0.0,0.0,0.0,0.0,7.1859,7.2171,7.2442,7.3529,7.543,7.6885,7.7836,7.8341,7.8981,7.9253,7.9175,7.8882,7.8878,7.9261,8.101,8.2023,8.2643,8.4078,8.4665,8.4728,8.4786,8.4665,8.4498,8.4582,8.5091,8.5455,8.4559,8.491,8.5494,8.4871,8.5338,8.604,8.6274,8.678,8.7195,8.7121,8.7105,8.7072,8.7021,8.7001,8.6982,8.6982,8.7701,8.8322,8.8395,8.9324,9.0236,9.0641,9.0953,9.1331,9.2034,9.1721,9.1406,9.1245,9.121,9.0787,8.9787,8.971,8.8671,8.6247,8.6022,8.6238,8.6877,8.7021,8.7167,8.7401,8.4563,8.3081,8.3074,8.6049,8.6953,8.6054,8.9427,9.1546,0.0,0.0,0.0,0.0,0.0,0.0,0.0,0.0,0.0,0.0,0.0,0.0,0.0,0.0,0.0,0.0,0.0,0.0,0.0,0.0,0.0,0.0,0.0,0.0,0.0,0.0,0.0,0.0,0.0,0.0,0.0,0.0,0.0,0.0,0.0,0.0,0.0,0.0,0.0,7.1334,7.1683,7.2711,7.4263,7.5702,7.6924,7.7952,7.8496,7.8884,7.9096,7.8416,7.8663,7.9602,7.9935,8.0949,8.2289,8.2909,8.3436,8.3773,8.3854,8.3696,8.3493,8.3555,8.4182,8.4871,8.4325,8.5027,8.5884,8.5377,8.5806,8.6468,8.6468,8.6858,8.7195,8.7137,8.7378,8.7617,8.7545,8.7506,8.7525,8.7525,8.7662,8.7817,8.785,8.8623,8.9379,8.9878,9.075,9.152,9.2014,9.1552,9.121,9.121,9.121,9.121,9.121,9.121,8.9748,8.6324,8.5742,8.656,8.8942,8.7758,8.6519,8.541,8.3352,8.23,8.2293,8.5815,8.75,8.7578,9.095,9.2482,0.0,0.0,0.0,0.0,0.0,0.0,0.0,0.0,0.0,0.0,0.0,0.0,0.0,0.0,0.0,0.0,0.0,0.0,0.0,0.0,0.0,0.0,0.0,0.0,0.0,0.0,0.0,0.0,0.0,0.0,0.0,0.0,0.0,0.0,0.0,0.0,0.0,0.0,0.0,0.0,0.0,7.2607,7.2645,7.3643,7.5467,7.7891,7.7836,7.8282,7.8977,7.7387,7.806,7.9918,7.8332,7.971,8.2545,8.1732,8.205,8.2854,8.2921,8.2455,8.1809,8.1929,8.2571,8.3312,8.339,8.4637,8.6001,8.6001,8.6585,8.7209,8.7209,8.7209,8.7195,8.7191,8.7822,8.8395,8.838,8.8322,8.8302,8.8302,8.7604,8.7019,8.7072,8.7822,8.8476,8.8806,9.0599,9.1981,9.2132,9.161,9.1241,9.121,9.121,9.121,9.121,9.121,8.9863,8.6748,8.6202,8.7829,9.1933,8.8935,8.5921,8.3295,8.3235,8.3237,8.3242,8.6401,8.7969,8.8047,9.1067,9.2678,0.0,0.0,0.0,0.0,0.0,0.0,0.0,0.0,0.0,0.0,0.0,0.0,0.0,0.0,0.0,0.0,0.0,0.0,0.0,0.0,0.0,0.0,0.0,0.0,0.0,0.0,0.0,0.0,0.0,0.0,0.0,0.0,0.0,0.0,0.0,0.0,7.3883,7.3535,0.0,0.0,7.2491,7.2607,7.2645,7.4176,7.5963,7.7788,7.7195,7.7797,7.9016,7.8008,7.8275,7.9176,7.8051,7.8876,8.068,8.0486,8.1039,8.1824,8.1918,8.1444,8.0978,8.1709,8.2124,8.2507,8.3195,8.4637,8.6001,8.6001,8.6585,8.7209,8.7209,8.7209,8.7195,8.7121,8.7789,8.8515,8.8994,8.8667,8.8302,8.8302,8.7623,8.7021,8.7076,8.7267,8.7456,8.7585,8.7988,8.9299,9.1997,9.2092,9.1721,9.1241,9.121,9.121,9.121,9.121,9.0902,9.0171,8.9726,9.0255,9.2049,8.8847,8.8117,9.0339,9.0373,9.039,9.0388,9.1132,9.1484,9.1523,9.22,9.3966,0.0,0.0,0.0,0.0,0.0,0.0,0.0,0.0,0.0,0.0,0.0,0.0,0.0,0.0,0.0,0.0,0.0,0.0,0.0,0.0,0.0,0.0,0.0,0.0,0.0,0.0,0.0,0.0,0.0,0.0,0.0,0.0,0.0,0.0,0.0,0.0,7.4463,7.4077,7.369,7.3226,7.3226,7.3203,7.3172,7.4432,7.5562,7.6521,7.6549,7.7035,7.781,7.7384,7.8176,7.9424,7.7664,7.8271,8.0048,7.9597,7.9778,8.0293,8.0754,8.0739,8.0514,8.0608,8.1547,8.2659,8.2754,8.3974,8.5455,8.5884,8.6312,8.6702,8.7092,8.7209,8.7376,8.8027,8.8611,8.9098,8.9327,8.9465,8.9351,8.8963,8.8497,8.7973,8.7232,8.7128,8.7152,8.7195,8.7209,8.8456,9.1963,9.2315,9.1967,9.1275,9.121,9.121,9.121,9.121,9.121,9.121,9.1029,9.127,9.2088,9.04,8.9604,9.0028,9.089,9.1736,9.2617,9.2617,9.2617,9.2617,9.2512,9.4356,0.0,0.0,0.0,0.0,0.0,0.0,0.0,0.0,0.0,0.0,0.0,0.0,0.0,0.0,0.0,0.0,0.0,0.0,0.0,0.0,0.0,0.0,0.0,0.0,0.0,0.0,0.0,0.0,0.0,0.0,0.0,0.0,0.0,0.0,0.0,7.516,7.5314,7.4657,7.427,7.4115,7.396,7.3814,7.3729,7.4436,7.4794,7.4881,7.5662,7.6072,7.6273,7.645,7.7899,7.9763,7.7253,7.7821,7.9945,7.9015,7.8849,7.9211,8.01,8.0299,8.0101,7.9795,8.1009,8.2458,8.2156,8.3195,8.4637,8.5338,8.5767,8.6157,8.6819,8.7092,8.7556,8.8906,8.9469,8.9721,8.9836,9.0203,9.0379,8.9737,8.9292,8.8633,8.7291,8.7137,8.7209,8.7209,8.7209,8.8222,9.1144,9.1495,9.1471,9.1361,9.1241,9.0979,9.0364,9.0864,9.121,9.121,9.121,9.15,9.2088,9.211,9.1102,8.8959,8.9872,9.1093,9.2617,9.2617,9.2617,9.2617,9.2512,9.4356,0.0,0.0,0.0,0.0,0.0,0.0,0.0,0.0,0.0,0.0,0.0,0.0,0.0,0.0,0.0,0.0,0.0,0.0,0.0,0.0,0.0,0.0,0.0,0.0,0.0,0.0,0.0,0.0,0.0,0.0,0.0,0.0,7.4425,7.5237,7.516,0.0,7.6204,7.6127,7.5701,7.4928,7.4231,7.3814,7.3691,7.3806,7.3858,7.3832,7.4084,7.4641,7.5337,7.6156,7.7573,7.8983,7.6971,7.7742,7.9902,7.896,7.9124,7.9923,8.091,8.0293,7.9347,8.0901,8.0668,8.0092,8.1569,8.274,8.3585,8.3702,8.4832,8.6001,8.6118,8.6675,8.741,8.8317,8.9117,8.9916,9.1076,9.0365,8.9585,8.9964,8.8567,8.7254,8.704,8.7105,8.7209,8.7209,8.7209,8.7365,8.7832,8.7871,8.8928,9.1695,9.1492,9.0017,8.7017,8.9517,9.121,9.121,9.121,9.15,9.2088,9.211,9.3296,9.5804,9.3419,9.2312,9.2617,9.2617,9.2617,9.2617,9.2512,9.4356,0.0,0.0,0.0,0.0,0.0,0.0,0.0,0.0,0.0,0.0,0.0,0.0,0.0,0.0,0.0,0.0,0.0,0.0,0.0,0.0,0.0,0.0,0.0,0.0,0.0,0.0,0.0,0.0,0.0,0.0,0.0,7.5716,7.5469,7.5817,7.5817,0.0,7.6397,7.6397,7.6204,7.5817,7.4966,7.4533,7.4397,7.3407,7.2932,7.2893,7.3498,7.3934,7.4408,7.5267,7.6668,7.8075,7.6764,7.7498,7.9169,7.8276,7.8479,7.9211,7.9682,7.9725,7.9661,8.0035,8.0086,8.0046,8.0419,8.1194,8.2039,8.2533,8.3585,8.4754,8.5701,8.6232,8.6787,8.8045,8.8206,8.855,9.0494,9.0894,9.0935,9.1145,8.896,8.7603,8.9546,8.8302,8.7105,8.7195,8.7209,8.7209,8.7209,8.8923,9.0687,9.2087,9.1921,9.0972,8.9128,9.0325,9.121,9.121,9.121,9.1308,9.1581,9.1936,9.2809,9.4324,9.3078,9.249,9.2521,9.256,9.256,9.2521,9.2496,9.3302,0.0,0.0,0.0,0.0,0.0,0.0,0.0,0.0,0.0,0.0,0.0,0.0,0.0,0.0,0.0,0.0,0.0,0.0,0.0,0.0,0.0,0.0,0.0,0.0,0.0,0.0,0.0,0.0,0.0,0.0,7.7589,7.6814,7.6397,7.6397,7.6397,7.6397,7.6397,7.6397,7.6397,7.6397,7.574,7.5291,7.4949,7.3664,7.2778,7.2353,7.3008,7.342,7.3742,7.4629,7.6005,7.7498,7.6623,7.7293,7.8629,7.7968,7.8219,7.8951,7.9211,7.9604,8.0048,7.9748,8.0041,8.0398,7.9865,8.0357,8.1194,8.165,8.252,8.3728,8.522,8.575,8.6304,8.795,8.774,8.773,8.9695,9.1112,9.2028,9.211,9.0051,8.9118,9.1643,8.9274,8.7058,8.7181,8.7209,8.752,8.8417,9.0794,9.2391,9.2391,9.2228,9.1863,9.1241,9.121,9.121,9.121,9.121,9.121,9.121,9.2626,9.3003,9.211,9.2299,9.2417,9.2482,9.2561,9.299,9.381,9.2912,9.2482,0.0,0.0,0.0,0.0,0.0,0.0,0.0,0.0,0.0,0.0,0.0,0.0,0.0,0.0,0.0,0.0,0.0,0.0,0.0,0.0,0.0,0.0,0.0,0.0,0.0,0.0,0.0,0.0,0.0,0.0,7.7549,7.6789,7.6397,7.6397,7.6397,7.6397,7.6397,7.6397,7.6397,7.6397,7.6359,7.5871,7.4987,7.486,7.3858,7.2315,7.2353,7.2854,7.369,7.4552,7.598,7.7498,7.6572,7.724,7.8679,7.8584,7.9037,7.9862,8.0761,8.0617,8.0161,8.1066,8.0988,8.0514,8.0514,8.1187,8.1812,8.1077,8.2065,8.3545,8.4507,8.5283,8.6233,8.7984,8.8284,8.8416,8.9198,9.0661,9.1888,9.2049,9.1954,9.1877,9.2071,8.9274,8.7058,8.7181,8.7209,8.8378,9.169,9.2274,9.2391,9.2391,9.2228,9.1863,9.1241,9.121,9.121,9.121,9.121,9.121,9.121,9.4872,9.5412,9.2148,9.2299,9.2417,9.2482,9.2482,9.42,9.7362,9.4044,9.2482,0.0,0.0,0.0,0.0,0.0,0.0,0.0,0.0,0.0,0.0,0.0,0.0,0.0,0.0,0.0,0.0,0.0,0.0,0.0,0.0,0.0,0.0,0.0,0.0,0.0,0.0,0.0,0.0,0.0,0.0,7.832,7.765,7.7024,7.6505,7.6466,7.6444,7.6397,7.6444,7.6444,7.6397,7.6397,7.5933,7.5036,7.4938,7.4269,7.3176,7.3097,7.3234,7.3609,7.4472,7.5528,7.6673,7.6931,7.7715,7.8623,7.8651,7.9519,8.0592,8.0414,8.0579,8.0867,8.1231,8.0923,8.0412,8.0495,8.0805,8.107,8.0785,8.1579,8.28,8.4217,8.5182,8.6221,8.7934,8.867,8.9011,8.9366,9.0671,9.1888,9.2088,9.211,9.211,9.211,9.11,8.9527,8.7387,8.7152,8.7637,8.8884,9.1028,9.2391,9.2391,9.2331,9.2152,9.1799,9.1438,9.121,9.121,9.121,9.121,9.121,9.5066,9.5606,9.2187,9.2208,9.2323,9.2429,9.2498,9.4278,9.7636,9.4122,9.2482,0.0,0.0,0.0,0.0,0.0,0.0,0.0,0.0,0.0,0.0,0.0,0.0,0.0,0.0,0.0,0.0,0.0,0.0,0.0,0.0,0.0,0.0,0.0,0.0,0.0,0.0,0.0,0.0,0.0,0.0,7.9169,7.8269,7.7418,7.6549,7.651,7.6488,7.6421,7.6466,7.6466,7.6397,7.6088,7.5662,7.5121,7.4938,7.4462,7.3729,7.4148,7.4168,7.3937,7.4533,7.5446,7.6591,7.7225,7.8083,7.9018,7.9103,7.9972,8.1077,8.0559,8.08,8.1319,8.1319,8.1066,8.0694,8.051,8.0728,8.096,8.0737,8.1298,8.2365,8.4108,8.536,8.6532,8.7604,8.8416,8.9072,8.9408,9.0718,9.1888,9.2088,9.211,9.211,9.211,9.2171,9.1432,8.9155,8.8905,8.8962,8.8962,9.0989,9.2391,9.2391,9.2391,9.2347,9.2228,9.1581,9.121,9.121,9.2287,9.2903,9.2903,9.5686,9.6111,9.3858,9.2715,9.2243,9.2391,9.244,9.3651,9.5876,9.3534,9.2481,0.0,0.0,0.0,0.0,0.0,0.0,0.0,0.0,0.0,0.0,0.0,0.0,0.0,0.0,0.0,0.0,0.0,0.0,0.0,0.0,0.0,0.0,0.0,0.0,0.0,0.0,0.0,0.0,0.0,8.0018,8.0018,7.8578,7.744,7.6651,7.6612,7.6591,7.6488,7.6488,7.6466,7.6397,7.5546,7.5121,7.5121,7.4976,7.4501,7.3845,7.5341,7.5515,7.4745,7.4745,7.5774,7.74,7.7439,7.844,7.9904,7.999,8.054,8.1214,8.1263,8.1347,8.14,8.14,8.1504,8.1469,8.0661,8.1113,8.1679,8.0841,8.1265,8.237,8.4178,8.5876,8.7072,8.7076,8.7681,8.8536,8.9313,9.0741,9.1936,9.2088,9.211,9.211,9.211,9.2282,9.2391,9.2391,9.2391,9.2391,9.2391,9.2391,9.2391,9.2391,9.2391,9.2391,9.2391,9.1682,9.1245,9.121,9.4403,9.6288,9.6288,9.6859,9.7176,9.7199,9.3858,9.221,9.2391,9.2391,9.2391,9.2391,9.2391,9.2391,3.1036,0.0,0.0,0.0,0.0,0.0,0.0,0.0,0.0,0.0,0.0,0.0,0.0,0.0,0.0,0.0,0.0,0.0,0.0,0.0,0.0,0.0,0.0,0.0,0.0,0.0,0.0,0.0,0.0,8.0729,8.0057,7.8665,7.7775,7.7564,7.6982,7.6633,7.6553,7.6632,7.6632,7.6531,7.6256,7.5769,7.5188,7.5619,7.5388,7.4617,7.5572,7.5861,7.563,7.563,7.6284,7.7391,7.7968,7.8853,7.9922,8.0656,8.1041,8.1244,8.1319,8.1374,8.14,8.14,8.1453,8.1514,8.1329,8.1879,8.2444,8.1679,8.2048,8.3272,8.5715,8.6255,8.6622,8.8512,8.8632,8.8517,8.9411,9.0361,9.129,9.1993,9.211,9.211,9.211,9.2282,9.2391,9.2391,9.2391,9.2391,9.2391,9.2391,9.2391,9.2391,9.2391,9.2391,9.2391,9.2187,9.1835,9.1245,9.4403,9.6288,9.6288,9.6463,9.6744,9.7199,9.3858,9.221,9.2391,9.2391,9.2391,9.2391,9.2391,9.2391,0.0,0.0,0.0,0.0,0.0,0.0,0.0,0.0,0.0,0.0,0.0,0.0,0.0,0.0,0.0,0.0,0.0,0.0,0.0,0.0,0.0,0.0,0.0,0.0,0.0,0.0,0.0,0.0,7.9968,7.9945,7.9172,7.8657,7.8282,7.7952,7.7485,7.7195,7.7157,7.6827,7.6672,7.6573,7.6161,7.5675,7.521,7.5553,7.5414,7.4964,7.5716,7.6236,7.6553,7.6553,7.7053,7.7861,7.8707,7.9554,8.0431,8.108,8.1263,8.1234,8.14,8.1427,8.1427,8.1427,8.1478,8.1504,8.1577,8.222,8.2825,8.2411,8.294,8.3971,8.5542,8.5866,8.6194,8.7728,8.7945,8.801,8.8886,8.9528,9.0402,9.1799,9.211,9.211,9.211,9.2282,9.2391,9.2391,9.2391,9.2391,9.2391,9.2391,9.2391,9.2391,9.2391,9.2391,9.2391,9.2391,9.2073,9.1241,9.4403,9.6288,9.6288,9.6288,9.6597,9.7199,9.3858,9.221,9.2391,9.2391,9.2391,9.2391,9.2391,9.2391,0.0,0.0,0.0,0.0,0.0,0.0,4.8656,4.9005,0.0,0.0,0.0,0.0,0.0,0.0,0.0,0.0,0.0,0.0,0.0,0.0,0.0,0.0,0.0,0.0,0.0,0.0,0.0,7.8513,7.8668,7.8503,7.8064,7.8628,7.8669,7.8008,7.7891,7.7834,7.7778,7.7059,7.6672,7.6594,7.5756,7.5404,7.5481,7.5368,7.5247,7.5234,7.6041,7.6678,7.7198,7.7438,7.7977,7.8707,7.9515,8.0323,8.1124,8.1234,8.1291,8.1319,8.1453,8.1504,8.1504,8.1504,8.1504,8.1542,8.1693,8.2336,8.3072,8.3219,8.3832,8.4476,8.4738,8.5377,8.5977,8.614,8.6732,8.7478,8.8282,8.8671,8.9547,9.1703,9.2265,9.2343,9.2148,9.2282,9.2391,9.2391,9.2391,9.2391,9.2391,9.2391,9.2391,9.2391,9.2391,9.2391,9.2391,9.2391,9.2113,9.1368,9.4475,9.6288,9.6288,9.6288,9.6597,9.7199,9.384,9.2228,9.2391,9.2391,9.2391,9.2391,9.2391,9.2391,3.7963,3.8188,3.8605,0.0,0.0,0.0,0.0,4.0409,0.0,0.0,0.0,0.0,0.0,0.0,0.0,0.0,0.0,0.0,0.0,0.0,0.0,0.0,0.0,0.0,0.0,0.0,7.6868,7.7665,7.832,7.8735,7.8773,7.8374,7.8088,7.8008,7.7308,7.6959,7.6941,7.6786,7.6708,7.669,7.6458,7.6669,7.7366,7.7186,7.7087,7.7009,7.7775,7.7439,7.6486,7.8507,7.94,7.9554,7.9746,8.0323,8.1124,8.1234,8.1291,8.1319,8.1453,8.1504,8.1504,8.1504,8.1504,8.162,8.2341,8.3153,8.403,8.4809,8.4725,8.4748,8.6216,8.6771,8.7113,8.7819,8.8102,8.8445,8.9268,8.9448,8.9955,9.176,9.3236,9.3741,9.2343,9.2282,9.2391,9.2391,9.2391,9.2391,9.2391,9.2391,9.2391,9.2391,9.2391,9.2391,9.2391,9.2391,9.2347,9.2169,9.479,9.6288,9.6288,9.6288,9.6597,9.7199,9.3977,9.2362,9.2391,9.2391,9.2391,9.2391,9.2391,9.2391,4.0096,3.9675,4.0017,4.0038,0.0,0.0,0.0,0.0,0.0,0.0,0.0,0.0,0.0,0.0,0.0,0.0,0.0,0.0,0.0,0.0,0.0,0.0,0.0,0.0,0.0,0.0,7.5542,7.6777,7.724,7.755,7.7682,7.7849,7.7932,7.7971,7.7562,7.7347,7.7347,7.692,7.6687,7.6687,7.7079,7.7465,7.793,7.8162,7.8258,7.8219,7.8525,7.842,7.815,7.9336,8.0115,8.05,8.0439,8.0708,8.1124,8.1214,8.1263,8.1253,8.0898,8.113,8.1426,8.1001,8.1426,8.2238,8.2664,8.367,8.4895,8.587,8.5574,8.5194,8.6199,8.6483,8.6631,8.7117,8.7546,8.7946,8.8367,8.9074,8.9799,9.0344,9.2053,9.312,9.2265,9.359,9.4245,9.265,9.2391,9.2391,9.2391,9.2391,9.2391,9.2391,9.395,9.4924,9.4924,9.4846,9.4055,9.2381,9.5092,9.659,9.6288,9.6288,9.6597,9.7199,9.5632,9.4829,9.4924,9.3249,9.2391,9.2391,9.2391,9.2391,0.0,0.0,0.0,0.0,0.0,4.1449,0.0,0.0,0.0,0.0,0.0,0.0,0.0,0.0,0.0,0.0,0.0,0.0,0.0,0.0,0.0,0.0,0.0,0.0,0.0,0.0,7.3664,7.5786,7.535,7.5388,7.6335,7.7169,7.7641,7.7661,7.7873,7.8008,7.8008,7.7464,7.7192,7.7174,7.7816,7.8202,7.8374,7.8959,7.9197,7.9121,7.9185,7.9467,7.9787,8.0078,8.0473,8.1012,8.1077,8.1093,8.1093,8.1184,8.1234,8.1214,8.0563,8.0873,8.1412,8.0716,8.1644,8.3076,8.327,8.4353,8.5733,8.6592,8.6289,8.5812,8.6005,8.6311,8.6499,8.6299,8.7092,8.7858,8.7581,8.8756,8.9796,8.9487,9.0868,9.211,9.211,9.4946,9.6118,9.2869,9.2391,9.2391,9.2391,9.2391,9.2391,9.2391,9.547,9.7481,9.7449,9.7304,9.6033,9.3275,9.5727,9.7043,9.6558,9.6358,9.6597,9.7199,9.7199,9.7304,9.7496,9.4729,9.3054,9.243,9.3093,9.3366,0.0,0.0,0.0,0.0,4.9213,0.0,0.0,0.0,0.0,0.0,0.0,0.0,0.0,0.0,0.0,0.0,0.0,0.0,0.0,0.0,0.0,0.0,0.0,0.0,0.0,0.0,0.0,7.4581,7.2238,7.2283,7.6108,7.6604,7.6749,7.6846,7.7601,7.8008,7.8008,7.8668,7.8961,7.8923,7.8959,7.9343,8.0013,8.0058,8.0048,8.001,8.0782,8.0292,7.9134,8.0558,8.0779,8.0266,8.0935,8.1154,8.1093,8.1184,8.1234,8.1291,8.1258,8.1401,8.1562,8.1484,8.2607,8.4093,8.4892,8.5783,8.6582,8.6816,8.6803,8.6768,8.6917,8.8095,8.8881,8.739,8.8884,9.0312,8.8967,8.9652,9.0747,9.1568,9.1915,9.211,9.211,9.4946,9.6118,9.2869,9.2391,9.2391,9.2391,9.2391,9.2391,9.2391,9.547,9.7433,9.7264,9.7221,9.7043,9.6655,9.7147,9.7449,9.7377,9.6676,9.6597,9.7199,9.7199,9.7304,9.7496,9.7106,9.5353,9.2469,9.5509,9.6912,0.0,0.0,0.0,0.0,0.0,0.0,0.0,0.0,4.2502,0.0,0.0,0.0,0.0,0.0,0.0,0.0,0.0,0.0,0.0,0.0,0.0,0.0,0.0,0.0,0.0,0.0,0.0,0.0,0.0,7.0976,7.5247,7.5669,7.6049,7.6614,7.7544,7.799,7.7932,7.8825,7.9214,7.9153,7.9576,7.9958,8.0322,8.0754,8.0937,8.0912,8.1272,8.104,8.0448,8.1103,8.1181,8.0898,8.1203,8.1234,8.1154,8.1154,8.1214,8.1214,8.074,8.135,8.2482,8.3449,8.4223,8.4959,8.5899,8.6403,8.6737,8.6877,8.692,8.6923,8.7055,8.8001,8.8772,8.8091,8.9196,9.0078,8.9168,8.8778,8.8764,8.9185,9.0881,9.2282,9.2282,9.3357,9.3763,9.2423,9.2331,9.2391,9.2391,9.2391,9.2391,9.2391,9.547,9.7465,9.7398,9.7284,9.6344,9.4363,9.627,9.7284,9.6809,9.6459,9.6597,9.7199,9.7199,9.7304,9.7496,9.7496,9.6756,9.5353,9.4807,9.5587,5.5769,0.0,0.0,0.0,0.0,0.0,0.0,0.0,0.0,0.0,0.0,0.0,0.0,0.0,0.0,0.0,0.0,0.0,0.0,0.0,0.0,0.0,0.0,0.0,0.0,0.0,0.0,0.0,0.0,0.0,7.4269,7.4711,7.5503,7.6922,7.7875,7.8437,7.8632,7.9253,7.9639,7.9808,8.0152,8.0531,8.1035,8.1606,8.2006,8.22,8.2149,8.2033,8.1852,8.1801,8.1659,8.1427,8.14,8.1319,8.1234,8.1154,8.1214,8.1242,8.0558,8.1439,8.3076,8.4779,8.532,8.5501,8.6441,8.6737,8.6761,8.6899,8.6765,8.6651,8.7016,8.7751,8.8373,8.8467,8.948,9.022,8.9391,8.8923,8.8612,8.8612,9.0677,9.2391,9.2391,9.2282,9.2191,9.2112,9.2299,9.2391,9.2391,9.2391,9.2391,9.2391,9.4613,9.6483,9.7418,9.7381,9.5807,9.2385,9.5525,9.7246,9.6645,9.6429,9.659,9.7284,9.7284,9.7362,9.7496,9.7496,9.7496,9.7457,9.4963,9.5119,0.0,0.0,0.0,0.0,0.0,0.0,0.0,0.0,4.7549,0.0,0.0,0.0,0.0,0.0,0.0,0.0,0.0,0.0,0.0,0.0,0.0,0.0,0.0,0.0,0.0,0.0,0.0,0.0,0.0,0.0,7.3266,7.3876,7.515,7.7775,7.8728,7.9563,8.0417,8.0417,8.0842,8.1484,8.0671,8.1151,8.2703,8.2741,8.3206,8.4018,8.4018,8.3554,8.2741,8.2741,8.2277,8.1478,8.1427,8.14,8.1374,8.1273,8.1263,8.1374,8.128,8.1968,8.3188,8.4854,8.5396,8.5551,8.6514,8.6809,8.6832,8.6961,8.6399,8.5952,8.6878,8.7716,8.8321,8.8461,9.0352,9.1698,9.0117,9.1066,9.2235,9.2235,9.2313,9.2391,9.2391,9.2391,9.2362,9.2226,9.2293,9.2391,9.2391,9.2391,9.2391,9.2391,9.2508,9.3911,9.7223,9.7496,9.6039,9.2611,9.5626,9.7496,9.7481,9.6735,9.6676,9.7481,9.7496,9.7496,9.7496,9.7496,9.7496,9.7496,9.7379,9.7379,0.0,0.0,6.7132,5.9415,0.0,0.0,0.0,0.0,0.0,0.0,0.0,0.0,0.0,0.0,0.0,0.0,0.0,0.0,0.0,0.0,0.0,0.0,0.0,0.0,0.0,0.0,0.0,0.0,0.0,0.0,0.0,7.2519,7.4131,7.6692,7.8899,8.0164,8.0433,8.1015,8.1359,8.1528,8.1219,8.1412,8.1968,8.2548,8.2973,8.3244,8.3244,8.3051,8.2741,8.2161,8.1774,8.1504,8.1478,8.1453,8.1453,8.1301,8.1273,8.1473,8.2621,8.3347,8.3966,8.563,8.6172,8.6275,8.6596,8.6761,8.6716,8.62,8.5913,8.5641,8.5443,8.6843,8.8321,8.8429,9.0375,9.2031,9.152,9.1919,9.2391,9.2391,9.2391,9.2391,9.2391,9.2391,9.2377,9.2347,9.2377,9.2391,9.2391,9.2391,9.2391,9.2391,9.2391,9.3794,9.7223,9.7496,9.6054,9.2625,9.3482,9.5158,9.7418,9.6735,9.6676,9.7481,9.7496,9.7496,9.7496,9.7496,9.7496,9.7496,9.7496,9.7496,6.998,7.0899,0.0,0.0,6.135,0.0,5.25,0.0,0.0,0.0,0.0,0.0,0.0,0.0,0.0,0.0,0.0,0.0,0.0,0.0,0.0,0.0,0.0,0.0,0.0,0.0,5.8607,6.1579,5.9302,0.0,0.0,0.0,7.2533,7.6157,7.8641,8.0196,8.0816,8.1088,8.1445,8.1968,8.1658,8.1813,8.2432,8.3012,8.3399,8.367,8.3399,8.3244,8.3167,8.2316,8.1774,8.1504,8.1504,8.1504,8.1478,8.1319,8.1263,8.1523,8.3305,8.3939,8.4287,8.5976,8.6583,8.6583,8.6662,8.6713,8.6592,8.5829,8.5406,8.5097,8.4629,8.5912,8.7545,8.8222,9.0089,9.1782,9.2093,9.2226,9.2315,9.2377,9.2391,9.2391,9.2391,9.2391,9.2391,9.2391,9.2391,9.2391,9.2391,9.2391,9.2391,9.2391,9.2391,9.3794,9.7223,9.7449,9.5919,9.2494,9.2362,9.395,9.734,9.6989,9.6809,9.706,9.736,9.7496,9.7496,9.7496,9.7496,9.7496,9.7496,9.7496]},{"header":{"parameterUnit":"m.s-1","parameterCategory":1,"la1":30.6,"la2":29.2853,"lo1":-89.7004,"lo2":-87.6739,"dy":0.0162,"dx":0.0183,"nx":112,"ny":82,"refTime":"2026-02-24T00:00:00:Z","depth":0,"parameterNumber":3,"parameterNumberName":"V-component_of_WINDS"},"data":[0.0,0.0,0.0,0.0,0.0,0.0,0.0,0.0,0.0,0.0,0.0,0.0,0.0,0.0,0.0,0.0,0.0,0.0,0.0,0.0,0.0,0.0,0.0,0.0,0.0,0.0,0.0,0.0,0.0,0.0,0.0,0.0,0.0,0.0,0.0,0.0,0.0,0.0,0.0,0.0,0.0,0.0,0.0,0.0,0.0,0.0,0.0,0.0,0.0,0.0,0.0,0.0,0.0,0.0,0.0,0.0,0.0,0.0,0.0,0.0,0.0,0.0,0.0,0.0,0.0,0.0,0.0,0.0,0.0,0.0,0.0,0.0,0.0,0.0,0.0,0.0,0.0,0.0,0.0,0.0,0.0,0.0,0.0,0.0,0.0,0.0,0.0,0.0,0.0,0.0,0.0,-1.0595,-0.9063,-0.7468,-0.56,-0.5459,-0.4166,-0.1422,0.0,0.0,0.0,0.0,0.0,0.0,0.0,0.0,0.0,0.0,0.0,0.0,0.0,0.0,0.0,0.0,0.0,0.0,0.0,0.0,0.0,0.0,0.0,0.0,0.0,0.0,0.0,0.0,0.0,0.0,0.0,0.0,0.0,0.0,0.0,0.0,0.0,0.0,0.0,0.0,0.0,0.0,0.0,0.0,0.0,0.0,0.0,0.0,0.0,0.0,0.0,0.0,0.0,0.0,0.0,0.0,0.0,0.0,0.0,0.0,0.0,0.0,0.0,0.0,0.0,0.0,0.0,0.0,0.0,0.0,0.0,0.0,0.0,0.0,0.0,0.0,0.0,0.0,0.0,0.0,0.0,0.0,0.0,0.0,0.0,0.0,0.0,0.0,0.0,0.0,0.0,0.0,0.0,0.0,0.0,0.0,0.0,0.0,0.0,0.0,0.0,0.0,0.0,0.0,-0.9665,-0.9365,-0.8668,-0.7419,-0.5217,-0.4522,-0.3064,-0.0804,0.0,0.0,0.0,0.0,0.0,0.0,0.0,0.0,0.0,0.0,0.0,0.0,0.0,0.0,0.0,0.0,0.0,0.0,0.0,0.0,0.0,0.0,0.0,0.0,0.0,0.0,0.0,0.0,0.0,0.0,0.0,0.0,0.0,0.0,0.0,0.0,0.0,0.0,0.0,0.0,0.0,0.0,0.0,0.0,0.0,0.0,0.0,0.0,0.0,0.0,0.0,0.0,0.0,0.0,0.0,0.0,0.0,0.0,0.0,0.0,0.0,0.0,0.0,0.0,0.0,0.0,0.0,0.0,0.0,0.0,0.0,0.0,0.0,0.0,0.0,0.0,0.0,0.0,0.0,0.0,0.0,0.0,0.0,0.0,0.0,0.0,0.0,0.0,0.0,0.0,0.0,0.0,0.0,0.0,0.0,0.0,0.0,0.0,0.0,0.0,0.0,0.0,0.0,-0.9759,-0.9831,-0.9221,-0.8861,-0.7612,-0.528,-0.429,-0.2982,-0.1294,-0.0204,0.0,0.0,0.0,0.0,0.0,0.0,0.0,0.0,0.0,0.0,0.0,0.0,0.0,0.0,0.0,0.0,0.0,0.0,0.0,0.0,0.0,0.0,0.0,0.0,0.0,0.0,0.0,0.0,0.0,0.0,0.0,0.0,0.0,0.0,0.0,0.0,0.0,0.0,0.0,0.0,0.0,0.0,0.0,0.0,0.0,0.0,0.0,0.0,0.0,0.0,0.0,0.0,0.0,0.0,0.0,0.0,0.0,0.0,0.0,0.0,0.0,0.0,0.0,0.0,0.0,0.0,0.0,0.0,0.0,0.0,0.0,0.0,0.0,0.0,0.0,0.0,0.0,0.0,0.0,0.0,0.0,0.0,0.0,0.0,0.0,0.0,0.0,0.0,0.0,0.0,0.0,0.0,0.0,0.0,0.0,0.0,0.0,0.0,0.0,0.0,0.0,0.0,-1.0085,-0.9935,-0.9363,-0.9112,-0.8107,-0.5636,-0.4152,-0.285,-0.1664,0.0897,0.0,0.0,0.0,0.0,0.0,0.0,0.0,0.0,0.0,0.0,0.0,0.0,0.0,0.0,0.0,0.0,0.0,0.0,0.0,0.0,0.0,0.0,0.0,0.0,0.0,0.0,0.0,0.0,0.0,0.0,0.0,0.0,0.0,0.0,0.0,0.0,0.0,0.0,0.0,0.0,0.0,0.0,0.0,0.0,0.0,0.0,0.0,0.0,0.0,0.0,0.0,0.0,0.0,0.0,0.0,0.0,0.0,0.0,0.0,0.0,0.0,0.0,0.0,0.0,0.0,0.0,0.0,0.0,0.0,0.0,0.0,0.0,0.0,0.0,0.0,0.0,0.0,0.0,0.0,0.0,0.0,0.0,0.0,0.0,0.0,0.0,0.0,0.0,0.0,0.0,0.0,0.0,0.0,0.0,0.0,0.0,0.0,0.0,0.0,0.0,0.0,0.0,-0.9806,-0.9703,-0.9983,-0.9532,-0.8491,-0.6885,-0.387,-0.195,-0.1302,0.1402,0.0,0.0,0.0,0.0,0.0,0.0,0.0,0.0,0.0,0.0,0.0,0.0,0.0,0.0,0.0,0.0,0.0,0.0,0.0,0.0,0.0,0.0,0.0,0.0,0.0,0.0,0.0,0.0,0.0,0.0,0.0,0.0,0.0,0.0,0.0,0.0,0.0,0.0,0.0,0.0,0.0,0.0,0.0,0.0,0.0,0.0,0.0,0.0,0.0,0.0,0.0,0.0,0.0,0.0,0.0,0.0,0.0,0.0,0.0,0.0,0.0,0.0,0.0,0.0,0.0,0.0,0.0,0.0,0.0,0.0,0.0,0.0,0.0,0.0,0.0,0.0,0.0,0.0,0.0,0.0,0.0,0.0,0.0,0.0,0.0,0.0,0.0,0.0,0.0,0.0,0.0,0.0,0.0,0.0,0.0,0.0,0.0,0.0,0.0,0.0,0.0,0.0,-0.9653,-0.9571,0.0,-0.9783,-0.8711,-0.6965,-0.5351,-0.3424,-0.1425,0.0,0.0,0.0,0.0,0.0,0.0,0.0,0.0,0.0,0.0,0.0,0.0,0.0,0.0,0.0,0.0,0.0,0.0,0.0,0.0,0.0,0.0,0.0,0.0,0.0,0.0,0.0,0.0,0.0,0.0,0.0,0.0,0.0,0.0,0.0,0.0,0.0,0.0,0.0,0.0,0.0,0.0,0.0,0.0,0.0,0.0,0.0,0.0,0.0,0.0,0.0,0.0,0.0,0.0,0.0,0.0,0.0,0.0,0.0,0.0,0.0,0.0,0.0,0.0,0.0,0.0,0.0,0.0,0.0,0.0,0.0,0.0,0.0,0.0,0.0,0.0,0.0,0.0,0.0,0.0,0.0,0.0,0.0,0.0,0.0,0.0,0.0,0.0,0.0,0.0,0.0,0.0,0.0,0.0,0.0,0.0,0.0,0.0,0.0,0.0,0.0,0.0,-0.9706,-0.9306,-0.924,0.0,-0.9805,-0.8859,-0.7111,-0.6141,-0.4417,-0.1652,0.0,0.0,0.0,0.0,0.0,0.0,0.0,0.0,0.0,0.0,0.0,0.0,0.0,0.0,0.0,0.0,0.0,0.0,0.0,0.0,0.0,0.0,0.0,0.0,0.0,0.0,0.0,0.0,0.0,0.0,0.0,0.0,0.0,0.0,0.0,0.0,0.0,0.0,0.0,0.0,0.0,0.0,0.0,0.0,0.0,0.0,0.0,0.0,0.0,0.0,0.0,0.0,0.0,0.0,0.0,0.0,0.0,0.0,0.0,0.0,0.0,0.0,0.0,0.0,0.0,0.0,0.0,0.0,0.0,0.0,0.0,0.0,0.0,0.0,0.0,0.0,0.0,0.0,0.0,0.0,0.0,0.0,0.0,0.0,0.0,0.0,0.0,0.0,0.0,0.0,0.0,0.0,0.0,0.0,0.0,0.0,0.0,0.0,0.0,0.0,0.0,0.0,-0.9283,-0.8823,-0.8703,-0.9617,-0.9466,-0.8813,-0.7673,-0.608,-0.4316,0.0,0.0,0.0,0.0,0.0,0.0,0.0,0.0,0.0,0.0,0.0,0.0,0.0,0.0,0.0,0.0,0.0,0.0,0.0,0.0,0.0,0.0,0.0,0.0,0.0,0.0,0.0,0.0,0.0,0.0,0.0,0.0,0.0,0.0,0.0,0.0,0.0,0.0,0.0,0.0,0.0,0.0,0.0,0.0,0.0,0.0,0.0,0.0,0.0,0.0,0.0,0.0,0.0,0.0,0.0,0.0,0.0,0.0,0.0,0.0,0.0,0.0,0.0,0.0,0.0,0.0,0.0,0.0,0.0,0.0,0.0,0.0,0.0,0.0,0.0,0.0,0.0,0.0,0.0,0.0,0.0,0.0,0.0,0.0,0.0,0.0,0.0,0.0,0.0,0.0,0.0,0.0,0.0,0.0,0.0,0.0,0.0,0.0,0.0,0.0,0.0,0.0,0.0,0.0,-0.861,-0.8495,-0.9481,-0.9345,-0.8697,-0.7419,-0.6451,-0.4684,-0.1974,0.0,0.0,0.0,0.0,0.0,0.0,0.0,0.0,0.0,0.0,0.0,0.0,0.0,0.0,0.0,0.0,0.0,0.0,0.0,0.0,0.0,0.0,0.0,0.0,0.0,0.0,0.0,0.0,0.0,0.0,0.0,0.0,0.0,0.0,0.0,0.0,0.0,0.0,0.0,0.0,0.0,0.0,0.0,0.0,0.0,0.0,0.0,0.0,0.0,0.0,0.0,0.0,0.0,0.0,0.0,0.0,0.0,0.0,0.0,0.0,0.0,0.0,0.0,0.0,0.0,0.0,0.0,0.0,0.0,0.0,0.0,0.0,0.0,0.0,0.0,0.0,0.0,0.0,0.0,0.0,0.0,0.0,0.0,0.0,0.0,0.0,0.0,0.0,0.0,0.0,0.0,0.0,0.0,0.0,0.0,0.0,0.0,0.0,0.0,0.0,0.0,0.0,-0.9006,-0.8366,-0.8198,-0.9197,-0.8721,-0.8044,-0.7382,-0.6394,-0.4504,-0.1745,0.0,0.0,0.0,0.0,0.0,0.0,0.0,0.0,0.0,0.0,0.0,0.0,0.0,0.0,0.0,0.0,0.0,0.0,0.0,0.0,0.0,0.0,0.0,0.0,0.0,0.0,0.0,0.0,0.0,0.0,0.0,0.0,0.0,0.0,0.0,0.0,0.0,0.0,0.0,0.0,0.0,0.0,0.0,0.0,0.0,0.0,0.0,0.0,0.0,0.0,0.0,0.0,0.0,0.0,0.0,0.0,0.0,0.0,0.0,0.0,0.0,0.0,0.0,0.0,0.0,0.0,0.0,0.0,0.0,0.0,0.0,0.0,0.0,0.0,0.0,0.0,0.0,0.0,0.0,0.0,0.0,0.0,0.0,0.0,0.0,0.0,0.0,0.0,0.0,0.0,0.0,0.0,0.0,0.0,0.0,0.0,0.0,0.0,0.0,0.0,0.0,0.0,-0.8823,-0.8066,-0.8014,-0.8999,-0.8013,-0.7301,-0.7382,-0.5939,-0.3947,-0.1519,0.0,0.0,0.0,0.0,0.0,0.0,0.0,0.0,0.0,0.0,0.0,0.0,0.0,0.0,0.0,0.0,0.0,0.0,0.0,0.0,0.0,0.0,0.0,0.0,0.0,0.0,0.0,0.0,0.0,0.0,0.0,0.0,0.0,0.0,0.0,0.0,0.0,0.0,0.0,0.0,0.0,0.0,0.0,0.0,0.0,0.0,0.0,0.0,0.0,0.0,0.0,0.0,0.0,0.0,0.0,0.0,0.0,0.0,0.0,0.0,-0.7081,0.0,0.0,0.0,0.0,0.0,0.0,0.0,0.0,0.0,0.0,0.0,0.0,0.0,0.0,0.0,0.0,0.0,0.0,0.0,0.0,0.0,0.0,0.0,0.0,0.0,0.0,0.0,0.0,0.0,0.0,0.0,0.0,0.0,0.0,0.0,0.0,0.0,0.0,0.0,0.0,0.0,-0.9153,-0.8245,-0.8023,-0.8999,-0.8076,-0.7366,-0.7386,-0.5939,-0.3836,-0.1206,0.0,0.0,0.0,0.0,0.0,0.0,0.0,0.0,0.0,0.0,0.0,0.0,0.0,0.0,0.0,0.0,0.0,0.0,0.0,0.0,0.0,0.0,0.0,0.0,0.0,0.0,0.0,0.0,0.0,0.0,0.0,0.0,0.0,0.0,0.0,0.0,0.0,0.0,0.0,0.0,0.0,0.0,0.0,0.0,0.0,0.0,0.0,0.0,0.0,0.0,0.0,0.0,0.0,0.0,0.0,0.0,0.0,0.0,0.0,0.0,0.0,-0.7631,0.0,0.0,0.0,0.0,0.0,0.0,0.0,0.0,0.0,0.0,0.0,0.0,0.0,0.0,0.0,0.0,0.0,0.0,0.0,0.0,0.0,0.0,0.0,0.0,0.0,0.0,0.0,0.0,0.0,0.0,0.0,0.0,0.0,0.0,0.0,0.0,0.0,0.0,0.0,0.0,-0.9086,-0.8392,-0.8163,-0.8999,-0.7946,-0.7237,-0.739,-0.5483,-0.3301,-0.1004,0.1236,0.0,0.0,0.0,0.0,0.0,0.0,0.0,0.0,0.0,0.0,0.0,0.0,0.0,0.0,0.0,0.0,0.0,0.0,0.0,0.0,0.0,0.0,0.0,0.0,0.0,0.0,0.0,0.0,0.0,0.0,0.0,0.0,0.0,0.0,0.0,0.0,0.0,0.0,0.0,0.0,0.0,0.0,0.0,0.0,0.0,0.0,0.0,0.0,0.0,0.0,0.0,0.0,0.0,0.0,0.0,-0.9712,-1.0589,-1.1701,-1.2643,-1.0724,-0.966,-0.8927,0.0,0.0,0.0,0.0,0.0,0.0,0.0,0.0,0.0,0.0,0.0,0.0,0.0,0.0,0.0,0.0,0.0,0.0,0.0,0.0,0.0,0.0,0.0,0.0,0.0,-0.5465,-0.4888,0.0,0.0,0.0,0.0,0.0,0.0,0.0,0.0,0.0,0.0,0.0,0.0,-0.8969,-0.858,-0.8484,-0.9004,-0.7655,-0.6945,-0.739,-0.5027,-0.2758,-0.0914,0.1313,0.3578,0.0,0.0,0.0,0.0,0.0,0.0,0.0,0.0,0.0,0.0,0.0,0.0,0.0,0.0,0.0,0.0,0.0,0.0,0.0,0.0,0.0,0.0,0.0,0.0,0.0,0.0,0.0,0.0,0.0,0.0,0.0,0.0,-0.8144,-0.5502,0.0,0.0,0.0,0.0,0.0,0.0,0.0,0.0,0.0,0.0,0.0,0.0,0.0,0.0,-0.9888,-1.0692,-1.192,-1.3626,-1.265,-1.1423,-0.9774,-1.0968,-1.25,-1.4042,-1.3024,0.0,-0.981,-0.7164,0.0,0.0,0.0,0.0,0.0,0.0,0.0,0.0,0.0,0.0,0.0,0.0,0.0,0.0,0.0,0.0,0.0,0.0,0.0,0.0,0.0,0.0,-0.7256,-0.6932,-0.6111,-0.5397,0.0,-0.4328,-0.3773,-0.405,0.0,0.0,0.0,0.0,0.0,0.0,0.0,0.0,-0.9421,-0.884,-0.8652,-0.902,-0.7403,-0.67,-0.7395,-0.4877,-0.2488,-0.1075,0.1384,0.3564,0.5459,0.7101,0.0,0.0,0.0,0.0,0.0,0.0,0.0,0.0,0.0,0.0,0.0,0.0,0.0,0.0,0.0,0.0,0.0,0.0,0.0,0.0,0.0,0.0,0.0,0.0,0.0,0.0,0.0,0.0,0.0,-0.9681,-0.9414,-0.7248,-0.4649,-0.2793,0.0,0.0,0.0,0.0,0.0,0.0,0.0,0.0,0.0,-0.7473,-0.8518,-0.9467,-1.0268,-1.1286,-1.2317,-1.3552,-1.3317,-1.2634,-1.1606,-1.2189,-1.2883,-1.3824,-1.3241,-1.2557,-1.1317,-0.8216,-0.5487,-0.3041,0.0,0.0,0.0,0.0,0.0,0.0,0.0,0.0,0.0,0.0,0.0,0.0,0.0,0.0,0.0,0.0,0.0,0.0,0.0,0.0,0.0,-0.7836,-0.724,-0.6437,-0.5548,-0.4712,-0.4225,0.0,-0.4262,-0.4534,-0.5659,0.0,0.0,0.0,0.0,0.0,-0.9553,-0.9181,-0.8881,-0.9229,-0.7599,-0.6765,-0.7233,-0.4694,-0.2642,-0.1676,0.0916,0.378,0.6556,0.7353,0.7908,0.0,0.0,0.0,0.0,0.0,0.0,0.0,0.0,0.0,0.0,0.0,0.0,0.0,0.0,0.0,0.0,0.0,0.0,0.0,0.0,0.0,0.0,0.0,0.0,0.0,0.0,0.0,0.0,-1.0459,-1.0478,-0.9052,-0.589,-0.3525,0.0,0.0,0.0,0.0,0.0,0.0,-0.6137,-0.6741,-0.7703,-0.8979,-0.9832,-1.0264,-1.0384,-1.1812,-1.284,-1.3627,-1.3831,-1.381,-1.3532,-1.36,-1.383,-1.3858,-1.3535,-1.3146,-1.2556,-0.9336,-0.6328,-0.3837,-0.2519,0.0,0.0,0.0,-0.2762,-0.3572,-0.3987,-0.4441,0.0,-0.5099,0.0,-0.6134,-0.6048,0.0,0.0,0.0,0.0,-0.8948,-0.887,0.0,-0.9068,-0.8495,-0.7893,-0.7023,-0.5711,-0.4856,-0.4361,0.0,-0.3732,-0.3699,-0.496,0.0,0.0,0.0,0.0,-0.873,-0.9856,-0.9594,-0.9308,-0.9497,-0.7836,-0.6709,-0.7229,-0.4519,-0.2642,-0.2137,0.0672,0.369,0.6904,0.7621,0.8185,0.0,0.0,0.0,0.0,0.0,0.0,0.0,0.0,0.0,0.0,0.0,0.0,0.0,0.0,0.0,0.0,0.0,0.0,0.0,0.0,0.0,0.0,0.0,0.0,0.0,0.0,0.0,0.0,0.0,0.0,-1.1399,-0.8022,0.0,0.0,0.0,0.0,-0.5154,-0.6468,-0.7052,-0.6782,-0.7125,-0.7227,-0.7156,-0.9427,-1.0922,-1.1378,-1.2019,-1.2948,-1.4251,-1.4224,-1.4509,-1.5072,-1.5072,-1.5243,-1.5406,-1.429,-1.3633,-1.2823,-1.048,-0.7504,-0.4163,-0.2818,-0.2753,-0.3512,-0.3574,-0.3915,-0.438,-0.4836,-0.5406,-0.5919,-0.6272,-0.6758,-0.7485,-0.7985,-0.8591,0.0,0.0,-0.9945,-1.012,-0.9931,-0.9756,-0.9504,-0.8998,-0.7675,-0.6452,-0.5906,-0.4614,-0.3638,0.0,-0.3254,-0.3457,-0.4393,0.0,0.0,-0.8077,-0.8362,-0.8775,-1.0134,-1.034,-1.0105,-0.9783,-0.7633,-0.6616,-0.7386,-0.4369,-0.2485,-0.2532,0.0545,0.3395,0.5912,0.7707,0.8792,0.8945,0.8018,0.0,0.0,0.0,0.0,0.0,0.0,0.0,0.0,0.0,0.0,0.0,0.0,0.0,0.0,0.0,0.0,0.0,0.0,0.0,0.0,0.0,0.0,0.0,0.0,0.0,0.0,0.0,0.0,-0.7832,-0.4754,0.0,0.0,-0.4231,-0.4695,-0.6422,-0.7483,-0.8113,-0.8085,-0.7962,-0.8102,-0.8527,-0.9516,-1.0605,-1.1455,-1.1933,-1.3022,-1.4869,-1.4869,-1.4977,-1.5181,-1.5052,-1.5101,-1.5125,-1.4537,-1.3786,-1.2786,-1.1214,-0.8812,-0.588,-0.4128,-0.3635,-0.3714,-0.3665,-0.4109,-0.4939,-0.5551,-0.5981,-0.6524,-0.7166,-0.7495,-0.7801,-0.8877,-0.9459,-0.9865,-1.0552,-1.086,-1.1021,-1.0973,-1.077,-1.05,-1.0082,-0.8759,-0.735,-0.6125,-0.4755,-0.3537,-0.2594,-0.259,-0.3122,-0.415,-0.4393,-0.5158,-0.7327,-0.828,-0.9162,-0.9974,-1.0341,-1.0203,-0.9573,-0.8108,-0.7297,-0.7301,-0.5245,-0.3678,-0.3023,-0.0278,0.2685,0.5606,0.7079,0.8213,0.9211,0.8467,0.7361,0.0,0.0,0.0,0.0,0.0,0.0,0.0,0.0,0.0,0.0,0.0,0.0,0.0,0.0,0.0,0.0,0.0,0.0,0.0,0.0,0.0,0.0,0.0,0.0,0.0,0.0,-0.8815,-0.6355,-0.3776,-0.274,-0.4126,-0.4618,-0.5366,-0.6431,-0.787,-0.8824,-0.8905,-0.8619,-0.8736,-0.9143,-0.9747,-1.0635,-1.1694,-1.2172,-1.3095,-1.4241,-1.4805,-1.4617,-1.367,-1.3639,-1.3554,-1.3413,-1.3224,-1.2501,-1.161,-1.0488,-0.8733,-0.685,-0.542,-0.4576,-0.4096,-0.4144,-0.4815,-0.5642,-0.6379,-0.6807,-0.7205,-0.8039,-0.814,-0.8355,-0.9802,-1.0287,-1.0699,-1.1462,-1.1797,-1.1792,-1.1775,-1.1538,-1.1268,-1.0337,-0.9086,-0.7671,-0.5954,-0.4423,-0.3201,-0.2177,-0.2213,-0.2706,-0.3434,-0.376,-0.4554,-0.6631,-0.8099,-0.9311,-1.0213,-1.0626,-1.0618,-0.9797,-0.8617,-0.7655,-0.7207,-0.5622,-0.4366,-0.3723,-0.11,0.1727,0.4662,0.6077,0.7448,0.887,0.8188,0.7195,0.593,0.0,0.0,0.0,0.0,0.0,0.0,0.0,0.0,0.0,0.0,0.0,0.0,0.0,0.0,0.0,0.0,0.0,0.0,0.0,0.0,0.0,0.0,0.0,-0.8756,-0.8295,-0.7903,-0.7571,-0.5492,-0.3636,-0.2525,-0.4001,-0.5201,-0.533,-0.746,-0.8948,-0.8956,-0.904,-0.9032,-0.915,-0.9716,-1.0853,-1.2183,-1.2454,-1.2449,-1.2172,-1.4253,-1.3493,-1.0469,-1.0868,-1.0792,-1.0688,-1.0602,-1.0041,-0.9322,-0.8238,-0.7563,-0.7166,-0.6266,-0.5457,-0.5041,-0.5101,-0.5805,-0.6675,-0.7483,-0.775,-0.7819,-0.8508,-0.8736,-0.905,-1.0517,-1.1181,-1.1518,-1.233,-1.2616,-1.2596,-1.2208,-1.2079,-1.1553,-0.9869,-0.8508,-0.7116,-0.5252,-0.3732,-0.2509,-0.2244,-0.2064,-0.2141,-0.2357,-0.2757,-0.3832,-0.6035,-0.7762,0.0,-1.0607,-1.1226,-1.1227,-1.0639,-0.8892,-0.7569,-0.7265,-0.5653,-0.4523,-0.4406,-0.1978,0.0505,0.2891,0.4732,0.6401,0.8022,0.7421,0.6693,0.5755,0.0,0.0,0.0,0.0,0.0,0.0,0.0,0.0,0.0,0.0,0.0,0.0,0.0,0.0,0.0,0.0,0.0,0.0,0.0,0.0,0.0,0.0,-0.9968,-0.9406,-0.9425,-0.8834,-0.7146,-0.6159,-0.5061,-0.3636,-0.2793,-0.2521,-0.3179,-0.2689,-0.3386,-0.5789,-0.7903,-0.908,-0.9346,-0.9338,-1.0104,-1.1269,-0.7765,-0.7909,-1.2172,-1.2395,-1.1472,-0.9649,-1.1686,-1.1838,-1.0716,-1.1042,-1.0535,-0.9605,-0.8857,-0.8129,-0.7256,-0.5603,-0.4875,-0.502,-0.4533,-0.5583,-0.7156,-0.7869,-0.7639,-0.7267,-0.8576,-0.8463,-0.836,-1.0491,-1.1489,-1.2004,-1.2654,-1.306,-1.3344,-1.3207,-1.2933,-1.2521,-1.1131,-0.9769,-0.8263,-0.6317,-0.4693,-0.3397,-0.2719,-0.2297,-0.2274,-0.2506,-0.2954,-0.3974,-0.5986,0.0,0.0,-0.9649,-1.0806,-1.116,-0.9792,-0.9366,-0.8537,-0.7277,-0.6669,0.0,0.0,-0.1583,0.038,0.1959,0.4574,0.6837,0.8477,0.7924,0.7263,0.0,0.0,0.0,0.0,0.0,0.0,0.0,0.0,0.0,0.0,0.0,0.0,0.0,0.0,0.0,0.0,0.0,0.0,0.0,0.0,0.0,0.0,-0.8286,-0.9402,-0.9155,-0.9635,-0.9545,-0.8161,-0.6951,-0.5623,-0.4246,-0.234,-0.1341,-0.138,-0.055,-0.0765,-0.2542,-0.4352,-0.5965,-0.7348,-0.8165,-0.8606,-0.9063,-0.6485,-0.6414,-0.9168,-0.93,-0.891,-0.8026,-0.9674,-0.9815,0.0,-0.9056,-0.877,-0.8054,-0.7361,-0.6519,0.0,0.0,0.0,0.0,0.0,0.0,-0.6592,-0.6846,-0.6623,-0.6414,-0.7493,-0.7553,-0.7609,-0.9882,-1.0934,-1.1624,-1.2813,-1.3359,-1.3467,-1.3609,-1.356,-1.2935,-1.1235,-1.0143,-0.8897,-0.6471,-0.4958,-0.3913,-0.3075,0.0,0.0,-0.3068,-0.3217,-0.3942,-0.5557,-0.7553,0.0,0.0,-1.0717,-1.1212,-1.0402,-0.9996,-0.902,-0.7277,0.0,0.0,0.0,0.0,0.0124,0.2723,0.0,0.0,0.0,0.0,0.0,0.0,0.0,0.0,0.0,0.3605,0.3024,0.0,0.0,0.0,0.0,0.0,0.0,0.0,0.0,0.0,0.0,0.0,0.0,0.0,0.0,0.0,0.0,-0.6616,-0.8194,-0.8526,-0.9283,-0.9677,-0.9608,-0.7538,-0.5692,-0.4502,-0.2769,-0.1225,-0.0,0.0,0.0,0.0,0.0,0.0,0.0,0.0,-0.6591,-0.6476,-0.7011,-0.6526,-0.5049,-0.6057,-0.6623,-0.6357,-0.6628,-0.6567,-0.6406,-0.6454,-0.6378,-0.6033,-0.5068,-0.4285,-0.3857,-0.4569,-0.3913,-0.2502,-0.2732,-0.3977,0.0,0.0,0.0,0.0,-0.5981,-0.6196,-0.6693,-0.8774,-0.9845,-1.0833,-1.281,-1.3378,-1.3442,-1.3874,-1.388,-1.302,-1.0741,-1.0114,-0.9179,-0.5981,-0.5057,-0.4438,-0.329,-0.329,-0.3447,-0.3486,-0.3578,-0.3971,-0.5183,-0.7187,0.0,-1.0209,-1.0907,-1.1417,-1.171,0.0,0.0,-0.7285,-0.7098,-0.614,-0.4251,-0.2787,0.012,0.4514,0.6227,0.7615,0.8702,0.8602,0.8036,0.7122,0.692,0.6503,0.5845,0.4827,0.4442,0.0,0.0,0.0,0.0,0.0,0.0,0.0,0.0,0.0,0.0,0.0,0.0,0.0,0.0,0.0,-0.5697,-0.6794,-0.7529,-0.7715,-0.8346,-0.8799,-0.885,-0.8445,-0.7218,-0.4631,-0.3943,-0.2699,-0.018,0.0,0.0,0.0,-0.1837,0.0,-0.2268,-0.2674,-0.3702,-0.557,-0.5096,-0.5262,-0.6259,0.0,0.0,-0.6439,-0.7858,-0.8011,-0.7123,-0.7276,-0.7207,-0.6723,-0.6559,-0.5139,-0.289,-0.1637,-0.1783,-0.2593,-0.2851,-0.3746,-0.4932,-0.5457,-0.5098,-0.4726,-0.567,-0.5951,-0.5903,-0.7608,-0.949,0.0,-1.2204,-1.3042,-1.3854,0.0,-1.4231,-1.3258,-1.118,-1.0601,-0.9848,-0.681,-0.571,-0.5063,-0.444,-0.3861,-0.358,-0.3875,-0.3928,-0.4443,-0.5758,-0.7963,-0.9584,-0.9866,-1.1021,-1.1716,-1.1126,-1.0254,-0.9055,-0.7377,-0.7073,-0.6129,-0.4095,-0.1537,0.1828,0.5827,0.6708,0.753,0.8611,0.887,0.864,0.8057,0.7823,0.7391,0.6971,0.5398,0.4974,0.0,0.0,0.0,0.0,0.0,0.0,0.0,0.0,0.0,0.0,0.0,-0.245,0.0,0.0,-0.551,-0.5349,-0.6385,-0.7088,-0.742,-0.7945,-0.841,-0.8681,-0.8608,-0.7731,-0.5834,-0.4779,-0.3145,-0.0925,-0.0191,-0.0392,-0.1603,-0.266,-0.3099,-0.2474,-0.2478,-0.3099,-0.4337,-0.4477,-0.4857,-0.569,-0.6875,-0.7062,-0.6461,-0.7264,-0.7446,-0.7208,-0.7304,-0.7238,-0.6997,-0.6038,-0.4632,-0.2942,-0.1486,-0.146,-0.2127,-0.2715,-0.326,-0.3771,-0.4152,-0.3953,-0.3734,-0.422,-0.4694,-0.5153,-0.6583,-0.819,-0.9788,-1.1469,-1.2311,-1.2965,-1.4045,-1.3702,-1.2613,-1.1252,-1.0545,-0.9492,-0.7423,-0.6291,-0.5474,-0.4822,-0.4351,-0.4052,-0.4078,-0.4295,-0.4809,-0.5896,-0.8044,-0.9585,-1.0196,-1.1258,-1.1868,-1.1566,-1.072,-0.9513,-0.8085,-0.6949,-0.5411,-0.3267,-0.0518,0.2501,0.6039,0.6993,0.8019,0.8823,0.8889,0.8865,0.861,0.8121,0.7738,0.7335,0.6392,0.6121,0.0,0.0,0.0,0.0,0.0,0.0,0.0,0.0,-0.2103,-0.2123,-0.2423,-0.2764,-0.2875,-0.4291,-0.5301,-0.4668,-0.587,-0.6916,-0.7064,-0.7767,-0.8404,-0.8644,-0.8575,-0.8065,-0.7055,-0.5419,-0.3579,-0.1899,-0.0577,-0.0976,-0.2986,-0.3269,-0.3307,-0.3288,-0.3303,-0.3315,-0.3321,-0.4281,-0.4868,-0.4911,-0.6083,-0.6461,-0.6461,-0.6461,-0.6864,-0.7455,-0.7317,-0.7232,-0.6988,-0.5308,-0.3936,-0.3176,-0.2434,-0.2026,-0.1799,-0.2738,-0.2924,-0.2913,-0.2949,-0.2931,-0.289,-0.2885,-0.3561,-0.4374,-0.5338,-0.6809,-0.842,-1.0596,-1.1284,-1.1797,-1.3014,-1.258,-1.1702,-1.0938,-1.0098,-0.9206,-0.7868,-0.6865,-0.6029,-0.5212,-0.4861,-0.4692,-0.4285,-0.4657,-0.515,-0.5846,-0.7911,-0.9671,-1.0787,-1.1631,-1.2152,-1.2271,-1.1306,-1.007,-0.854,-0.6833,-0.5011,-0.2965,-0.0264,0.2841,0.61,0.736,0.8334,0.9104,0.9109,0.9048,0.9048,0.837,0.7897,0.765,0.7422,0.7204,-0.2743,-0.1991,0.0,-0.0609,-0.0915,-0.1476,0.0,0.0,-0.2196,-0.2343,-0.2965,-0.3468,-0.334,-0.4015,-0.4668,-0.4687,-0.5842,-0.6528,-0.6889,-0.7684,-0.8278,-0.833,-0.8735,-0.8527,-0.7691,-0.6565,-0.5071,-0.3007,-0.1148,-0.0976,-0.2986,-0.325,-0.3294,-0.3315,-0.3294,-0.3294,-0.3321,-0.4281,-0.4868,-0.4911,-0.6083,-0.6461,-0.6461,-0.6461,-0.7065,-0.8058,-0.7912,-0.7732,-0.7353,-0.5265,-0.4275,-0.3662,-0.314,-0.2745,-0.2703,-0.2966,-0.2946,-0.2886,-0.2942,-0.2957,-0.2947,-0.292,-0.3634,-0.433,-0.4376,-0.6058,-0.824,-0.882,-0.9795,-1.0787,-1.1464,-1.1335,-1.0618,-1.0153,-1.0008,-0.9521,-0.8184,-0.7473,-0.6927,-0.6103,-0.5487,-0.517,-0.4681,-0.4815,-0.5231,-0.5992,-0.8361,-1.028,-1.1201,-1.2615,-1.3195,-1.2436,-1.1524,-1.0022,-0.7495,-0.6696,-0.5679,-0.4327,-0.1219,0.2689,0.7355,0.766,0.8163,0.925,0.9377,0.944,0.944,0.8728,0.8272,0.8083,0.7769,0.7293,-0.3532,0.0,0.0,0.0,-0.1106,-0.1458,-0.2446,-0.2503,-0.2322,-0.2536,-0.2957,-0.3187,-0.307,-0.4028,-0.4811,0.0,-0.5434,-0.6293,-0.6749,-0.736,-0.7946,-0.7931,-0.8542,-0.8747,-0.8142,-0.7191,-0.5679,-0.3788,-0.1919,-0.1558,-0.316,-0.322,-0.3258,-0.3269,-0.3273,-0.3273,-0.3268,-0.4054,-0.4451,-0.4874,-0.5664,-0.6259,-0.6461,-0.6461,-0.7023,-0.7933,-0.8217,-0.806,-0.7316,-0.5598,-0.4632,-0.4046,-0.3305,-0.292,-0.2905,-0.296,-0.2957,-0.2931,-0.2973,-0.3175,-0.3547,-0.3345,-0.4065,-0.4764,-0.4673,-0.6044,-0.7739,-0.8215,-0.9059,-0.9902,-1.0756,-1.0313,-0.975,-1.0073,-0.9545,-0.9012,-0.8655,-0.7898,-0.7169,-0.6229,-0.5732,-0.5233,-0.4875,-0.4839,-0.5077,-0.5651,-0.8189,-1.0308,-1.1244,-1.2951,-1.3707,-1.2567,-1.1484,-1.0031,-0.7915,-0.7497,-0.6616,-0.4726,-0.1423,0.2533,0.7057,0.7513,0.8183,0.933,0.9596,0.9658,0.9658,0.8387,0.7961,0.8543,0.7017,0.6578,-0.3907,0.0,0.0,-0.1693,-0.1308,-0.1414,-0.2652,-0.2675,-0.2442,-0.2671,-0.2739,-0.277,-0.2808,-0.3768,0.0,-0.4167,-0.5189,-0.6036,-0.6412,-0.7018,-0.7396,-0.749,-0.8255,-0.8665,-0.8496,-0.7592,-0.6476,-0.4764,-0.2886,-0.2329,-0.3129,-0.3187,-0.3221,-0.3221,-0.3249,-0.3253,-0.3231,-0.3635,-0.4242,-0.4847,-0.545,-0.6055,-0.6461,-0.6846,-0.7175,-0.7844,-0.8346,-0.8014,-0.7283,-0.5752,-0.4797,-0.422,-0.3277,-0.2904,-0.2906,-0.293,-0.3126,-0.3139,-0.3181,-0.3571,-0.3948,-0.3959,-0.4506,-0.5211,-0.5144,-0.5993,-0.6984,-0.766,-0.8348,-0.8874,-0.9563,-0.9145,-0.8926,-0.9577,-0.9031,-0.8495,-0.8814,-0.8203,-0.7301,-0.6354,-0.5999,-0.5474,-0.4943,-0.488,-0.5094,-0.5486,-0.803,-1.0153,-1.0934,-1.2916,-1.3815,-1.2594,-1.1632,-1.0224,-0.8529,-0.8085,-0.6904,-0.4736,-0.1609,0.2022,0.5976,0.699,0.7966,0.9291,0.959,0.9516,0.9216,0.8186,0.788,0.8145,0.6728,0.648,0.0,0.0,-0.2472,-0.1544,-0.1108,-0.1192,-0.243,-0.2638,-0.2662,-0.2761,-0.2735,-0.2722,-0.2811,-0.3388,-0.3796,-0.3687,-0.5078,-0.5905,-0.5337,-0.6291,-0.7002,-0.7422,-0.7706,-0.8236,0.0,-0.8098,-0.7239,-0.6098,-0.423,-0.3096,-0.3099,-0.3156,-0.319,-0.319,-0.3217,-0.3231,-0.323,-0.3635,-0.4242,-0.4847,-0.545,-0.6055,-0.6461,-0.7399,-0.7922,-0.7844,-0.8346,-0.8171,-0.7214,-0.5734,-0.4755,-0.4132,-0.3234,-0.2875,-0.2875,-0.2876,-0.3256,-0.3658,-0.3733,-0.4134,-0.4514,-0.4559,-0.4954,-0.5316,-0.5211,-0.5875,-0.6497,-0.6745,-0.712,-0.7524,-0.7848,-0.7799,-0.7961,-0.828,-0.8442,-0.8437,-0.8437,-0.8358,-0.794,-0.6598,-0.6268,-0.591,-0.5016,-0.494,-0.5153,-0.5556,-0.777,-0.9698,-1.0469,-1.2671,-1.365,-1.2436,-1.2149,-1.1314,-0.9216,-0.8304,-0.6723,-0.4083,-0.1892,0.0863,0.435,0.5747,0.728,0.8734,0.9398,0.906,0.7849,0.8574,0.8057,0.642,0.7152,0.7405,0.0,0.0,-0.2386,-0.1295,-0.1547,-0.1978,-0.1038,-0.1574,-0.2284,-0.2684,-0.2841,-0.281,-0.28,-0.3017,-0.3419,-0.3986,-0.5039,-0.5733,-0.5961,-0.658,-0.6911,-0.6873,-0.7645,0.0,0.0,0.0,0.0,-0.6657,-0.4938,-0.3626,-0.3095,-0.3135,-0.3167,-0.3187,-0.3216,-0.323,-0.323,-0.3433,-0.3836,-0.4847,-0.5856,-0.6439,-0.6997,-0.7524,-0.804,-0.8346,-0.8649,-0.8312,-0.7395,-0.6472,-0.5483,-0.4307,-0.359,-0.3231,-0.2874,-0.2874,-0.3239,-0.3619,-0.3696,-0.4297,-0.4892,-0.513,-0.5316,-0.5847,-0.5808,-0.6095,-0.6528,-0.657,-0.6795,-0.7191,-0.7592,-0.752,-0.7643,-0.8471,-0.8588,-0.8539,-0.8539,-0.8464,-0.8063,-0.6748,-0.6424,-0.6072,-0.5193,-0.5087,-0.5774,-0.7656,-0.914,-1.0934,-1.3259,-1.3984,-1.3953,-1.2874,-1.2525,-1.1581,-0.9439,-0.8449,-0.6831,-0.4178,-0.1924,0.0877,0.4459,0.589,0.7459,0.8948,0.8784,0.8462,0.7989,0.6982,0.6055,0.5399,0.4628,0.5434,0.0,-0.3608,-0.2581,-0.1717,-0.1657,-0.1565,-0.0362,-0.091,-0.1997,-0.2722,-0.2853,-0.2793,-0.2744,-0.2911,-0.3288,-0.4087,-0.4775,-0.548,-0.5787,-0.6395,-0.6705,-0.6835,-0.7418,0.0,0.0,0.0,0.0,-0.6807,-0.5651,-0.4541,-0.3078,-0.3304,-0.3336,-0.3171,-0.32,-0.322,-0.323,-0.323,-0.383,-0.4823,-0.6027,-0.6595,-0.7123,-0.7645,-0.7973,-0.8499,-0.8992,-0.8477,-0.7579,-0.7026,-0.6033,-0.4666,-0.3947,-0.3411,-0.3053,-0.2874,-0.3231,-0.3597,-0.3845,-0.4447,-0.5242,-0.5483,-0.5667,-0.6014,-0.6014,-0.6111,-0.6181,-0.6299,-0.6536,-0.6759,-0.7369,-0.7458,-0.7562,-0.8236,-0.8518,-0.8475,-0.8475,-0.8427,-0.788,-0.671,-0.654,-0.6185,-0.5285,-0.5145,-0.5972,-0.8701,-0.9729,-1.1384,-1.4376,-1.4844,-1.4524,-1.312,-1.297,-1.2168,-1.0247,-0.9266,-0.777,-0.5477,-0.347,-0.0447,0.3667,0.568,0.7101,0.8154,0.8145,0.7815,0.6861,0.5978,0.4859,0.3697,0.2252,0.2726,-0.4904,-0.4085,-0.3158,-0.2639,-0.1201,-0.0,-0.0,-0.0747,-0.1657,-0.2522,-0.2769,-0.2669,0.0,0.0,-0.3538,-0.3648,-0.4487,-0.5364,-0.5392,-0.5764,-0.6424,0.0,0.0,0.0,0.0,0.0,0.0,-0.6933,0.0,-0.5656,-0.3431,-0.3657,-0.3692,-0.3336,-0.317,-0.3198,-0.3225,-0.3227,-0.3817,-0.478,-0.5973,-0.6533,-0.7052,-0.7572,-0.7924,-0.8491,-0.8984,-0.8661,-0.8136,-0.7207,-0.6395,-0.5562,-0.4126,-0.3588,-0.359,-0.3053,-0.3231,-0.3593,-0.4175,-0.477,-0.5189,-0.5805,-0.6014,-0.6014,-0.6011,-0.5927,-0.582,-0.6299,-0.6189,-0.6419,-0.7206,-0.7465,-0.7566,-0.8064,-0.806,-0.806,-0.806,-0.806,-0.7873,-0.6797,-0.6615,-0.624,-0.5302,-0.5117,-0.6072,-0.8622,-0.9342,-1.085,-1.3742,-1.5345,-1.5337,-1.3262,-1.3422,-1.3047,-1.1634,-1.0467,-0.9104,-0.7552,-0.6155,-0.3045,0.2079,0.4807,0.6355,0.6661,0.7525,0.6868,0.4478,0.5671,0.4562,0.1304,0.0326,0.0,-0.5537,-0.4725,-0.3897,-0.2898,-0.1952,-0.0917,-0.0187,-0.0187,-0.0734,-0.2297,-0.2486,-0.2488,0.0,0.0,0.0,-0.3907,-0.4737,0.0,-0.6029,-0.6284,0.0,0.0,0.0,-0.781,-0.8541,-0.8762,0.0,0.0,-0.7084,-0.6173,-0.5332,-0.4424,-0.3873,-0.3689,-0.3334,-0.3157,-0.3165,-0.3984,-0.4591,-0.478,-0.5973,-0.671,-0.6988,-0.7549,-0.7893,-0.8405,-0.8892,-0.8792,-0.8132,-0.7885,-0.6896,-0.5562,-0.4843,-0.4305,-0.359,-0.3053,-0.3053,-0.3233,-0.36,-0.4195,-0.4636,-0.5244,-0.5448,-0.5441,-0.5773,-0.5894,-0.582,-0.5937,-0.5864,-0.5963,-0.6765,-0.7035,-0.7131,-0.7909,-0.806,-0.806,-0.806,-0.806,-0.7889,-0.6871,-0.6155,-0.5613,-0.5254,-0.521,-0.6162,-0.882,-0.9667,-1.0952,-1.3764,-1.5026,-1.5194,-1.4069,-1.3749,-1.3207,-1.195,-1.0627,-0.9104,-0.7552,-0.6206,-0.3224,0.1633,0.3635,0.5211,0.6594,0.5877,0.5199,0.4424,0.398,0.2836,0.1334,0.0331,0.0,-0.608,-0.5477,-0.4736,-0.3498,-0.2693,-0.1644,-0.0366,0.0,-0.0356,-0.1489,-0.2028,0.0,0.0,0.0,0.0,0.0,0.0,0.0,-0.6234,-0.6286,-0.6632,0.0,-0.7589,0.0,-0.8573,-0.8815,-0.8724,0.0,-0.7656,-0.6746,-0.6093,-0.5174,-0.4237,-0.3868,-0.3696,-0.3324,-0.3142,-0.4145,-0.4739,-0.472,-0.5899,-0.6632,-0.692,-0.7304,-0.7643,-0.7946,0.0,-0.8377,-0.8079,-0.8031,-0.7422,-0.6279,-0.5559,-0.4664,-0.3769,-0.3411,-0.3053,-0.2874,-0.3231,-0.3458,-0.3891,-0.4659,-0.5055,-0.5251,-0.5569,-0.5697,-0.582,-0.5758,-0.6231,-0.6689,-0.6792,-0.7406,-0.7831,-0.8085,-0.806,-0.806,-0.806,-0.806,-0.7897,-0.6895,-0.6001,-0.5286,-0.5259,-0.5226,-0.6175,-0.8774,-0.946,-1.0762,-1.3756,-1.4999,-1.5255,-1.4607,-1.3951,-1.324,-1.2295,-1.1115,-0.9895,-0.8141,-0.7393,-0.4668,0.0754,0.3055,0.4789,0.5593,0.4963,0.425,0.3638,0.3012,0.2182,0.1336,0.0332,0.0,-0.6612,-0.6189,-0.5354,-0.4087,-0.3399,-0.2499,-0.0531,-0.0175,-0.0169,-0.0606,0.0,0.0,-0.1992,0.0,-0.3213,-0.394,0.0,-0.5429,-0.6218,-0.6226,-0.6557,-0.7275,-0.7572,-0.7842,-0.862,-0.8848,-0.8926,-0.902,-0.8076,-0.7165,-0.6286,-0.5718,-0.4976,-0.3861,-0.3861,-0.3686,-0.3137,-0.4115,-0.4682,-0.4643,-0.5609,-0.635,-0.6862,-0.6862,-0.7014,-0.7507,0.0,0.0,-0.8008,-0.8001,-0.7772,-0.7173,-0.6279,-0.5204,-0.4487,-0.3769,-0.3411,-0.3053,-0.2874,-0.2909,-0.3142,-0.4071,-0.4664,-0.5071,-0.5199,-0.5516,-0.5647,-0.576,-0.6589,-0.7406,-0.6983,-0.7772,-0.8548,-0.8105,-0.8081,-0.8076,-0.8064,-0.806,-0.7729,-0.6895,-0.6001,-0.5278,-0.5224,-0.5207,-0.5991,-0.8322,-0.9031,-1.0222,-1.345,-1.4652,-1.5147,-1.4818,-1.3988,-1.3104,-1.2631,-1.1788,-1.0721,-0.8926,-0.9263,-0.6791,-0.0615,0.2776,0.4507,0.4081,0.4177,0.376,0.2647,0.2677,0.2179,0.1331,0.0166,-0.0333,-0.7793,-0.7003,-0.5949,-0.4753,-0.3701,-0.2469,-0.1413,-0.0673,0.0,0.0,0.0,-0.1693,-0.1843,-0.2558,0.0,-0.3827,0.0,0.0,0.0,0.0,-0.6395,0.0,0.0,0.0,0.0,0.0,0.0,0.0,0.0,0.0,-0.7426,-0.6479,-0.5342,-0.3825,-0.3825,-0.365,-0.3106,-0.4074,-0.4651,-0.4643,-0.5609,-0.6155,-0.6288,-0.6672,-0.6825,-0.6945,0.0,0.0,-0.8005,-0.8301,-0.8262,-0.7706,-0.6812,-0.5918,-0.5383,-0.4126,-0.359,-0.3411,-0.3053,-0.2896,-0.2928,-0.3692,-0.3938,-0.4172,-0.5025,-0.5175,-0.533,-0.5591,-0.5912,-0.6068,-0.6356,-0.6855,-0.7334,-0.7533,-0.7835,-0.8154,-0.8081,-0.7562,-0.6895,-0.6727,-0.6001,-0.5289,-0.5281,-0.5237,-0.5686,-0.7286,-0.849,-1.0024,-1.2144,-1.3549,-1.4639,-1.5281,-1.3989,-1.2956,-1.2807,-1.1751,-1.0594,-0.8983,-1.0429,-0.8459,-0.2462,0.1711,0.3605,0.2668,0.2892,0.278,0.2647,0.2677,0.2196,0.1191,-0.1191,-0.2394,-0.8215,-0.7724,-0.6819,-0.5565,-0.4391,-0.3237,-0.2308,0.0,0.0,0.0,0.0,-0.0882,-0.1254,0.0,0.0,0.0,0.0,0.0,0.0,0.0,0.0,0.0,0.0,0.0,0.0,0.0,0.0,0.0,0.0,0.0,-0.7989,-0.6859,-0.5718,-0.4956,-0.4577,-0.4015,-0.3841,-0.4608,-0.4992,-0.4992,-0.5759,-0.6125,-0.6098,-0.6288,-0.6429,-0.6337,0.0,0.0,0.0,-0.8379,-0.8561,-0.8012,-0.7425,-0.669,-0.5785,-0.5034,-0.4305,-0.3588,-0.3411,-0.3072,-0.2921,-0.332,-0.3553,-0.3968,-0.4676,-0.5016,-0.5349,-0.5631,-0.6302,-0.6783,-0.668,-0.7381,-0.807,-0.7902,-0.8029,-0.8174,-0.8081,-0.7394,-0.6727,-0.6727,-0.6028,-0.533,-0.53,-0.527,-0.5727,-0.6989,-0.831,-0.98,-1.1589,-1.3143,-1.4426,-1.516,-1.4355,-1.3486,-1.2847,-1.2068,-1.0941,-0.975,-1.018,-0.8362,-0.3762,-0.0941,0.1102,0.2059,0.2432,0.2641,0.2671,0.2717,0.2232,0.1208,-0.1736,-0.2968,-0.8669,-0.8312,-0.753,-0.623,-0.4908,-0.3789,-0.2925,-0.1147,0.0,0.0,0.0,-0.0102,0.0,0.0,0.0,0.0,0.0,0.0,0.0,0.0,0.0,0.0,0.0,0.0,0.0,0.0,0.0,0.0,0.0,0.0,0.0,-0.704,-0.6283,-0.6079,-0.533,-0.4761,-0.4561,-0.5142,-0.5344,-0.5547,-0.5926,-0.6123,-0.6328,-0.6136,-0.6079,-0.5981,0.0,0.0,0.0,-0.8301,-0.8504,-0.8312,-0.8042,-0.7286,-0.6371,-0.5943,-0.5022,-0.3947,-0.3769,-0.3428,-0.3094,-0.3134,-0.3355,-0.3757,-0.4123,-0.4655,-0.5168,-0.5467,-0.6494,-0.7314,-0.6832,-0.7713,-0.8594,-0.8264,-0.8228,-0.8203,-0.8113,-0.7421,-0.6751,-0.6751,-0.6078,-0.539,-0.5341,-0.5333,-0.5636,-0.6537,-0.8156,-0.9622,-1.0895,-1.3017,-1.4532,-1.4962,-1.4577,-1.3997,-1.2901,-1.2223,-1.1277,-1.0351,-0.9895,-0.8245,-0.528,-0.3642,-0.1425,0.1282,0.2133,0.2669,0.2692,0.2754,0.2266,0.1226,-0.141,-0.2836,-0.9516,-0.893,-0.7624,-0.6244,-0.4696,-0.3415,-0.2764,0.0,0.0,0.0,0.0798,0.0185,-0.0485,0.0,0.0,0.0,0.0,0.0,0.0,0.0,0.0,0.0,0.0,0.0,0.0,0.0,0.0,0.0,0.0,0.0,0.0,-0.7774,-0.7021,-0.6016,-0.6068,-0.5503,-0.4514,-0.5124,-0.5554,-0.618,-0.618,-0.6401,-0.704,-0.6457,-0.6226,-0.6161,0.0,0.0,0.0,-0.7977,-0.8504,-0.8864,-0.8224,-0.8012,-0.7638,-0.6302,-0.5562,-0.5383,-0.4487,-0.3951,-0.3605,-0.3679,-0.3355,-0.3189,-0.3718,-0.4076,-0.461,-0.4878,-0.5386,-0.5904,-0.6192,-0.6702,-0.7388,-0.8173,-0.8321,-0.8297,-0.8207,-0.7503,-0.6823,-0.6823,-0.6145,-0.5466,-0.5461,-0.5458,-0.542,-0.5468,-0.7651,-0.9331,-0.9559,-1.2598,-1.4624,-1.4497,-1.4206,-1.3698,-1.2896,-1.2084,-1.1148,-1.0226,-1.0335,-0.9416,-0.7132,-0.4811,-0.2724,-0.0487,0.1494,0.269,0.2692,0.2754,0.2284,0.1253,-0.071,-0.2143,-0.9802,-0.9144,-0.8293,-0.6879,-0.5348,-0.3931,-0.3529,0.0,-0.0112,0.1116,0.1202,0.0705,-0.0094,-0.0872,0.0,0.0,0.0,0.0,0.0,0.0,0.0,0.0,0.0,0.0,0.0,0.0,0.0,0.0,0.0,0.0,0.0,-0.8263,-0.7729,-0.6945,-0.6636,-0.626,-0.5448,-0.5882,-0.6303,-0.6711,-0.6942,-0.7147,-0.6945,-0.683,-0.6615,0.0,0.0,0.0,0.0,-0.7921,-0.8469,-0.8641,-0.8504,-0.8453,-0.8072,-0.7038,-0.6279,-0.5562,-0.5022,-0.4487,-0.3958,-0.3651,-0.3509,-0.3543,-0.376,-0.4129,-0.4475,-0.4993,-0.5511,-0.6019,-0.6677,-0.7342,-0.7998,-0.8265,-0.8415,-0.8391,-0.8301,-0.7552,-0.6846,-0.6891,-0.6182,-0.5485,-0.5521,-0.5526,-0.551,-0.5461,-0.7855,-0.9564,-0.9521,-1.2433,-1.4652,-1.4929,-1.5023,-1.4434,-1.315,-1.2807,-1.2086,-1.0634,-1.0517,-0.9511,-0.7458,-0.6066,-0.3909,-0.0813,0.1507,0.272,0.272,0.2818,0.233,0.1257,-0.0547,-0.2013,-0.993,-0.9403,-0.8665,-0.7652,-0.6043,-0.4525,0.0,0.0,-0.0323,0.0761,0.1228,0.1104,0.027,-0.0462,-0.1255,0.0,0.0,0.0,0.0,0.0,0.0,0.0,0.0,0.0,0.0,0.0,0.0,0.0,0.0,0.0,0.0,0.0,-0.801,-0.7473,-0.7171,-0.6792,-0.5959,-0.6621,-0.7052,-0.7052,-0.7506,-0.7718,-0.7307,-0.7213,-0.6815,0.0,0.0,0.0,0.0,-0.782,-0.8174,-0.833,-0.8744,-0.8672,-0.827,-0.7606,-0.6832,-0.6102,-0.5581,-0.5036,-0.4493,-0.4177,-0.3846,-0.3699,-0.3776,-0.4157,-0.4504,-0.4868,-0.5569,-0.6433,-0.7091,-0.7933,-0.8587,-0.8493,-0.8493,-0.8493,-0.8428,-0.7668,-0.6955,-0.7034,-0.6292,-0.5567,-0.5605,-0.56,-0.5581,-0.5561,-0.7803,-0.952,-0.9659,-1.2399,-1.4458,-1.5145,-1.5498,-1.528,-1.3795,-1.3569,-1.2856,-1.147,-1.0768,-0.9724,-0.7835,-0.6871,-0.4806,-0.132,0.1017,0.2407,0.2751,0.2864,0.2366,0.1269,-0.0556,-0.2042,-1.0094,-0.9496,-0.8688,-0.8324,-0.6828,-0.515,0.0,-0.211,-0.0849,0.019,0.0866,0.1156,0.0518,0.0089,-0.0277,-0.0899,0.0,0.0,0.0,0.0,0.0,0.0,0.0,0.0,0.0,0.0,0.0,0.0,0.0,0.0,0.0,0.0,-0.8228,-0.7391,-0.747,-0.6882,-0.5834,-0.6574,-0.7242,-0.7623,-0.7698,-0.7966,-0.8626,-0.7449,0.0,0.0,0.0,0.0,0.0,-0.7462,-0.7767,-0.8255,-0.8724,-0.8815,-0.8553,-0.819,-0.7599,-0.7184,-0.6715,-0.5968,-0.5029,-0.5084,-0.4373,-0.366,-0.3737,-0.4134,-0.4498,-0.4457,-0.588,-0.7272,-0.7194,-0.7892,-0.8587,-0.8493,-0.8542,-0.8607,-0.8603,-0.7889,-0.7194,-0.7269,-0.65,-0.5739,-0.5739,-0.5689,-0.563,-0.557,-0.7457,-0.9153,-0.9394,-1.192,-1.395,-1.4974,-1.5478,-1.547,-1.5134,-1.4119,-1.3336,-1.2454,-1.1493,-1.0164,-0.8623,-0.6833,-0.5064,-0.2903,-0.0346,0.1565,0.2782,0.2875,0.2384,0.1296,-0.0556,-0.2037,-0.9244,-0.922,-0.8847,-0.7729,-0.663,-0.5471,-0.4102,-0.2588,-0.1143,0.0091,0.0839,0.1128,0.0507,0.0086,-0.0631,-0.2258,0.0,0.0,0.0,0.0,0.0,0.0,0.0,0.0,0.0,0.0,0.0,0.0,0.0,0.0,0.0,0.0,-0.8046,-0.7391,-0.7466,-0.6901,-0.5894,-0.6782,-0.7429,-0.7623,-0.8469,-0.8714,-0.8544,0.0,0.0,0.0,0.0,0.0,0.0,-0.6838,-0.7343,-0.7684,-0.8106,-0.8395,-0.8553,-0.8194,-0.7599,-0.719,-0.7134,-0.6368,-0.557,-0.5631,-0.5127,-0.461,-0.3898,-0.3925,-0.4136,-0.4907,-0.603,-0.7116,-0.7177,-0.7695,-0.8387,-0.8599,-0.8587,-0.8607,-0.8607,-0.8067,-0.7552,-0.7272,-0.6684,-0.6111,-0.5796,-0.5752,-0.5706,-0.5687,-0.7095,-0.8673,-0.9698,-1.1445,-1.3197,-1.4771,-1.5473,-1.5602,-1.5309,-1.4442,-1.3507,-1.2863,-1.1874,-1.061,-0.926,-0.7306,-0.5485,-0.3591,-0.0515,0.1553,0.2784,0.2875,0.1847,-0.0189,-0.1876,-0.2827,0.0,-0.8885,-0.8731,-0.7723,-0.6571,-0.5494,-0.4305,-0.2965,-0.163,-0.0447,0.0577,0.1192,0.0826,0.0335,-0.0699,-0.2533,0.0,0.0,0.0,0.0,0.0,0.0,0.0,0.0,0.0,0.0,0.0,0.0,0.0,0.0,0.0,0.0,-0.8035,-0.735,-0.7214,-0.6663,-0.5888,-0.6942,-0.7578,-0.7578,-0.858,-0.9004,-0.8649,0.0,0.0,0.0,0.0,0.0,0.0,-0.6579,-0.6892,-0.7227,-0.7685,-0.819,-0.8375,-0.841,-0.7842,-0.7269,-0.7361,-0.6583,-0.5777,-0.5793,-0.5488,-0.4995,-0.4073,-0.3925,-0.4352,-0.514,-0.6101,-0.7027,-0.7287,-0.7813,-0.8139,-0.8517,-0.8656,-0.8656,-0.8656,-0.832,-0.7816,-0.7685,-0.7131,-0.6568,-0.6195,-0.5798,-0.5769,-0.5744,-0.6812,-0.8226,-0.9787,-1.102,-1.2614,-1.4731,-1.5264,-1.5418,-1.5722,-1.4674,-1.3899,-1.3592,-1.2235,-1.0916,-0.9487,-0.7716,-0.5871,-0.3932,-0.1202,0.1212,0.28,0.2904,0.1493,-0.1144,-0.2474,-0.3061,0.0,-0.855,-0.8321,-0.7954,-0.6833,-0.5481,-0.4221,-0.3131,0.0,-0.1332,0.0082,0.1189,0.0,0.0,0.0,0.0,0.0,0.0,0.0,0.0,0.0,0.0,0.0,0.0,0.0,0.0,0.0,0.0,0.0,0.0,0.0,0.0,0.0,-0.7279,-0.6731,-0.6189,-0.5831,-0.6876,-0.7507,-0.7507,-0.8442,-0.9056,-0.9142,0.0,0.0,0.0,0.0,0.0,0.0,-0.6678,-0.6614,-0.6556,-0.7642,-0.8001,-0.8012,-0.8652,-0.8312,-0.7388,-0.7405,-0.6807,-0.5828,-0.5771,-0.5462,-0.4993,-0.4074,-0.4132,-0.4766,-0.5149,-0.5911,-0.6847,-0.734,-0.7885,-0.8218,-0.8604,-0.8738,-0.8734,-0.8734,-0.8438,-0.8128,-0.8128,-0.7446,-0.6892,-0.6577,-0.6195,-0.5812,-0.5755,-0.6649,-0.7874,-0.9554,-1.0595,-1.1998,-1.4451,-1.4807,-1.5206,-1.6233,-1.5175,-1.4346,-1.4502,-1.2592,-1.0921,-0.95,-0.7903,-0.6225,-0.4284,-0.1905,0.035,0.2658,0.2581,0.1322,-0.1337,-0.2503,-0.3096,-0.763,0.0,-0.7568,-0.6975,-0.6392,-0.5492,0.0,0.0,0.0,0.0,0.0,0.0,0.0,0.0,0.0,0.0,0.0,0.0,0.0,0.0,0.0,0.0,0.0,0.0,0.0,0.0,0.0,0.0,0.0,0.0,0.0,0.0,0.0,-0.7204,-0.6838,-0.6323,-0.5831,-0.6876,-0.7507,-0.7507,-0.8442,-0.9056,-0.9138,0.0,0.0,0.0,0.0,0.0,0.0,-0.6244,-0.6207,-0.6549,-0.7221,-0.756,-0.7933,-0.8628,-0.8278,-0.7337,-0.7881,-0.7107,-0.5899,-0.5886,-0.55,-0.5134,-0.4845,-0.4721,-0.4575,-0.4766,-0.5149,-0.5897,-0.7152,-0.7507,-0.7856,-0.868,-0.8787,-0.8734,-0.8734,-0.8569,-0.8402,-0.8042,-0.7874,-0.7509,-0.7111,-0.7104,-0.6734,-0.6353,-0.6577,-0.7699,-0.9858,-1.033,-1.1362,-1.4229,-1.4942,-1.5141,-1.5527,-1.5063,-1.4708,-1.4502,-1.3305,-1.1849,-1.0149,-0.8172,-0.6495,-0.5258,-0.1933,0.0355,0.163,0.0922,0.0377,-0.0386,-0.2302,-0.3088,-0.7308,-0.74,-0.7259,-0.7006,-0.6343,-0.562,0.0,0.0,0.0,0.0,0.0,0.0,0.0,0.0,0.0,0.0,0.0,0.0,0.0,0.0,0.0,0.0,0.0,0.0,0.0,0.0,0.0,0.0,0.0,0.0,0.0,0.0,0.0,0.0,-0.6812,-0.6308,-0.5831,-0.6629,-0.7237,-0.7452,-0.8162,-0.8744,-0.9011,0.0,0.0,0.0,0.0,0.0,-0.6744,-0.6314,-0.6126,-0.6146,-0.7011,-0.7373,-0.7779,-0.8636,-0.8316,-0.7778,-0.7899,-0.712,-0.5924,-0.5924,-0.5715,-0.5516,-0.5206,-0.5073,-0.4927,-0.4952,-0.5149,-0.5522,-0.6816,-0.737,-0.7729,-0.8397,-0.868,-0.8787,-0.8742,-0.8766,-0.8783,-0.8379,-0.8285,-0.8143,-0.7667,-0.7495,-0.7313,-0.688,-0.6778,-0.7367,-0.9658,-0.9703,-1.0816,-1.419,-1.4723,-1.5104,-1.534,-1.5262,-1.4889,-1.4249,-1.3456,-1.2164,-1.0192,-0.8242,-0.6027,-0.3709,-0.1249,0.0181,0.0735,0.0186,-0.0,-0.0192,-0.2113,-0.3091,-0.7231,-0.734,-0.7243,-0.7237,-0.6469,-0.5565,0.0,0.0,0.0,0.0,0.0,0.0,0.0,0.0,0.0,0.0,0.0,0.0,0.0,0.0,0.0,0.0,0.0,0.0,0.0,0.0,0.0,0.0,0.0,0.0,0.0,0.0,0.0,0.0,-0.7136,-0.6458,-0.5804,-0.6365,-0.6948,-0.7378,-0.786,-0.8228,-0.8848,0.0,0.0,0.0,0.0,0.0,-0.7136,-0.6555,-0.6039,-0.5906,-0.6812,-0.7214,-0.7464,-0.8465,-0.8551,-0.8057,-0.7517,-0.673,-0.5937,-0.5937,-0.5929,-0.5739,-0.5377,-0.5225,-0.527,-0.5323,-0.5339,-0.553,-0.6672,-0.7242,-0.7795,-0.8105,-0.8586,-0.8869,-0.8775,-0.8803,-0.8832,-0.8766,-0.8567,-0.8469,-0.8282,-0.7951,-0.7589,-0.746,-0.7184,-0.7582,-0.9622,-0.9215,-1.0387,-1.4282,-1.4618,-1.4826,-1.5279,-1.5336,-1.4991,-1.4434,-1.3663,-1.2306,-0.9853,-0.7945,-0.5191,-0.1424,-0.0362,0.0,0.0,0.0,-0.0,-0.0191,-0.2121,-0.2906,-0.7133,-0.7217,-0.7137,-0.6771,-0.6196,-0.5378,0.0,0.0,0.0,0.0,0.0,0.0,0.0,0.0,0.0,0.0,0.0,0.0,0.0,0.0,0.0,0.0,0.0,0.0,0.0,0.0,0.0,0.0,0.0,0.0,0.0,0.0,0.0,0.0,0.0,-0.737,-0.6213,-0.65,-0.6925,-0.7303,-0.7838,-0.8197,-0.875,-0.8668,0.0,0.0,0.0,0.0,-0.7512,-0.6689,-0.6189,-0.6204,-0.6971,-0.718,-0.7387,-0.8446,-0.8512,-0.7992,-0.7184,-0.6615,-0.6,-0.6,-0.5965,-0.5932,-0.5797,-0.5628,-0.527,-0.5892,-0.572,-0.553,-0.6672,-0.7242,-0.7806,-0.8174,-0.8673,-0.8962,-0.8869,-0.8799,-0.8775,-0.8836,-0.8885,-0.876,-0.8872,-0.8968,-0.8825,-0.8413,-0.8237,-0.9008,-1.0877,-1.0352,-1.0986,-1.4467,-1.476,-1.4726,-1.474,-1.5156,-1.5487,-1.586,-1.4691,-1.2158,-0.7918,-0.6574,-0.4559,-0.1471,-0.0549,0.0,0.0,0.0,-0.038,-0.1352,-0.1741,-0.2333,-0.7119,-0.7292,-0.7221,-0.6746,-0.6306,0.0,0.0,0.0,0.0,0.0,0.0,0.0,0.0,0.0,0.0,0.0,0.0,0.0,0.0,0.0,0.0,0.0,0.0,0.0,0.0,0.0,0.0,0.0,0.0,0.0,0.0,0.0,0.0,0.0,0.0,0.0,-0.6996,-0.6892,-0.6945,-0.7167,-0.7743,-0.8098,-0.8591,-0.8603,-0.8558,0.0,0.0,-0.8197,-0.7649,-0.7512,-0.7027,-0.6366,-0.6968,-0.7201,-0.7436,-0.8508,-0.8416,-0.7715,-0.7409,-0.6651,-0.606,-0.606,-0.6019,-0.5978,-0.6006,-0.5826,-0.5641,-0.6044,-0.5697,-0.553,-0.6291,-0.6862,-0.7433,-0.7809,-0.8319,-0.8622,-0.8954,-0.8913,-0.8893,-0.8938,-0.9024,-0.9101,-0.9138,-0.922,-0.9265,-0.8829,-0.8707,-0.9285,-1.1013,-1.1207,-1.2145,-1.4865,-1.5004,-1.4977,-1.4977,-1.5106,-1.5181,-1.5174,-1.4113,-1.1774,-0.8006,-0.6641,-0.4404,-0.1468,-0.0548,0.0,0.0,0.0,-0.0189,-0.076,-0.1914,-0.271,-0.6898,-0.7073,0.0,0.0,0.0,0.0,0.0,0.0,0.0,0.0,0.0,0.0,0.0,0.0,0.0,0.0,0.0,0.0,0.0,0.0,0.0,0.0,0.0,0.0,0.0,0.0,0.0,0.0,0.0,0.0,0.0,0.0,0.0,0.0,0.0,0.0,-0.778,-0.7417,-0.7288,-0.7209,-0.7622,-0.7975,-0.8444,-0.8534,-0.8526,-0.8436,-0.8883,-0.8667,-0.796,-0.8129,-0.766,-0.6868,-0.7119,-0.7394,-0.7695,-0.8764,-0.8496,-0.7809,-0.7619,-0.7049,-0.6288,-0.6098,-0.6068,-0.603,-0.6016,-0.6014,-0.6014,-0.6014,-0.5669,-0.5515,-0.5905,-0.6482,-0.7052,-0.7429,-0.7956,-0.8469,-0.8824,-0.9007,-0.9016,-0.9036,-0.9171,-0.9273,-0.9052,-0.912,-0.9156,-0.9088,-0.8783,-0.916,-1.0829,-1.1678,-1.306,-1.5006,-1.5181,-1.5181,-1.5181,-1.5181,-1.5181,-1.4986,-1.3481,-1.1741,-0.9224,-0.7659,-0.5184,-0.1834,-0.0551,0.0,0.0,0.0,0.0,-0.0,-0.2086,-0.3085,-0.6478,-0.6345,0.0,0.0,0.0,0.0,0.0,0.0,0.0,0.0,0.0,0.0,0.0,0.0,0.0,0.0,0.0,0.0,0.0,0.0,0.0,0.0,0.0,0.0,0.0,0.0,0.0,0.0,0.0,0.0,0.0,0.0,0.0,0.0,0.0,0.0,-0.8207,-0.8467,-0.8174,-0.7479,-0.766,-0.783,-0.8346,-0.844,-0.8432,-0.8346,-0.8857,-0.8972,-0.8718,-0.8377,-0.826,-0.8181,-0.7914,-0.8094,-0.8873,-0.8971,-0.8684,-0.8189,-0.7809,-0.7242,-0.6672,-0.6288,-0.6096,-0.6082,-0.603,-0.6014,-0.6014,-0.6014,-0.6016,-0.6033,-0.6085,-0.6482,-0.7052,-0.7429,-0.7996,-0.8538,-0.8836,-0.9007,-0.9032,-0.9118,-0.9212,-0.9136,-0.8701,-0.8795,-0.8851,-0.8843,-0.8787,-0.9328,-1.0881,-1.1802,-1.2939,-1.4993,-1.5181,-1.5181,-1.5181,-1.5181,-1.5556,-1.6494,-1.3864,-1.2167,-1.1967,-0.9896,-0.7002,-0.2988,-0.0937,0.0,0.0,0.0,0.0,-0.0,-0.2086,-0.3085,-0.64,-0.6034,0.0,0.0,0.0,0.0,0.0,0.0,0.0,0.0,0.0,0.0,0.0,0.0,0.0,0.0,0.0,0.0,0.0,0.0,0.0,0.0,0.0,0.0,0.0,0.0,0.0,0.0,0.0,0.0,0.0,0.0,0.0,0.0,0.0,0.0,0.0,-0.893,-0.8592,-0.8169,-0.8057,-0.8133,-0.8256,-0.8403,-0.8452,-0.8415,-0.8878,-0.9003,-0.8963,-0.9076,-0.8766,-0.8358,-0.8083,-0.8236,-0.852,-0.8848,-0.8731,-0.8379,-0.7809,-0.7242,-0.6862,-0.6288,-0.6098,-0.6087,-0.603,-0.6014,-0.6006,-0.5967,-0.5984,-0.6027,-0.6082,-0.6288,-0.6669,-0.7429,-0.7809,-0.8182,-0.8908,-0.9093,-0.9101,-0.9138,-0.9261,-0.9184,-0.8664,-0.8787,-0.8877,-0.8877,-0.8851,-0.94,-1.1102,-1.1573,-1.2576,-1.502,-1.5181,-1.5181,-1.5181,-1.5181,-1.4241,-1.2161,-1.3293,-1.3487,-1.2172,-1.1436,-0.9134,-0.5112,-0.1686,0.0,0.0,0.0,0.0,-0.0,-0.2071,-0.3106,-0.6343,0.0,0.0,0.0,0.0,0.0,0.0,0.0,0.0,0.0,0.0,0.0,0.0,0.0,0.0,0.0,0.0,0.0,0.0,0.0,0.0,0.0,0.0,0.0,0.0,0.0,0.0,0.0,0.0,0.0,0.0,0.0,0.0,0.0,0.0,0.0,0.0,-0.943,-0.8894,-0.8608,-0.8579,-0.8344,-0.8121,-0.8272,-0.8375,-0.8424,-0.8878,-0.9025,-0.9016,-0.9436,-0.9284,-0.8709,-0.8848,-0.864,-0.8704,-0.9044,-0.8908,-0.8531,-0.7774,-0.7379,-0.6986,-0.6232,-0.6041,-0.6033,-0.5973,-0.597,-0.5976,-0.5935,-0.5967,-0.6027,-0.6082,-0.6098,-0.6288,-0.7239,-0.7433,-0.7809,-0.8763,-0.8952,-0.9142,-0.9142,-0.9072,-0.8974,-0.8394,-0.8332,-0.8435,-0.8435,-0.846,-0.9047,-1.0356,-1.0739,-1.2046,-1.5109,-1.5466,-1.5391,-1.5201,-1.5181,-1.4052,-1.1222,-1.235,-1.2922,-1.2172,-1.1047,-0.858,-0.5151,-0.1683,0.037,0.0926,0.0368,0.0,-0.0,-0.206,-0.3118,0.0,0.0,0.0,0.0,0.0,0.0,0.0,0.0,0.0,0.0,0.0,0.0,0.0,0.0,0.0,0.0,0.0,0.0,0.0,0.0,0.0,0.0,0.0,0.0,0.0,0.0,0.0,0.0,0.0,0.0,0.0,0.0,0.0,0.0,0.0,0.0,0.0,-0.9677,-0.9302,-0.9083,-0.9188,-0.8752,-0.7938,-0.8023,-0.8162,-0.8334,-0.8852,-0.9025,-0.9016,-0.9436,-0.9621,-0.9735,-0.9949,-0.9798,-0.9613,-0.9715,-0.9377,-0.882,-0.7881,-0.7456,-0.721,-0.6291,-0.5924,-0.5913,-0.585,-0.5875,-0.5924,-0.5924,-0.5967,-0.6027,-0.6082,-0.6098,-0.6288,-0.6862,-0.7242,-0.7809,-0.8379,-0.8759,-0.9142,-0.9142,-0.8829,-0.831,-0.7735,-0.7466,-0.7162,-0.7162,-0.7421,-0.7867,-0.8475,-0.9279,-1.1483,-1.5678,-1.6083,-1.5839,-1.5242,-1.5194,-1.5187,-1.5181,-1.1411,-1.009,-1.2172,-0.8375,-0.5147,-0.3052,-0.1122,0.0926,0.2964,0.0945,0.0,-0.0,-0.2061,-0.3116,0.0,0.0,0.0,0.0,0.0,0.0,0.0,0.0,0.0,0.0,0.0,0.0,0.0,0.0,0.0,0.0,0.0,0.0,0.0,0.0,0.0,0.0,0.0,0.0,0.0,0.0,0.0,0.0,0.0,0.0,0.0,0.0,0.0,0.0,0.0,0.0,0.0,0.0,-0.962,-0.9341,-0.9376,-0.9191,-0.8761,-0.876,-0.8696,-0.8753,-0.865,-0.868,-0.9021,-0.9511,-0.986,-1.0259,-1.0126,-0.989,-0.9964,-1.0137,-0.9834,-0.9279,-0.8724,-0.7966,-0.7207,-0.6657,-0.6137,-0.5976,-0.5913,-0.5937,-0.5978,-0.5935,-0.5967,-0.6016,-0.6033,-0.6068,-0.6288,-0.7239,-0.7429,-0.7809,-0.8763,-0.8952,-0.9142,-0.9142,-0.9024,-0.8699,-0.7928,-0.7619,-0.7498,-0.7333,-0.7358,-0.799,-0.9267,-1.2279,-1.4682,-1.5884,-1.6083,-1.6008,-1.5832,-1.5818,-1.5635,-1.5208,-1.5362,-1.3852,-1.009,-0.8763,-0.6669,-0.3243,-0.1107,0.0906,0.2901,0.0939,0.0,-0.0,-0.2147,-0.3197,0.0,0.0,0.0,0.0,0.0,0.0,0.0,0.0,0.0,0.0,0.0,0.0,0.0,0.0,0.0,0.0,0.0,0.0,0.0,0.0,0.0,0.0,0.0,0.0,0.0,0.0,0.0,0.0,0.0,0.0,0.0,0.0,0.0,0.0,0.0,0.0,0.0,0.0,0.0,-0.9708,-0.9756,-0.9734,-0.9612,-0.9127,-0.9105,-0.9054,-0.877,-0.8813,-0.9362,-0.9455,-1.0007,-1.0657,-1.0524,-1.0298,-1.0286,-1.0364,-1.0245,-0.973,-0.8998,-0.8243,-0.7488,-0.6759,-0.6256,-0.5935,-0.5897,-0.5946,-0.6006,-0.597,-0.6,-0.6046,-0.6046,-0.6074,-0.6288,-0.7049,-0.7453,-0.7858,-0.8622,-0.9004,-0.9199,-0.9199,-0.902,-0.8649,-0.7879,-0.7559,-0.7427,-0.7074,-0.6943,-0.7605,-0.9468,-1.3478,-1.6083,-1.6083,-1.6083,-1.6083,-1.6083,-1.6083,-1.5825,-1.5221,-1.7055,-1.5458,-0.9544,-0.845,-0.6429,-0.3169,-0.1091,0.0898,0.2874,0.0936,0.0,-0.0,-0.2183,-0.323,0.0,0.0,0.0,0.0,0.0,0.0,0.0,0.0,0.0,0.0,0.0,0.0,0.0,0.0,0.0,0.0,0.0,0.0,0.0,0.0,0.0,0.0,0.0,0.0,0.0,0.0,0.0,0.0,0.0,0.0,0.0,0.0,0.0,0.0,0.0,0.0,0.0,0.0,0.0,0.0,0.0,-1.0204,-1.021,-0.9532,-0.9433,-0.9564,-0.904,-0.9265,-0.9697,-0.9502,-1.0104,-1.1232,-1.1009,-1.1025,-1.105,-1.0942,-1.062,-1.0173,-0.9264,-0.8485,-0.7877,-0.6988,-0.6317,-0.5826,-0.5831,-0.5918,-0.6014,-0.6014,-0.6055,-0.6098,-0.6098,-0.6098,-0.6288,-0.6862,-0.7297,-0.7928,-0.851,-0.9088,-0.9281,-0.9281,-0.8821,-0.8379,-0.7809,-0.7297,-0.6963,-0.621,-0.6335,-0.7239,-0.9074,-1.3079,-1.5678,-1.6083,-1.6083,-1.6083,-1.6083,-1.6083,-1.5845,-1.5296,-1.7147,-1.5684,-0.9865,-0.7585,-0.5443,-0.3273,-0.109,0.0908,0.2543,0.0943,0.0,-0.0,-0.2186,-0.3236,0.0,0.0,0.0,0.0,0.0,0.0,0.0,0.0,0.0,0.0,0.0,0.0,0.0,0.0,0.0,0.0,0.0,0.0,0.0,0.0,0.0,0.0,0.0,0.0,0.0,0.0,0.0,0.0,0.0,0.0,0.0,0.0,0.0,0.0,0.0,0.0,-1.0384,-1.0335,0.0,0.0,-1.0188,-1.0204,-1.021,-1.026,-1.0169,-1.0068,-0.9137,-0.9036,-0.9702,-0.9578,-0.9958,-1.06,-1.1317,-1.1612,-1.1698,-1.167,-1.1389,-1.1136,-1.0421,-0.9459,-0.8333,-0.7688,-0.7004,-0.6131,-0.5818,-0.5918,-0.6014,-0.6014,-0.6055,-0.6098,-0.6098,-0.6098,-0.6288,-0.7239,-0.7681,-0.8328,-1.014,-0.9906,-0.9281,-0.9281,-0.9016,-0.8763,-0.8193,-0.7827,-0.7459,-0.6317,-0.6153,-0.644,-0.7038,-0.9476,-1.2279,-1.5678,-1.6083,-1.6083,-1.6083,-1.6083,-1.6029,-1.59,-1.7848,-1.6321,-0.9878,-0.8946,-0.7516,-0.5525,-0.1775,0.0197,0.0592,0.0199,0.0,-0.0,-0.2213,-0.3281,0.0,0.0,0.0,0.0,0.0,0.0,0.0,0.0,0.0,0.0,0.0,0.0,0.0,0.0,0.0,0.0,0.0,0.0,0.0,0.0,0.0,0.0,0.0,0.0,0.0,0.0,0.0,0.0,0.0,0.0,0.0,0.0,0.0,0.0,0.0,0.0,-1.0465,-1.0411,-1.0356,-1.0291,-1.0291,-1.0451,-1.0936,-1.0958,-1.0788,-1.0414,-0.9908,-0.98,-0.9899,-0.9844,-1.0119,-1.0809,-1.1261,-1.1698,-1.1963,-1.2073,-1.1923,-1.1642,-1.117,-1.0092,-0.8996,-0.8117,-0.7314,-0.6687,-0.5968,-0.5872,-0.5976,-0.6006,-0.6036,-0.6063,-0.609,-0.6098,-0.6493,-0.8089,-0.8142,-0.8383,-0.998,-0.9798,-0.9391,-0.935,-0.9301,-0.9052,-0.8207,-0.7623,-0.6859,-0.6288,-0.6098,-0.6185,-0.6431,-0.7468,-1.0275,-1.5479,-1.6083,-1.6083,-1.6083,-1.6083,-1.6083,-1.6083,-1.7077,-1.5273,-0.9882,-0.9501,-0.8431,-0.6098,-0.3968,-0.2002,0.0,0.0,0.0,-0.0,-0.2221,-0.3295,0.0,0.0,0.0,0.0,0.0,0.0,0.0,0.0,0.0,0.0,0.0,0.0,0.0,0.0,0.0,0.0,0.0,0.0,0.0,0.0,0.0,0.0,0.0,0.0,0.0,0.0,0.0,0.0,0.0,0.0,0.0,0.0,0.0,0.0,0.0,-1.0563,-1.0585,-1.0492,-1.0438,-1.0416,-1.0394,-1.0867,-1.1678,-1.1457,-1.1178,-1.0857,-1.0634,-1.0522,-1.0211,-1.0065,-1.0428,-1.121,-1.1373,-1.1804,-1.2126,-1.2515,-1.2312,-1.2015,-1.1614,-1.075,-0.9835,-0.8387,-0.7622,-0.7214,-0.6105,-0.5818,-0.5918,-0.5967,-0.5997,-0.6025,-0.6071,-0.609,-0.6699,-0.8756,-0.8615,-0.8442,-0.964,-0.9879,-0.9699,-0.9828,-0.9582,-0.912,-0.8405,-0.7049,-0.6098,-0.6098,-0.6098,-0.6169,-0.6373,-0.6398,-0.8606,-1.447,-1.5678,-1.6042,-1.5934,-1.6022,-1.6083,-1.6083,-1.6083,-1.4083,-0.9882,-0.9681,-0.8772,-0.6806,-0.6087,-0.3778,0.0,0.0,0.0,-0.0,-0.2221,-0.3295,0.0,0.0,0.0,0.0,0.0,0.0,0.0,0.0,0.0,0.0,0.0,0.0,0.0,0.0,0.0,0.0,0.0,0.0,0.0,0.0,0.0,0.0,0.0,0.0,0.0,0.0,0.0,0.0,0.0,0.0,0.0,0.0,-1.046,-1.0574,-1.0563,0.0,-1.071,-1.0699,-1.0639,-1.053,-1.0433,-1.0867,-1.1671,-1.169,-1.1863,-1.2024,-1.0907,-1.0324,-1.042,-1.0195,-1.0213,-1.0574,-1.1675,-1.2313,-1.2655,-1.2859,-1.3063,-1.3016,-1.2273,-1.1642,-1.0799,-0.9396,-0.8301,-0.7359,-0.6599,-0.6149,-0.5845,-0.5853,-0.5932,-0.6014,-0.6022,-0.6441,-0.7071,-0.7921,-0.8189,-0.9252,-1.1788,-1.1496,-1.0801,-1.1245,-1.0091,-0.9171,-0.8956,-0.7429,-0.6098,-0.6098,-0.6098,-0.6109,-0.6142,-0.6145,-0.7194,-1.0245,-1.3878,-1.5872,-1.5343,-1.5784,-1.6083,-1.6083,-1.6083,-1.4083,-0.9882,-0.9681,-0.96,-0.9647,-0.5714,-0.2417,0.0,0.0,0.0,-0.0,-0.2221,-0.3295,0.0,0.0,0.0,0.0,0.0,0.0,0.0,0.0,0.0,0.0,0.0,0.0,0.0,0.0,0.0,0.0,0.0,0.0,0.0,0.0,0.0,0.0,0.0,0.0,0.0,0.0,0.0,0.0,0.0,0.0,0.0,-1.081,-1.0606,-1.0655,-1.0655,0.0,-1.0737,-1.0737,-1.071,-1.0655,-1.0536,-1.0807,-1.1451,-1.1462,-1.1714,-1.2198,-1.1641,-1.138,-1.112,-1.0913,-1.0775,-1.1147,-1.1473,-1.2101,-1.2539,-1.2923,-1.3133,-1.3255,-1.2799,-1.2271,-1.1373,-1.0359,-0.9302,-0.8237,-0.7213,-0.639,-0.6097,-0.5771,-0.5845,-0.5927,-0.6369,-0.6597,-0.7021,-0.7897,-0.8688,-0.9893,-1.2316,-1.1362,-1.0361,-1.0586,-0.9743,-0.9207,-0.9412,-0.8503,-0.7429,-0.6288,-0.6098,-0.6098,-0.6098,-0.6218,-0.6739,-0.7854,-1.0676,-1.3393,-1.5515,-1.5927,-1.6083,-1.6083,-1.6083,-1.528,-1.3279,-1.0881,-0.9755,-0.9914,-0.6713,-0.4038,-0.1817,-0.1818,-0.1818,-0.1817,-0.2826,-0.3258,0.0,0.0,0.0,0.0,0.0,0.0,0.0,0.0,0.0,0.0,0.0,0.0,0.0,0.0,0.0,0.0,0.0,0.0,0.0,0.0,0.0,0.0,0.0,0.0,0.0,0.0,0.0,0.0,0.0,0.0,-1.1769,-1.1137,-1.0737,-1.0737,-1.0737,-1.0737,-1.0737,-1.0737,-1.0737,-1.0737,-1.0645,-1.0749,-1.1201,-1.1338,-1.169,-1.2108,-1.2217,-1.2122,-1.1845,-1.1486,-1.1529,-1.1582,-1.1622,-1.1896,-1.2454,-1.2873,-1.3265,-1.3389,-1.3255,-1.2786,-1.1963,-1.1031,-1.0005,-0.8983,-0.769,-0.703,-0.639,-0.6068,-0.5951,-0.6038,-0.652,-0.6749,-0.7171,-0.8081,-0.9028,-1.019,-1.1809,-1.1187,-1.0079,-0.9681,-0.9465,-0.9367,-0.9632,-0.9383,-0.8383,-0.6479,-0.6098,-0.612,-0.6183,-0.6349,-0.6461,-0.6461,-0.8475,-1.1483,-1.5678,-1.6083,-1.6083,-1.6083,-1.6083,-1.6083,-1.6083,-1.1989,-0.9775,-0.9681,-0.7669,-0.545,-0.323,-0.3232,-0.3247,-0.3276,-0.3245,-0.323,0.0,0.0,0.0,0.0,0.0,0.0,0.0,0.0,0.0,0.0,0.0,0.0,0.0,0.0,0.0,0.0,0.0,0.0,0.0,0.0,0.0,0.0,0.0,0.0,0.0,0.0,0.0,0.0,0.0,0.0,-1.2283,-1.1305,-1.0737,-1.0737,-1.0737,-1.0737,-1.0737,-1.0737,-1.0737,-1.0737,-1.0732,-1.0832,-1.1207,-1.1522,-1.1863,-1.2101,-1.2108,-1.2192,-1.2166,-1.1975,-1.1694,-1.1582,-1.1957,-1.2234,-1.2638,-1.2974,-1.3581,-1.4082,-1.3696,-1.3129,-1.2517,-1.1754,-1.0303,-0.8996,-0.864,-0.7817,-0.6978,-0.6381,-0.6279,-0.6392,-0.6095,-0.6712,-0.7544,-0.7698,-0.8695,-0.9683,-1.0755,-1.1333,-1.1282,-0.9878,-0.9665,-0.9657,-0.9677,-0.9383,-0.8383,-0.6479,-0.6098,-0.618,-0.6412,-0.6452,-0.6461,-0.6461,-0.8475,-1.1483,-1.5678,-1.6083,-1.6083,-1.6083,-1.6083,-1.6083,-1.6083,-1.228,-1.0028,-0.9685,-0.7669,-0.545,-0.323,-0.323,-0.329,-0.34,-0.3284,-0.323,0.0,0.0,0.0,0.0,0.0,0.0,0.0,0.0,0.0,0.0,0.0,0.0,0.0,0.0,0.0,0.0,0.0,0.0,0.0,0.0,0.0,0.0,0.0,0.0,0.0,0.0,0.0,0.0,0.0,0.0,-1.2405,-1.1086,-1.0483,-1.0242,-1.0237,-1.0404,-1.0737,-1.0404,-1.0404,-1.0737,-1.0737,-1.0672,-1.088,-1.1534,-1.1763,-1.1918,-1.2396,-1.2749,-1.2648,-1.2462,-1.2301,-1.2315,-1.2185,-1.2483,-1.2981,-1.2809,-1.3307,-1.4211,-1.3637,-1.3123,-1.2808,-1.2503,-1.1373,-0.9873,-0.9171,-0.8493,-0.7806,-0.7068,-0.6958,-0.688,-0.6813,-0.7452,-0.8112,-0.8661,-0.9515,-1.0338,-0.9984,-1.0932,-1.1282,-0.9882,-0.9681,-0.9681,-0.9681,-0.9575,-0.9212,-0.8222,-0.6859,-0.6128,-0.6215,-0.6365,-0.6461,-0.6461,-0.7267,-0.8873,-1.1678,-1.4482,-1.6083,-1.6083,-1.6083,-1.6083,-1.6083,-1.2305,-1.0049,-0.9689,-0.827,-0.6861,-0.5248,-0.3836,-0.3292,-0.341,-0.3287,-0.323,0.0,0.0,0.0,0.0,0.0,0.0,0.0,0.0,0.0,0.0,0.0,0.0,0.0,0.0,0.0,0.0,0.0,0.0,0.0,0.0,0.0,0.0,0.0,0.0,0.0,0.0,0.0,0.0,0.0,0.0,-1.2539,-1.1174,-1.0192,-0.9908,-0.9903,-1.007,-1.057,-1.0237,-1.0237,-1.0737,-1.0693,-1.0634,-1.0558,-1.1534,-1.1794,-1.1678,-1.2741,-1.3078,-1.3037,-1.2807,-1.2795,-1.2817,-1.2577,-1.2892,-1.3223,-1.2706,-1.3203,-1.3932,-1.3481,-1.2978,-1.2698,-1.2698,-1.1754,-1.0445,-0.9707,-0.9198,-0.8509,-0.7596,-0.747,-0.7387,-0.7174,-0.7656,-0.8142,-0.8821,-0.9683,-1.0148,-0.9594,-1.0537,-1.1282,-0.9882,-0.9681,-0.9681,-0.9681,-0.9078,-0.8603,-0.8192,-0.6997,-0.6221,-0.6221,-0.6363,-0.6461,-0.6461,-0.6461,-0.7065,-0.8475,-1.3279,-1.6083,-1.6083,-1.6273,-1.6381,-1.6381,-1.2385,-1.0102,-0.9865,-0.9132,-0.7867,-0.6461,-0.5047,-0.4294,-0.4396,-0.4288,-0.424,0.0,0.0,0.0,0.0,0.0,0.0,0.0,0.0,0.0,0.0,0.0,0.0,0.0,0.0,0.0,0.0,0.0,0.0,0.0,0.0,0.0,0.0,0.0,0.0,0.0,0.0,0.0,0.0,0.0,-1.2674,-1.2674,-1.1218,-1.0023,-0.9412,-0.9407,-0.9574,-1.007,-1.007,-1.0237,-1.0737,-1.0617,-1.0558,-1.0558,-1.154,-1.18,-1.1696,-1.2946,-1.3315,-1.318,-1.318,-1.3191,-1.2952,-1.2959,-1.3126,-1.3371,-1.2848,-1.3117,-1.3591,-1.3053,-1.252,-1.2165,-1.2165,-1.1455,-1.0545,-1.0083,-0.96,-0.9126,-0.814,-0.7825,-0.775,-0.681,-0.7136,-0.7809,-0.8193,-0.8829,-0.9305,-0.9387,-1.0339,-1.0881,-0.9882,-0.9681,-0.9681,-0.9681,-0.7871,-0.6461,-0.6461,-0.6461,-0.6461,-0.6461,-0.6461,-0.6461,-0.6461,-0.6461,-0.6461,-0.6461,-1.2274,-1.5884,-1.6083,-1.6646,-1.6978,-1.6978,-1.2752,-1.0428,-1.0216,-0.9865,-0.8676,-0.6461,-0.6461,-0.6461,-0.6461,-0.6461,-0.6461,-0.868,0.0,0.0,0.0,0.0,0.0,0.0,0.0,0.0,0.0,0.0,0.0,0.0,0.0,0.0,0.0,0.0,0.0,0.0,0.0,0.0,0.0,0.0,0.0,0.0,0.0,0.0,0.0,0.0,-1.2425,-1.268,-1.0881,-0.955,-0.9009,-0.8601,-0.8901,-0.9569,-0.924,-0.924,-0.9736,-1.0039,-1.0143,-1.0066,-1.147,-1.194,-1.1818,-1.2986,-1.3376,-1.3336,-1.3336,-1.3451,-1.3472,-1.3573,-1.3727,-1.3733,-1.3136,-1.3198,-1.3413,-1.2698,-1.2343,-1.2165,-1.2165,-1.181,-1.1094,-1.0707,-1.0416,-1.0305,-0.9126,-0.8986,-0.8936,-0.8065,-0.7736,-0.7578,-0.7938,-0.8339,-0.8718,-0.8806,-0.9497,-0.9998,-0.9669,-0.9681,-0.9681,-0.9681,-0.7871,-0.6461,-0.6461,-0.6461,-0.6461,-0.6461,-0.6461,-0.6461,-0.6461,-0.6461,-0.6461,-0.6461,-0.8065,-1.1073,-1.5884,-1.6646,-1.6978,-1.6978,-1.571,-1.3597,-1.0216,-0.9865,-0.8676,-0.6461,-0.6461,-0.6461,-0.6461,-0.6461,-0.6461,0.0,0.0,0.0,0.0,0.0,0.0,0.0,0.0,0.0,0.0,0.0,0.0,0.0,0.0,0.0,0.0,0.0,0.0,0.0,0.0,0.0,0.0,0.0,0.0,0.0,0.0,0.0,0.0,-1.2487,-1.2126,-1.1479,-1.0355,-0.9265,-0.8709,-0.8315,-0.8454,-0.9132,-0.8923,-0.8905,-0.9402,-0.9858,-0.9963,-0.9902,-1.1123,-1.1776,-1.1873,-1.284,-1.3271,-1.3498,-1.3498,-1.3587,-1.3729,-1.3878,-1.4027,-1.4001,-1.3205,-1.3053,-1.323,-1.2165,-1.1988,-1.1988,-1.1988,-1.1632,-1.1455,-1.0921,-1.0824,-1.072,-0.9936,-0.945,-0.9011,-0.8237,-0.7701,-0.7541,-0.7482,-0.7694,-0.8281,-0.8559,-0.8818,-0.9103,-0.9648,-0.9681,-0.9681,-0.9681,-0.7871,-0.6461,-0.6461,-0.6461,-0.6461,-0.6461,-0.6461,-0.6461,-0.6461,-0.6461,-0.6461,-0.6461,-0.6461,-0.9271,-1.5678,-1.6646,-1.6978,-1.6978,-1.6978,-1.4868,-1.0216,-0.9865,-0.8676,-0.6461,-0.6461,-0.6461,-0.6461,-0.6461,-0.6461,0.0,0.0,0.0,0.0,0.0,0.0,-0.9678,-0.9526,0.0,0.0,0.0,0.0,0.0,0.0,0.0,0.0,0.0,0.0,0.0,0.0,0.0,0.0,0.0,0.0,0.0,0.0,0.0,-1.2435,-1.246,-1.1732,-0.9758,-0.9654,-0.9311,-0.8199,-0.8187,-0.8352,-0.8862,-0.861,-0.8905,-0.9235,-0.9637,-0.9927,-0.9937,-1.076,-1.1582,-1.1916,-1.2554,-1.3004,-1.3439,-1.3654,-1.3749,-1.3878,-1.4021,-1.4163,-1.4122,-1.323,-1.2875,-1.2698,-1.181,-1.1455,-1.1455,-1.1455,-1.1455,-1.146,-1.0936,-1.084,-1.0937,-1.0402,-0.9551,-0.8692,-0.76,-0.747,-0.7333,-0.6779,-0.7207,-0.7653,-0.8306,-0.8343,-0.8622,-0.9436,-0.9697,-0.9706,-0.9685,-0.7871,-0.6461,-0.6461,-0.6461,-0.6461,-0.6461,-0.6461,-0.6461,-0.6461,-0.6461,-0.6461,-0.6461,-0.6461,-0.8869,-1.4676,-1.6234,-1.6978,-1.6978,-1.6978,-1.4868,-1.0216,-0.9656,-0.8475,-0.6461,-0.6461,-0.6461,-0.6461,-0.6461,-0.6461,-0.9202,-0.9433,-0.9536,0.0,0.0,0.0,0.0,-0.9888,0.0,0.0,0.0,0.0,0.0,0.0,0.0,0.0,0.0,0.0,0.0,0.0,0.0,0.0,0.0,0.0,0.0,0.0,-1.1831,-1.2301,-1.2405,-1.1767,-1.0371,-0.9797,-0.9242,-0.8199,-0.8125,-0.8089,-0.8257,-0.824,-0.8232,-0.8399,-0.9049,-0.9584,-0.9671,-1.102,-1.1693,-1.2197,-1.2841,-1.2959,-1.2971,-1.3666,-1.4,-1.4027,-1.4061,-1.4163,-1.4122,-1.323,-1.2875,-1.2698,-1.181,-1.1455,-1.1455,-1.1455,-1.1455,-1.1471,-1.1389,-1.1502,-1.1436,-1.0601,-0.9653,-0.872,-0.7733,-0.721,-0.6856,-0.6333,-0.674,-0.7349,-0.781,-0.8416,-0.886,-0.9644,-0.98,-0.9853,-0.9706,-0.7871,-0.6461,-0.6461,-0.6461,-0.6461,-0.6461,-0.6461,-0.6461,-0.6461,-0.6461,-0.6461,-0.6461,-0.6461,-0.7065,-0.8266,-1.3744,-1.6978,-1.6978,-1.6978,-1.4868,-1.0216,-0.8222,-0.6864,-0.6461,-0.6461,-0.6461,-0.6461,-0.6461,-0.6461,-0.9349,-0.9434,-0.9515,-0.9428,0.0,0.0,0.0,0.0,0.0,0.0,0.0,0.0,0.0,0.0,0.0,0.0,0.0,0.0,0.0,0.0,0.0,0.0,0.0,0.0,0.0,0.0,-1.1458,-1.216,-1.2234,-1.1763,-1.0572,-0.9904,-0.9224,-0.8539,-0.8323,-0.813,-0.813,-0.8085,-0.806,-0.806,-0.9123,-0.9511,-0.9569,-1.0811,-1.1521,-1.2039,-1.2613,-1.2771,-1.2728,-1.3454,-1.3766,-1.3832,-1.4183,-1.4231,-1.4122,-1.3591,-1.3053,-1.2869,-1.209,-1.1583,-1.1444,-1.1384,-1.1444,-1.1558,-1.1618,-1.1759,-1.1742,-1.0924,-1.0128,-0.933,-0.7921,-0.7376,-0.7008,-0.6283,-0.6314,-0.6728,-0.7343,-0.7793,-0.8449,-0.8898,-0.9472,-0.9787,-0.9697,-0.9012,-0.7831,-0.6682,-0.6461,-0.6461,-0.6461,-0.6461,-0.6461,-0.6461,-0.657,-0.6638,-0.6638,-0.7673,-0.8229,-0.8082,-1.1465,-1.4651,-1.6978,-1.6978,-1.4868,-1.0216,-0.8998,-0.788,-0.6638,-0.6521,-0.6461,-0.6461,-0.6461,-0.6461,0.0,0.0,0.0,0.0,0.0,-0.9569,0.0,0.0,0.0,0.0,0.0,0.0,0.0,0.0,0.0,0.0,0.0,0.0,0.0,0.0,0.0,0.0,0.0,0.0,0.0,0.0,-1.1338,-1.2173,-1.1934,-1.1435,-1.0898,-0.9988,-0.9361,-0.8848,-0.8357,-0.8199,-0.8199,-0.8142,-0.8113,-0.8282,-0.921,-0.9602,-0.9797,-1.0746,-1.1307,-1.1825,-1.2188,-1.2409,-1.2637,-1.3041,-1.3286,-1.3375,-1.3932,-1.4299,-1.4299,-1.3768,-1.323,-1.2863,-1.222,-1.1726,-1.1261,-1.1164,-1.1293,-1.1491,-1.1518,-1.1667,-1.1668,-1.0824,-1.0404,-0.9777,-0.7903,-0.7551,-0.7187,-0.6224,-0.609,-0.6336,-0.6893,-0.7375,-0.8054,-0.842,-0.915,-0.9681,-0.9681,-0.9979,-0.9255,-0.6901,-0.6461,-0.6461,-0.6461,-0.6461,-0.6461,-0.6461,-0.6676,-0.703,-0.7456,-0.9155,-1.0094,-0.9804,-0.9639,-1.1271,-1.4862,-1.6341,-1.4868,-1.0216,-1.0216,-0.9155,-0.6818,-0.6624,-0.6507,-0.6463,-0.651,-0.6529,0.0,0.0,0.0,0.0,-1.0461,0.0,0.0,0.0,0.0,0.0,0.0,0.0,0.0,0.0,0.0,0.0,0.0,0.0,0.0,0.0,0.0,0.0,0.0,0.0,0.0,0.0,0.0,-1.2983,-1.1603,-1.0803,-1.1374,-1.0085,-0.9254,-0.8756,-0.8327,-0.8199,-0.8199,-0.8268,-0.8473,-0.8818,-0.952,-0.9918,-1.0534,-1.1073,-1.1428,-1.1958,-1.2073,-1.2179,-1.2003,-1.2759,-1.2614,-1.2354,-1.3362,-1.3945,-1.4299,-1.3768,-1.323,-1.2875,-1.2325,-1.1621,-1.0738,-1.0728,-1.0875,-1.1258,-1.1176,-1.1294,-1.1207,-1.0275,-0.9698,-0.8928,-0.7795,-0.732,-0.68,-0.6303,-0.6215,-0.6513,-0.7197,-0.7449,-0.7939,-0.922,-0.9661,-0.9681,-0.9681,-0.9979,-0.9255,-0.6901,-0.6461,-0.6461,-0.6461,-0.6461,-0.6461,-0.6461,-0.6676,-0.7668,-0.958,-1.0004,-1.02,-1.0159,-0.8286,-0.7456,-0.7878,-1.3802,-1.4868,-1.0216,-1.0216,-0.9155,-0.6818,-0.679,-0.6668,-0.6466,-0.6679,-0.6777,0.0,0.0,0.0,0.0,0.0,0.0,0.0,0.0,-0.952,0.0,0.0,0.0,0.0,0.0,0.0,0.0,0.0,0.0,0.0,0.0,0.0,0.0,0.0,0.0,0.0,0.0,0.0,0.0,0.0,-1.1083,-1.1582,-1.0298,-0.9506,-0.9068,-0.8492,-0.8369,-0.8535,-0.8633,-0.9025,-0.9544,-0.9947,-1.0349,-1.0575,-1.117,-1.1555,-1.1732,-1.1965,-1.1931,-1.1664,-1.2302,-1.2314,-1.209,-1.268,-1.323,-1.3945,-1.3945,-1.3591,-1.2863,-1.2607,-1.1976,-1.1225,-1.1357,-1.1462,-1.1562,-1.1309,-1.1375,-1.1227,-1.009,-0.9711,-0.9328,-0.7999,-0.7506,-0.7181,-0.6353,-0.6237,-0.6496,-0.6626,-0.6597,-0.6791,-0.7411,-0.7751,-0.7871,-0.7871,-0.8989,-0.9648,-0.8492,-0.7267,-0.6461,-0.6461,-0.6461,-0.6461,-0.6461,-0.6676,-0.7243,-0.8093,-0.9367,-1.0126,-0.9918,-0.7999,-0.8511,-1.253,-1.5493,-1.4868,-1.0216,-1.0216,-0.9155,-0.6818,-0.6818,-0.6766,-0.6668,-0.663,-0.6684,-0.8958,0.0,0.0,0.0,0.0,0.0,0.0,0.0,0.0,0.0,0.0,0.0,0.0,0.0,0.0,0.0,0.0,0.0,0.0,0.0,0.0,0.0,0.0,0.0,0.0,0.0,0.0,0.0,0.0,0.0,-1.1763,-1.0666,-0.9773,-0.9445,-0.8701,-0.859,-0.8959,-0.903,-0.9426,-0.9976,-1.0374,-1.0781,-1.0848,-1.1287,-1.1525,-1.1552,-1.1911,-1.1894,-1.1504,-1.1861,-1.2022,-1.1988,-1.2165,-1.2698,-1.323,-1.3945,-1.3591,-1.2686,-1.2759,-1.2171,-1.1491,-1.1726,-1.1801,-1.1636,-1.138,-1.1227,-1.1037,-0.9901,-0.9694,-0.9299,-0.7996,-0.7677,-0.7732,-0.6574,-0.6649,-0.6704,-0.6251,-0.6218,-0.6196,-0.6196,-0.6341,-0.6461,-0.6461,-0.7871,-0.8877,-0.9275,-0.7669,-0.6461,-0.6461,-0.6461,-0.6461,-0.6461,-0.6616,-0.6747,-0.6812,-0.8306,-0.9225,-0.8896,-0.7518,-0.8936,-1.4013,-1.592,-1.4651,-0.9367,-0.9367,-0.8518,-0.6818,-0.6818,-0.6818,-0.6815,-0.664,-0.6651,0.0,0.0,0.0,0.0,0.0,0.0,0.0,0.0,-0.9027,0.0,0.0,0.0,0.0,0.0,0.0,0.0,0.0,0.0,0.0,0.0,0.0,0.0,0.0,0.0,0.0,0.0,0.0,0.0,0.0,0.0,-1.1604,-1.0711,-1.006,-0.955,-0.9144,-0.9065,-0.9162,-0.9162,-0.9568,-1.0728,-1.0621,-1.0864,-1.1623,-1.1629,-1.1694,-1.1808,-1.1808,-1.1743,-1.1629,-1.1629,-1.1563,-1.1632,-1.1988,-1.2165,-1.2343,-1.3236,-1.3053,-1.2343,-1.2692,-1.2067,-1.0952,-1.1171,-1.1243,-1.1263,-1.0814,-1.0659,-1.0469,-0.9332,-0.9081,-0.8844,-0.7792,-0.806,-0.831,-0.7156,-0.7508,-0.7821,-0.6499,-0.6368,-0.645,-0.645,-0.6455,-0.6461,-0.6461,-0.6461,-0.6864,-0.8069,-0.7264,-0.6461,-0.6461,-0.6461,-0.6461,-0.6461,-0.6469,-0.6567,-0.6799,-0.6818,-0.6926,-0.6679,-0.6687,-0.6818,-0.703,-1.338,-1.3802,-0.703,-0.6818,-0.6818,-0.6818,-0.6818,-0.6818,-0.6818,-0.6809,-0.6809,0.0,0.0,-1.0633,-0.941,0.0,0.0,0.0,0.0,0.0,0.0,0.0,0.0,0.0,0.0,0.0,0.0,0.0,0.0,0.0,0.0,0.0,0.0,0.0,0.0,0.0,0.0,0.0,0.0,0.0,0.0,0.0,-1.1324,-1.0583,-1.0608,-0.9688,-0.9311,-0.9698,-0.9768,-1.017,-1.1277,-1.1234,-1.1261,-1.152,-1.1601,-1.1661,-1.1699,-1.1699,-1.1672,-1.1629,-1.1547,-1.1493,-1.1455,-1.1632,-1.181,-1.181,-1.3059,-1.3236,-1.2722,-1.2717,-1.2085,-1.1614,-1.1844,-1.1919,-1.1741,-1.1401,-1.1037,-1.0455,-0.9821,-0.9219,-0.8812,-0.8039,-0.8171,-0.831,-0.7542,-0.7708,-0.8052,-0.7605,-0.7032,-0.6461,-0.6461,-0.6461,-0.6461,-0.6461,-0.6461,-0.6662,-0.7065,-0.6662,-0.6461,-0.6461,-0.6461,-0.6461,-0.6461,-0.6461,-0.6559,-0.6799,-0.6818,-0.6717,-0.6477,-0.6537,-0.6654,-0.6812,-1.338,-1.3802,-0.703,-0.6818,-0.6818,-0.6818,-0.6818,-0.6818,-0.6818,-0.6818,-0.6818,-0.9524,-1.028,0.0,0.0,-1.0404,0.0,-0.9967,0.0,0.0,0.0,0.0,0.0,0.0,0.0,0.0,0.0,0.0,0.0,0.0,0.0,0.0,0.0,0.0,0.0,0.0,0.0,-0.902,-1.1135,-1.0991,0.0,0.0,0.0,-1.1488,-1.1042,-1.0179,-1.0024,-1.0102,-1.0136,-1.0722,-1.152,-1.1476,-1.1498,-1.1585,-1.1667,-1.1721,-1.1759,-1.1721,-1.1699,-1.1688,-1.1569,-1.1493,-1.1455,-1.1455,-1.1455,-1.1632,-1.2698,-1.3053,-1.2912,-1.2636,-1.2358,-1.2409,-1.2466,-1.2361,-1.2361,-1.1794,-1.1416,-1.0824,-0.9969,-0.9542,-0.9132,-0.8335,-0.8462,-0.8622,-0.8106,-0.8278,-0.8636,-0.8665,-0.8069,-0.7468,-0.6662,-0.6461,-0.6461,-0.6461,-0.6461,-0.6461,-0.6461,-0.6461,-0.6461,-0.6461,-0.6461,-0.6461,-0.6461,-0.6461,-0.6559,-0.6799,-0.7456,-0.797,-0.7686,-0.6864,-0.657,-0.6807,-1.1051,-1.253,-1.0416,-0.809,-0.6818,-0.6818,-0.6818,-0.6818,-0.6818,-0.6818,-0.6818]}]]